Wetterdaten: Freitag, 11.10.2019
Datum Zeit Temp. A. Feuchte A. Luftdruck Regen Wind Richtung Richtung Sonnenschein ET UV Solar Taupunkt Windchill Windböen
11.10.2019 00:00 6,6 °C 87 % 1021,7 hPa 0,0 mm 4,3 km/h (1 Bft) S-SW 201 ° 0 min 0,000 mm 0,0 UV-I 0 W/m² 4,6 °C 6,6 °C 8,0 km/h (2 Bft)
11.10.2019 00:01 6,6 °C 87 % 1021,7 hPa 0,0 mm 0,1 km/h (0 Bft) S-SW 201 ° 0 min 0,000 mm 0,0 UV-I 0 W/m² 4,6 °C 6,6 °C 1,6 km/h (1 Bft)
11.10.2019 00:02 6,6 °C 86 % 1021,7 hPa 0,0 mm 0,0 km/h (0 Bft) S-SW 201 ° 0 min 0,000 mm 0,0 UV-I 0 W/m² 4,4 °C 6,6 °C 0,0 km/h (0 Bft)
11.10.2019 00:03 6,5 °C 86 % 1021,7 hPa 0,0 mm 2,6 km/h (1 Bft) S-SW 203 ° 0 min 0,000 mm 0,0 UV-I 0 W/m² 4,3 °C 6,5 °C 4,8 km/h (1 Bft)
11.10.2019 00:04 6,5 °C 86 % 1021,7 hPa 0,0 mm 3,1 km/h (1 Bft) S-SW 192 ° 0 min 0,000 mm 0,0 UV-I 0 W/m² 4,3 °C 6,5 °C 6,4 km/h (2 Bft)
11.10.2019 00:05 6,6 °C 87 % 1021,8 hPa 0,0 mm 5,4 km/h (1 Bft) S 183 ° 0 min 0,000 mm 0,0 UV-I 0 W/m² 4,6 °C 5,8 °C 8,0 km/h (2 Bft)
11.10.2019 00:06 6,6 °C 87 % 1021,7 hPa 0,0 mm 4,9 km/h (1 Bft) S 176 ° 0 min 0,000 mm 0,0 UV-I 0 W/m² 4,6 °C 5,9 °C 8,0 km/h (2 Bft)
11.10.2019 00:07 6,7 °C 87 % 1021,7 hPa 0,0 mm 4,5 km/h (1 Bft) S 190 ° 0 min 0,000 mm 0,0 UV-I 0 W/m² 4,7 °C 6,7 °C 6,4 km/h (2 Bft)
11.10.2019 00:08 6,7 °C 87 % 1021,7 hPa 0,0 mm 3,6 km/h (1 Bft) SW 226 ° 0 min 0,000 mm 0,0 UV-I 0 W/m² 4,7 °C 6,7 °C 4,8 km/h (1 Bft)
11.10.2019 00:09 6,8 °C 87 % 1021,7 hPa 0,0 mm 4,9 km/h (1 Bft) S-SW 198 ° 0 min 0,000 mm 0,0 UV-I 0 W/m² 4,8 °C 6,2 °C 8,0 km/h (2 Bft)
11.10.2019 00:10 6,9 °C 86 % 1021,7 hPa 0,0 mm 6,3 km/h (2 Bft) S-SW 202 ° 0 min 0,000 mm 0,0 UV-I 0 W/m² 4,7 °C 5,8 °C 9,7 km/h (2 Bft)
11.10.2019 00:11 7,1 °C 86 % 1021,6 hPa 0,0 mm 3,3 km/h (1 Bft) S-SW 201 ° 0 min 0,000 mm 0,0 UV-I 0 W/m² 4,9 °C 7,1 °C 4,8 km/h (1 Bft)
11.10.2019 00:12 7,1 °C 86 % 1021,6 hPa 0,0 mm 3,2 km/h (1 Bft) S-SW 209 ° 0 min 0,000 mm 0,0 UV-I 0 W/m² 4,9 °C 7,1 °C 6,4 km/h (2 Bft)
11.10.2019 00:13 7,1 °C 86 % 1021,6 hPa 0,0 mm 2,9 km/h (1 Bft) S-SW 201 ° 0 min 0,000 mm 0,0 UV-I 0 W/m² 4,9 °C 7,1 °C 4,8 km/h (1 Bft)
11.10.2019 00:14 7,1 °C 85 % 1021,6 hPa 0,0 mm 3,1 km/h (1 Bft) S-SW 200 ° 0 min 0,000 mm 0,0 UV-I 0 W/m² 4,8 °C 7,1 °C 4,8 km/h (1 Bft)
11.10.2019 00:15 7,1 °C 85 % 1021,6 hPa 0,0 mm 3,7 km/h (1 Bft) S-SW 198 ° 0 min 0,000 mm 0,0 UV-I 0 W/m² 4,8 °C 7,1 °C 4,8 km/h (1 Bft)
11.10.2019 00:16 7,1 °C 85 % 1021,6 hPa 0,0 mm 4,2 km/h (1 Bft) S 179 ° 0 min 0,000 mm 0,0 UV-I 0 W/m² 4,8 °C 7,1 °C 6,4 km/h (2 Bft)
11.10.2019 00:17 7,1 °C 84 % 1021,5 hPa 0,0 mm 2,1 km/h (1 Bft) S 179 ° 0 min 0,000 mm 0,0 UV-I 0 W/m² 4,6 °C 7,1 °C 4,8 km/h (1 Bft)
11.10.2019 00:18 7,0 °C 84 % 1021,6 hPa 0,0 mm 1,8 km/h (1 Bft) S 179 ° 0 min 0,000 mm 0,0 UV-I 0 W/m² 4,5 °C 7,0 °C 3,2 km/h (1 Bft)
11.10.2019 00:19 7,0 °C 84 % 1021,6 hPa 0,0 mm 0,6 km/h (0 Bft) S 179 ° 0 min 0,000 mm 0,0 UV-I 0 W/m² 4,5 °C 7,0 °C 3,2 km/h (1 Bft)
11.10.2019 00:20 6,9 °C 84 % 1021,6 hPa 0,0 mm 0,0 km/h (0 Bft) S 179 ° 0 min 0,000 mm 0,0 UV-I 0 W/m² 4,4 °C 6,9 °C 0,0 km/h (0 Bft)
11.10.2019 00:21 6,8 °C 84 % 1021,6 hPa 0,0 mm 0,0 km/h (0 Bft) S 179 ° 0 min 0,000 mm 0,0 UV-I 0 W/m² 4,3 °C 6,8 °C 0,0 km/h (0 Bft)
11.10.2019 00:22 6,6 °C 84 % 1021,7 hPa 0,0 mm 0,0 km/h (0 Bft) S 179 ° 0 min 0,000 mm 0,0 UV-I 0 W/m² 4,1 °C 6,6 °C 0,0 km/h (0 Bft)
11.10.2019 00:23 6,3 °C 84 % 1021,7 hPa 0,0 mm 0,0 km/h (0 Bft) S 179 ° 0 min 0,000 mm 0,0 UV-I 0 W/m² 3,8 °C 6,3 °C 0,0 km/h (0 Bft)
11.10.2019 00:24 6,1 °C 84 % 1021,6 hPa 0,0 mm 0,0 km/h (0 Bft) S 179 ° 0 min 0,000 mm 0,0 UV-I 0 W/m² 3,6 °C 6,1 °C 0,0 km/h (0 Bft)
11.10.2019 00:25 5,8 °C 85 % 1021,7 hPa 0,0 mm 0,0 km/h (0 Bft) S 179 ° 0 min 0,000 mm 0,0 UV-I 0 W/m² 3,5 °C 5,8 °C 0,0 km/h (0 Bft)
11.10.2019 00:26 5,6 °C 86 % 1021,7 hPa 0,0 mm 0,0 km/h (0 Bft) S 179 ° 0 min 0,000 mm 0,0 UV-I 0 W/m² 3,4 °C 5,6 °C 0,0 km/h (0 Bft)
11.10.2019 00:27 5,3 °C 86 % 1021,7 hPa 0,0 mm 0,0 km/h (0 Bft) S 179 ° 0 min 0,000 mm 0,0 UV-I 0 W/m² 3,2 °C 5,3 °C 0,0 km/h (0 Bft)
11.10.2019 00:28 5,2 °C 87 % 1021,7 hPa 0,0 mm 0,0 km/h (0 Bft) S 179 ° 0 min 0,000 mm 0,0 UV-I 0 W/m² 3,2 °C 5,2 °C 0,0 km/h (0 Bft)
11.10.2019 00:29 5,1 °C 88 % 1021,7 hPa 0,0 mm 0,0 km/h (0 Bft) S 179 ° 0 min 0,000 mm 0,0 UV-I 0 W/m² 3,3 °C 5,1 °C 0,0 km/h (0 Bft)
11.10.2019 00:30 5,0 °C 88 % 1021,7 hPa 0,0 mm 0,0 km/h (0 Bft) S 179 ° 0 min 0,000 mm 0,0 UV-I 0 W/m² 3,2 °C 5,0 °C 0,0 km/h (0 Bft)
11.10.2019 00:31 4,9 °C 89 % 1021,6 hPa 0,0 mm 0,0 km/h (0 Bft) S 179 ° 0 min 0,000 mm 0,0 UV-I 0 W/m² 3,2 °C 4,9 °C 0,0 km/h (0 Bft)
11.10.2019 00:32 4,8 °C 90 % 1021,7 hPa 0,0 mm 0,0 km/h (0 Bft) S 179 ° 0 min 0,000 mm 0,0 UV-I 0 W/m² 3,3 °C 4,8 °C 0,0 km/h (0 Bft)
11.10.2019 00:33 4,8 °C 90 % 1021,7 hPa 0,0 mm 0,0 km/h (0 Bft) S 179 ° 0 min 0,000 mm 0,0 UV-I 0 W/m² 3,3 °C 4,8 °C 0,0 km/h (0 Bft)
11.10.2019 00:34 4,7 °C 90 % 1021,6 hPa 0,0 mm 0,0 km/h (0 Bft) S 179 ° 0 min 0,000 mm 0,0 UV-I 0 W/m² 3,2 °C 4,7 °C 0,0 km/h (0 Bft)
11.10.2019 00:35 4,7 °C 90 % 1021,6 hPa 0,0 mm 0,0 km/h (0 Bft) S 179 ° 0 min 0,000 mm 0,0 UV-I 0 W/m² 3,2 °C 4,7 °C 0,0 km/h (0 Bft)
11.10.2019 00:36 4,6 °C 90 % 1021,6 hPa 0,0 mm 0,0 km/h (0 Bft) S 179 ° 0 min 0,000 mm 0,0 UV-I 0 W/m² 3,1 °C 4,6 °C 0,0 km/h (0 Bft)
11.10.2019 00:37 4,6 °C 91 % 1021,6 hPa 0,0 mm 0,0 km/h (0 Bft) S 179 ° 0 min 0,000 mm 0,0 UV-I 0 W/m² 3,3 °C 4,6 °C 0,0 km/h (0 Bft)
11.10.2019 00:38 4,6 °C 91 % 1021,6 hPa 0,0 mm 0,0 km/h (0 Bft) S 179 ° 0 min 0,000 mm 0,0 UV-I 0 W/m² 3,3 °C 4,6 °C 0,0 km/h (0 Bft)
11.10.2019 00:39 4,6 °C 91 % 1021,6 hPa 0,0 mm 0,0 km/h (0 Bft) S 179 ° 0 min 0,000 mm 0,0 UV-I 0 W/m² 3,3 °C 4,6 °C 0,0 km/h (0 Bft)
11.10.2019 00:40 4,6 °C 91 % 1021,6 hPa 0,0 mm 0,0 km/h (0 Bft) S 179 ° 0 min 0,000 mm 0,0 UV-I 0 W/m² 3,3 °C 4,6 °C 0,0 km/h (0 Bft)
11.10.2019 00:41 4,5 °C 91 % 1021,6 hPa 0,0 mm 0,0 km/h (0 Bft) S 179 ° 0 min 0,000 mm 0,0 UV-I 0 W/m² 3,2 °C 4,5 °C 0,0 km/h (0 Bft)
11.10.2019 00:42 4,5 °C 91 % 1021,6 hPa 0,0 mm 0,0 km/h (0 Bft) S 179 ° 0 min 0,000 mm 0,0 UV-I 0 W/m² 3,2 °C 4,5 °C 0,0 km/h (0 Bft)
11.10.2019 00:43 4,4 °C 91 % 1021,6 hPa 0,0 mm 0,0 km/h (0 Bft) S 179 ° 0 min 0,000 mm 0,0 UV-I 0 W/m² 3,1 °C 4,4 °C 0,0 km/h (0 Bft)
11.10.2019 00:44 4,4 °C 91 % 1021,6 hPa 0,0 mm 0,0 km/h (0 Bft) S 179 ° 0 min 0,000 mm 0,0 UV-I 0 W/m² 3,1 °C 4,4 °C 0,0 km/h (0 Bft)
11.10.2019 00:45 4,4 °C 92 % 1021,6 hPa 0,0 mm 0,0 km/h (0 Bft) S 179 ° 0 min 0,000 mm 0,0 UV-I 0 W/m² 3,2 °C 4,4 °C 0,0 km/h (0 Bft)
11.10.2019 00:46 4,4 °C 92 % 1021,6 hPa 0,0 mm 0,0 km/h (0 Bft) S 179 ° 0 min 0,000 mm 0,0 UV-I 0 W/m² 3,2 °C 4,4 °C 0,0 km/h (0 Bft)
11.10.2019 00:47 4,3 °C 91 % 1021,6 hPa 0,0 mm 0,0 km/h (0 Bft) S 179 ° 0 min 0,000 mm 0,0 UV-I 0 W/m² 3,0 °C 4,3 °C 0,0 km/h (0 Bft)
11.10.2019 00:48 4,3 °C 92 % 1021,6 hPa 0,0 mm 0,0 km/h (0 Bft) S 179 ° 0 min 0,000 mm 0,0 UV-I 0 W/m² 3,1 °C 4,3 °C 0,0 km/h (0 Bft)
11.10.2019 00:49 4,3 °C 92 % 1021,6 hPa 0,0 mm 0,0 km/h (0 Bft) S 179 ° 0 min 0,000 mm 0,0 UV-I 0 W/m² 3,1 °C 4,3 °C 0,0 km/h (0 Bft)
11.10.2019 00:50 4,3 °C 92 % 1021,5 hPa 0,0 mm 0,0 km/h (0 Bft) S 179 ° 0 min 0,000 mm 0,0 UV-I 0 W/m² 3,1 °C 4,3 °C 0,0 km/h (0 Bft)
11.10.2019 00:51 4,3 °C 92 % 1021,6 hPa 0,0 mm 0,0 km/h (0 Bft) S 179 ° 0 min 0,000 mm 0,0 UV-I 0 W/m² 3,1 °C 4,3 °C 0,0 km/h (0 Bft)
11.10.2019 00:52 4,4 °C 92 % 1021,5 hPa 0,0 mm 0,0 km/h (0 Bft) S 179 ° 0 min 0,000 mm 0,0 UV-I 0 W/m² 3,2 °C 4,4 °C 0,0 km/h (0 Bft)
11.10.2019 00:53 4,4 °C 92 % 1021,5 hPa 0,0 mm 0,0 km/h (0 Bft) S 179 ° 0 min 0,000 mm 0,0 UV-I 0 W/m² 3,2 °C 4,4 °C 0,0 km/h (0 Bft)
11.10.2019 00:54 4,5 °C 92 % 1021,4 hPa 0,0 mm 0,0 km/h (0 Bft) S 179 ° 0 min 0,000 mm 0,0 UV-I 0 W/m² 3,3 °C 4,5 °C 0,0 km/h (0 Bft)
11.10.2019 00:55 4,5 °C 92 % 1021,4 hPa 0,0 mm 0,0 km/h (0 Bft) S 179 ° 0 min 0,000 mm 0,0 UV-I 0 W/m² 3,3 °C 4,5 °C 0,0 km/h (0 Bft)
11.10.2019 00:56 4,4 °C 92 % 1021,4 hPa 0,0 mm 0,0 km/h (0 Bft) S 179 ° 0 min 0,000 mm 0,0 UV-I 0 W/m² 3,2 °C 4,4 °C 0,0 km/h (0 Bft)
11.10.2019 00:57 4,4 °C 92 % 1021,4 hPa 0,0 mm 0,0 km/h (0 Bft) S 179 ° 0 min 0,000 mm 0,0 UV-I 0 W/m² 3,2 °C 4,4 °C 0,0 km/h (0 Bft)
11.10.2019 00:58 4,3 °C 92 % 1021,4 hPa 0,0 mm 0,0 km/h (0 Bft) S 179 ° 0 min 0,000 mm 0,0 UV-I 0 W/m² 3,1 °C 4,3 °C 0,0 km/h (0 Bft)
11.10.2019 00:59 4,3 °C 92 % 1021,3 hPa 0,0 mm 0,0 km/h (0 Bft) S 179 ° 0 min 0,000 mm 0,0 UV-I 0 W/m² 3,1 °C 4,3 °C 0,0 km/h (0 Bft)
11.10.2019 01:00 4,2 °C 92 % 1021,3 hPa 0,0 mm 0,0 km/h (0 Bft) S 179 ° 0 min 0,000 mm 0,0 UV-I 0 W/m² 3,0 °C 4,2 °C 0,0 km/h (0 Bft)
11.10.2019 01:01 4,2 °C 92 % 1021,3 hPa 0,0 mm 0,0 km/h (0 Bft) S 179 ° 0 min 0,000 mm 0,0 UV-I 0 W/m² 3,0 °C 4,2 °C 0,0 km/h (0 Bft)
11.10.2019 01:02 4,3 °C 92 % 1021,3 hPa 0,0 mm 0,0 km/h (0 Bft) S 179 ° 0 min 0,000 mm 0,0 UV-I 0 W/m² 3,1 °C 4,3 °C 0,0 km/h (0 Bft)
11.10.2019 01:03 4,4 °C 93 % 1021,3 hPa 0,0 mm 0,0 km/h (0 Bft) S 179 ° 0 min 0,000 mm 0,0 UV-I 0 W/m² 3,4 °C 4,4 °C 0,0 km/h (0 Bft)
11.10.2019 01:04 4,6 °C 93 % 1021,3 hPa 0,0 mm 0,0 km/h (0 Bft) S 179 ° 0 min 0,000 mm 0,0 UV-I 0 W/m² 3,6 °C 4,6 °C 0,0 km/h (0 Bft)
11.10.2019 01:05 4,6 °C 93 % 1021,3 hPa 0,0 mm 0,0 km/h (0 Bft) S 179 ° 0 min 0,000 mm 0,0 UV-I 0 W/m² 3,6 °C 4,6 °C 0,0 km/h (0 Bft)
11.10.2019 01:06 4,6 °C 93 % 1021,3 hPa 0,0 mm 0,0 km/h (0 Bft) S 179 ° 0 min 0,000 mm 0,0 UV-I 0 W/m² 3,6 °C 4,6 °C 0,0 km/h (0 Bft)
11.10.2019 01:07 4,5 °C 92 % 1021,3 hPa 0,0 mm 0,0 km/h (0 Bft) S 179 ° 0 min 0,000 mm 0,0 UV-I 0 W/m² 3,3 °C 4,5 °C 0,0 km/h (0 Bft)
11.10.2019 01:08 4,3 °C 92 % 1021,3 hPa 0,0 mm 0,0 km/h (0 Bft) S 179 ° 0 min 0,000 mm 0,0 UV-I 0 W/m² 3,1 °C 4,3 °C 0,0 km/h (0 Bft)
11.10.2019 01:09 4,3 °C 92 % 1021,4 hPa 0,0 mm 0,0 km/h (0 Bft) S 179 ° 0 min 0,000 mm 0,0 UV-I 0 W/m² 3,1 °C 4,3 °C 0,0 km/h (0 Bft)
11.10.2019 01:10 4,2 °C 92 % 1021,3 hPa 0,0 mm 0,0 km/h (0 Bft) S 179 ° 0 min 0,000 mm 0,0 UV-I 0 W/m² 3,0 °C 4,2 °C 0,0 km/h (0 Bft)
11.10.2019 01:11 4,1 °C 92 % 1021,4 hPa 0,0 mm 0,0 km/h (0 Bft) S 179 ° 0 min 0,000 mm 0,0 UV-I 0 W/m² 2,9 °C 4,1 °C 0,0 km/h (0 Bft)
11.10.2019 01:12 4,0 °C 92 % 1021,4 hPa 0,0 mm 0,0 km/h (0 Bft) S 179 ° 0 min 0,000 mm 0,0 UV-I 0 W/m² 2,8 °C 4,0 °C 0,0 km/h (0 Bft)
11.10.2019 01:13 4,0 °C 92 % 1021,4 hPa 0,0 mm 0,0 km/h (0 Bft) S 179 ° 0 min 0,000 mm 0,0 UV-I 0 W/m² 2,8 °C 4,0 °C 0,0 km/h (0 Bft)
11.10.2019 01:14 3,9 °C 92 % 1021,4 hPa 0,0 mm 0,0 km/h (0 Bft) S 179 ° 0 min 0,000 mm 0,0 UV-I 0 W/m² 2,7 °C 3,9 °C 0,0 km/h (0 Bft)
11.10.2019 01:15 4,0 °C 92 % 1021,4 hPa 0,0 mm 0,0 km/h (0 Bft) S 179 ° 0 min 0,000 mm 0,0 UV-I 0 W/m² 2,8 °C 4,0 °C 0,0 km/h (0 Bft)
11.10.2019 01:16 3,9 °C 92 % 1021,4 hPa 0,0 mm 0,0 km/h (0 Bft) S 179 ° 0 min 0,000 mm 0,0 UV-I 0 W/m² 2,7 °C 3,9 °C 0,0 km/h (0 Bft)
11.10.2019 01:17 3,9 °C 92 % 1021,4 hPa 0,0 mm 0,0 km/h (0 Bft) S 179 ° 0 min 0,000 mm 0,0 UV-I 0 W/m² 2,7 °C 3,9 °C 0,0 km/h (0 Bft)
11.10.2019 01:18 3,8 °C 92 % 1021,5 hPa 0,0 mm 0,0 km/h (0 Bft) S 179 ° 0 min 0,000 mm 0,0 UV-I 0 W/m² 2,6 °C 3,8 °C 0,0 km/h (0 Bft)
11.10.2019 01:19 3,8 °C 92 % 1021,5 hPa 0,0 mm 0,0 km/h (0 Bft) S 179 ° 0 min 0,000 mm 0,0 UV-I 0 W/m² 2,6 °C 3,8 °C 0,0 km/h (0 Bft)
11.10.2019 01:20 3,7 °C 92 % 1021,5 hPa 0,0 mm 0,0 km/h (0 Bft) S 179 ° 0 min 0,000 mm 0,0 UV-I 0 W/m² 2,5 °C 3,7 °C 0,0 km/h (0 Bft)
11.10.2019 01:21 3,7 °C 92 % 1021,5 hPa 0,0 mm 0,3 km/h (0 Bft) S 179 ° 0 min 0,000 mm 0,0 UV-I 0 W/m² 2,5 °C 3,7 °C 3,2 km/h (1 Bft)
11.10.2019 01:22 3,7 °C 93 % 1021,5 hPa 0,0 mm 0,3 km/h (0 Bft) S 179 ° 0 min 0,000 mm 0,0 UV-I 0 W/m² 2,7 °C 3,7 °C 1,6 km/h (1 Bft)
11.10.2019 01:23 3,8 °C 93 % 1021,5 hPa 0,0 mm 0,0 km/h (0 Bft) S 179 ° 0 min 0,000 mm 0,0 UV-I 0 W/m² 2,8 °C 3,8 °C 0,0 km/h (0 Bft)
11.10.2019 01:24 3,8 °C 93 % 1021,5 hPa 0,0 mm 0,0 km/h (0 Bft) S 179 ° 0 min 0,000 mm 0,0 UV-I 0 W/m² 2,8 °C 3,8 °C 0,0 km/h (0 Bft)
11.10.2019 01:25 3,8 °C 93 % 1021,5 hPa 0,0 mm 0,0 km/h (0 Bft) S 179 ° 0 min 0,000 mm 0,0 UV-I 0 W/m² 2,8 °C 3,8 °C 0,0 km/h (0 Bft)
11.10.2019 01:26 3,9 °C 93 % 1021,6 hPa 0,0 mm 0,0 km/h (0 Bft) S 179 ° 0 min 0,000 mm 0,0 UV-I 0 W/m² 2,9 °C 3,9 °C 0,0 km/h (0 Bft)
11.10.2019 01:27 4,0 °C 93 % 1021,6 hPa 0,0 mm 0,0 km/h (0 Bft) S 179 ° 0 min 0,000 mm 0,0 UV-I 0 W/m² 3,0 °C 4,0 °C 0,0 km/h (0 Bft)
11.10.2019 01:28 4,1 °C 93 % 1021,5 hPa 0,0 mm 0,0 km/h (0 Bft) S 179 ° 0 min 0,000 mm 0,0 UV-I 0 W/m² 3,1 °C 4,1 °C 0,0 km/h (0 Bft)
11.10.2019 01:29 4,2 °C 94 % 1021,5 hPa 0,0 mm 0,0 km/h (0 Bft) S 179 ° 0 min 0,000 mm 0,0 UV-I 0 W/m² 3,3 °C 4,2 °C 0,0 km/h (0 Bft)
11.10.2019 01:30 4,3 °C 93 % 1021,5 hPa 0,0 mm 0,0 km/h (0 Bft) S 179 ° 0 min 0,000 mm 0,0 UV-I 0 W/m² 3,3 °C 4,3 °C 0,0 km/h (0 Bft)
11.10.2019 01:31 4,2 °C 93 % 1021,5 hPa 0,0 mm 0,0 km/h (0 Bft) S 179 ° 0 min 0,000 mm 0,0 UV-I 0 W/m² 3,2 °C 4,2 °C 0,0 km/h (0 Bft)
11.10.2019 01:32 4,1 °C 93 % 1021,6 hPa 0,0 mm 0,0 km/h (0 Bft) S 179 ° 0 min 0,000 mm 0,0 UV-I 0 W/m² 3,1 °C 4,1 °C 0,0 km/h (0 Bft)
11.10.2019 01:33 4,1 °C 93 % 1021,6 hPa 0,0 mm 0,0 km/h (0 Bft) S 179 ° 0 min 0,000 mm 0,0 UV-I 0 W/m² 3,1 °C 4,1 °C 0,0 km/h (0 Bft)
11.10.2019 01:34 3,9 °C 93 % 1021,6 hPa 0,0 mm 0,0 km/h (0 Bft) S 179 ° 0 min 0,000 mm 0,0 UV-I 0 W/m² 2,9 °C 3,9 °C 0,0 km/h (0 Bft)
11.10.2019 01:35 3,9 °C 93 % 1021,6 hPa 0,0 mm 0,0 km/h (0 Bft) S 179 ° 0 min 0,000 mm 0,0 UV-I 0 W/m² 2,9 °C 3,9 °C 0,0 km/h (0 Bft)
11.10.2019 01:36 3,9 °C 93 % 1021,7 hPa 0,0 mm 0,0 km/h (0 Bft) S 179 ° 0 min 0,000 mm 0,0 UV-I 0 W/m² 2,9 °C 3,9 °C 0,0 km/h (0 Bft)
11.10.2019 01:37 4,0 °C 93 % 1021,7 hPa 0,0 mm 0,0 km/h (0 Bft) S 179 ° 0 min 0,000 mm 0,0 UV-I 0 W/m² 3,0 °C 4,0 °C 0,0 km/h (0 Bft)
11.10.2019 01:38 4,0 °C 93 % 1021,7 hPa 0,0 mm 0,0 km/h (0 Bft) S 179 ° 0 min 0,000 mm 0,0 UV-I 0 W/m² 3,0 °C 4,0 °C 0,0 km/h (0 Bft)
11.10.2019 01:39 4,1 °C 93 % 1021,6 hPa 0,0 mm 0,0 km/h (0 Bft) S 179 ° 0 min 0,000 mm 0,0 UV-I 0 W/m² 3,1 °C 4,1 °C 0,0 km/h (0 Bft)
11.10.2019 01:40 4,3 °C 94 % 1021,6 hPa 0,0 mm 0,0 km/h (0 Bft) S 179 ° 0 min 0,000 mm 0,0 UV-I 0 W/m² 3,4 °C 4,3 °C 0,0 km/h (0 Bft)
11.10.2019 01:41 4,4 °C 94 % 1021,7 hPa 0,0 mm 0,0 km/h (0 Bft) S 179 ° 0 min 0,000 mm 0,0 UV-I 0 W/m² 3,5 °C 4,4 °C 0,0 km/h (0 Bft)
11.10.2019 01:42 4,5 °C 94 % 1021,7 hPa 0,2 mm 0,0 km/h (0 Bft) S 180 ° 0 min 0,000 mm 0,0 UV-I 0 W/m² 3,6 °C 4,5 °C 0,0 km/h (0 Bft)
11.10.2019 01:43 4,4 °C 93 % 1021,7 hPa 0,0 mm 0,0 km/h (0 Bft) S 180 ° 0 min 0,000 mm 0,0 UV-I 0 W/m² 3,4 °C 4,4 °C 0,0 km/h (0 Bft)
11.10.2019 01:44 4,4 °C 93 % 1021,7 hPa 0,0 mm 0,0 km/h (0 Bft) S 180 ° 0 min 0,000 mm 0,0 UV-I 0 W/m² 3,4 °C 4,4 °C 0,0 km/h (0 Bft)
11.10.2019 01:45 4,3 °C 93 % 1021,8 hPa 0,0 mm 0,0 km/h (0 Bft) S 180 ° 0 min 0,000 mm 0,0 UV-I 0 W/m² 3,3 °C 4,3 °C 0,0 km/h (0 Bft)
11.10.2019 01:46 4,3 °C 93 % 1021,8 hPa 0,0 mm 0,0 km/h (0 Bft) S 180 ° 0 min 0,000 mm 0,0 UV-I 0 W/m² 3,3 °C 4,3 °C 0,0 km/h (0 Bft)
11.10.2019 01:47 4,3 °C 93 % 1021,8 hPa 0,0 mm 0,0 km/h (0 Bft) S 180 ° 0 min 0,000 mm 0,0 UV-I 0 W/m² 3,3 °C 4,3 °C 0,0 km/h (0 Bft)
11.10.2019 01:48 4,2 °C 93 % 1021,8 hPa 0,0 mm 0,0 km/h (0 Bft) S 180 ° 0 min 0,000 mm 0,0 UV-I 0 W/m² 3,2 °C 4,2 °C 0,0 km/h (0 Bft)
11.10.2019 01:49 4,2 °C 93 % 1021,8 hPa 0,0 mm 0,0 km/h (0 Bft) S 180 ° 0 min 0,000 mm 0,0 UV-I 0 W/m² 3,2 °C 4,2 °C 0,0 km/h (0 Bft)
11.10.2019 01:50 4,2 °C 93 % 1021,8 hPa 0,0 mm 0,0 km/h (0 Bft) S 180 ° 0 min 0,000 mm 0,0 UV-I 0 W/m² 3,2 °C 4,2 °C 0,0 km/h (0 Bft)
11.10.2019 01:51 4,2 °C 93 % 1021,9 hPa 0,0 mm 0,0 km/h (0 Bft) S 180 ° 0 min 0,000 mm 0,0 UV-I 0 W/m² 3,2 °C 4,2 °C 0,0 km/h (0 Bft)
11.10.2019 01:52 4,3 °C 93 % 1021,9 hPa 0,0 mm 0,0 km/h (0 Bft) S 180 ° 0 min 0,000 mm 0,0 UV-I 0 W/m² 3,3 °C 4,3 °C 0,0 km/h (0 Bft)
11.10.2019 01:53 4,3 °C 93 % 1021,9 hPa 0,0 mm 0,0 km/h (0 Bft) S 180 ° 0 min 0,000 mm 0,0 UV-I 0 W/m² 3,3 °C 4,3 °C 0,0 km/h (0 Bft)
11.10.2019 01:54 4,3 °C 93 % 1022,0 hPa 0,0 mm 0,0 km/h (0 Bft) S 180 ° 0 min 0,000 mm 0,0 UV-I 0 W/m² 3,3 °C 4,3 °C 0,0 km/h (0 Bft)
11.10.2019 01:55 4,3 °C 93 % 1021,9 hPa 0,0 mm 0,0 km/h (0 Bft) S 180 ° 0 min 0,000 mm 0,0 UV-I 0 W/m² 3,3 °C 4,3 °C 0,0 km/h (0 Bft)
11.10.2019 01:56 4,3 °C 93 % 1021,9 hPa 0,0 mm 0,0 km/h (0 Bft) S 180 ° 0 min 0,000 mm 0,0 UV-I 0 W/m² 3,3 °C 4,3 °C 0,0 km/h (0 Bft)
11.10.2019 01:57 4,2 °C 93 % 1021,9 hPa 0,0 mm 0,0 km/h (0 Bft) S 179 ° 0 min 0,000 mm 0,0 UV-I 0 W/m² 3,2 °C 4,2 °C 0,0 km/h (0 Bft)
11.10.2019 01:58 4,2 °C 93 % 1022,0 hPa 0,0 mm 0,0 km/h (0 Bft) S 179 ° 0 min 0,000 mm 0,0 UV-I 0 W/m² 3,2 °C 4,2 °C 0,0 km/h (0 Bft)
11.10.2019 01:59 4,2 °C 93 % 1022,0 hPa 0,0 mm 0,0 km/h (0 Bft) S 179 ° 0 min 0,000 mm 0,0 UV-I 0 W/m² 3,2 °C 4,2 °C 0,0 km/h (0 Bft)
11.10.2019 02:00 4,2 °C 93 % 1022,1 hPa 0,0 mm 0,0 km/h (0 Bft) S 179 ° 0 min 0,000 mm 0,0 UV-I 0 W/m² 3,2 °C 4,2 °C 0,0 km/h (0 Bft)
11.10.2019 02:01 4,1 °C 93 % 1022,0 hPa 0,0 mm 0,0 km/h (0 Bft) S 179 ° 0 min 0,000 mm 0,0 UV-I 0 W/m² 3,1 °C 4,1 °C 0,0 km/h (0 Bft)
11.10.2019 02:02 4,1 °C 93 % 1022,0 hPa 0,0 mm 0,0 km/h (0 Bft) S 179 ° 0 min 0,000 mm 0,0 UV-I 0 W/m² 3,1 °C 4,1 °C 0,0 km/h (0 Bft)
11.10.2019 02:03 4,1 °C 93 % 1022,2 hPa 0,0 mm 0,0 km/h (0 Bft) S 179 ° 0 min 0,000 mm 0,0 UV-I 0 W/m² 3,1 °C 4,1 °C 0,0 km/h (0 Bft)
11.10.2019 02:04 4,1 °C 93 % 1022,2 hPa 0,0 mm 0,0 km/h (0 Bft) S 179 ° 0 min 0,000 mm 0,0 UV-I 0 W/m² 3,1 °C 4,1 °C 0,0 km/h (0 Bft)
11.10.2019 02:05 4,1 °C 93 % 1022,2 hPa 0,0 mm 0,0 km/h (0 Bft) S 179 ° 0 min 0,000 mm 0,0 UV-I 0 W/m² 3,1 °C 4,1 °C 0,0 km/h (0 Bft)
11.10.2019 02:06 4,1 °C 93 % 1022,3 hPa 0,0 mm 0,0 km/h (0 Bft) S 179 ° 0 min 0,000 mm 0,0 UV-I 0 W/m² 3,1 °C 4,1 °C 0,0 km/h (0 Bft)
11.10.2019 02:07 4,1 °C 93 % 1022,3 hPa 0,0 mm 0,0 km/h (0 Bft) S 179 ° 0 min 0,000 mm 0,0 UV-I 0 W/m² 3,1 °C 4,1 °C 0,0 km/h (0 Bft)
11.10.2019 02:08 4,1 °C 93 % 1022,3 hPa 0,0 mm 0,0 km/h (0 Bft) S 179 ° 0 min 0,000 mm 0,0 UV-I 0 W/m² 3,1 °C 4,1 °C 0,0 km/h (0 Bft)
11.10.2019 02:09 4,1 °C 93 % 1022,4 hPa 0,0 mm 0,0 km/h (0 Bft) S 179 ° 0 min 0,000 mm 0,0 UV-I 0 W/m² 3,1 °C 4,1 °C 0,0 km/h (0 Bft)
11.10.2019 02:10 4,1 °C 93 % 1022,4 hPa 0,0 mm 0,0 km/h (0 Bft) S 179 ° 0 min 0,000 mm 0,0 UV-I 0 W/m² 3,1 °C 4,1 °C 0,0 km/h (0 Bft)
11.10.2019 02:11 4,1 °C 93 % 1022,4 hPa 0,0 mm 0,0 km/h (0 Bft) S 179 ° 0 min 0,000 mm 0,0 UV-I 0 W/m² 3,1 °C 4,1 °C 0,0 km/h (0 Bft)
11.10.2019 02:12 4,1 °C 93 % 1022,4 hPa 0,0 mm 0,0 km/h (0 Bft) S 179 ° 0 min 0,000 mm 0,0 UV-I 0 W/m² 3,1 °C 4,1 °C 0,0 km/h (0 Bft)
11.10.2019 02:13 4,0 °C 93 % 1022,5 hPa 0,0 mm 0,0 km/h (0 Bft) S 179 ° 0 min 0,000 mm 0,0 UV-I 0 W/m² 3,0 °C 4,0 °C 0,0 km/h (0 Bft)
11.10.2019 02:14 4,0 °C 93 % 1022,5 hPa 0,0 mm 0,0 km/h (0 Bft) S 179 ° 0 min 0,000 mm 0,0 UV-I 0 W/m² 3,0 °C 4,0 °C 0,0 km/h (0 Bft)
11.10.2019 02:15 4,0 °C 93 % 1022,5 hPa 0,0 mm 0,0 km/h (0 Bft) S 179 ° 0 min 0,000 mm 0,0 UV-I 0 W/m² 3,0 °C 4,0 °C 0,0 km/h (0 Bft)
11.10.2019 02:16 3,9 °C 93 % 1022,6 hPa 0,0 mm 0,0 km/h (0 Bft) S 179 ° 0 min 0,000 mm 0,0 UV-I 0 W/m² 2,9 °C 3,9 °C 0,0 km/h (0 Bft)
11.10.2019 02:17 4,0 °C 93 % 1022,5 hPa 0,0 mm 0,0 km/h (0 Bft) S 179 ° 0 min 0,000 mm 0,0 UV-I 0 W/m² 3,0 °C 4,0 °C 0,0 km/h (0 Bft)
11.10.2019 02:18 4,1 °C 93 % 1022,6 hPa 0,0 mm 0,0 km/h (0 Bft) S 179 ° 0 min 0,000 mm 0,0 UV-I 0 W/m² 3,1 °C 4,1 °C 0,0 km/h (0 Bft)
11.10.2019 02:19 4,0 °C 93 % 1022,6 hPa 0,0 mm 0,0 km/h (0 Bft) S 180 ° 0 min 0,000 mm 0,0 UV-I 0 W/m² 3,0 °C 4,0 °C 0,0 km/h (0 Bft)
11.10.2019 02:20 4,0 °C 93 % 1022,6 hPa 0,0 mm 0,0 km/h (0 Bft) S 180 ° 0 min 0,000 mm 0,0 UV-I 0 W/m² 3,0 °C 4,0 °C 0,0 km/h (0 Bft)
11.10.2019 02:21 3,9 °C 93 % 1022,6 hPa 0,0 mm 0,0 km/h (0 Bft) S 180 ° 0 min 0,000 mm 0,0 UV-I 0 W/m² 2,9 °C 3,9 °C 0,0 km/h (0 Bft)
11.10.2019 02:22 3,8 °C 93 % 1022,6 hPa 0,0 mm 0,0 km/h (0 Bft) S 180 ° 0 min 0,000 mm 0,0 UV-I 0 W/m² 2,8 °C 3,8 °C 0,0 km/h (0 Bft)
11.10.2019 02:23 3,9 °C 93 % 1022,6 hPa 0,0 mm 0,0 km/h (0 Bft) S 180 ° 0 min 0,000 mm 0,0 UV-I 0 W/m² 2,9 °C 3,9 °C 0,0 km/h (0 Bft)
11.10.2019 02:24 3,9 °C 93 % 1022,6 hPa 0,0 mm 0,0 km/h (0 Bft) S 180 ° 0 min 0,000 mm 0,0 UV-I 0 W/m² 2,9 °C 3,9 °C 0,0 km/h (0 Bft)
11.10.2019 02:25 3,9 °C 93 % 1022,5 hPa 0,0 mm 0,0 km/h (0 Bft) S 180 ° 0 min 0,000 mm 0,0 UV-I 0 W/m² 2,9 °C 3,9 °C 0,0 km/h (0 Bft)
11.10.2019 02:26 3,9 °C 93 % 1022,5 hPa 0,0 mm 0,0 km/h (0 Bft) W-SW 250 ° 0 min 0,000 mm 0,0 UV-I 0 W/m² 2,9 °C 3,9 °C 0,0 km/h (0 Bft)
11.10.2019 02:27 3,9 °C 93 % 1022,5 hPa 0,0 mm 0,0 km/h (0 Bft) W-SW 250 ° 0 min 0,000 mm 0,0 UV-I 0 W/m² 2,9 °C 3,9 °C 0,0 km/h (0 Bft)
11.10.2019 02:28 3,9 °C 94 % 1022,5 hPa 0,0 mm 0,0 km/h (0 Bft) W-SW 250 ° 0 min 0,000 mm 0,0 UV-I 0 W/m² 3,0 °C 3,9 °C 0,0 km/h (0 Bft)
11.10.2019 02:29 4,0 °C 93 % 1022,5 hPa 0,0 mm 0,0 km/h (0 Bft) W-SW 250 ° 0 min 0,000 mm 0,0 UV-I 0 W/m² 3,0 °C 4,0 °C 0,0 km/h (0 Bft)
11.10.2019 02:30 4,1 °C 93 % 1022,5 hPa 0,0 mm 0,0 km/h (0 Bft) W-SW 250 ° 0 min 0,000 mm 0,0 UV-I 0 W/m² 3,1 °C 4,1 °C 0,0 km/h (0 Bft)
11.10.2019 02:31 4,1 °C 94 % 1022,5 hPa 0,0 mm 0,0 km/h (0 Bft) SW 221 ° 0 min 0,000 mm 0,0 UV-I 0 W/m² 3,2 °C 4,1 °C 0,0 km/h (0 Bft)
11.10.2019 02:32 4,2 °C 94 % 1022,5 hPa 0,0 mm 0,0 km/h (0 Bft) SW 221 ° 0 min 0,000 mm 0,0 UV-I 0 W/m² 3,3 °C 4,2 °C 0,0 km/h (0 Bft)
11.10.2019 02:33 4,2 °C 94 % 1022,5 hPa 0,0 mm 0,0 km/h (0 Bft) SW 221 ° 0 min 0,000 mm 0,0 UV-I 0 W/m² 3,3 °C 4,2 °C 0,0 km/h (0 Bft)
11.10.2019 02:34 4,3 °C 94 % 1022,4 hPa 0,0 mm 0,0 km/h (0 Bft) SW 221 ° 0 min 0,000 mm 0,0 UV-I 0 W/m² 3,4 °C 4,3 °C 0,0 km/h (0 Bft)
11.10.2019 02:35 4,3 °C 94 % 1022,4 hPa 0,0 mm 0,0 km/h (0 Bft) SW 221 ° 0 min 0,000 mm 0,0 UV-I 0 W/m² 3,4 °C 4,3 °C 0,0 km/h (0 Bft)
11.10.2019 02:36 4,3 °C 94 % 1022,5 hPa 0,0 mm 0,0 km/h (0 Bft) SW 221 ° 0 min 0,000 mm 0,0 UV-I 0 W/m² 3,4 °C 4,3 °C 0,0 km/h (0 Bft)
11.10.2019 02:37 4,3 °C 94 % 1022,4 hPa 0,0 mm 0,0 km/h (0 Bft) SW 221 ° 0 min 0,000 mm 0,0 UV-I 0 W/m² 3,4 °C 4,3 °C 0,0 km/h (0 Bft)
11.10.2019 02:38 4,3 °C 93 % 1022,4 hPa 0,0 mm 0,0 km/h (0 Bft) SW 221 ° 0 min 0,000 mm 0,0 UV-I 0 W/m² 3,3 °C 4,3 °C 0,0 km/h (0 Bft)
11.10.2019 02:39 4,3 °C 93 % 1022,4 hPa 0,0 mm 0,0 km/h (0 Bft) SW 221 ° 0 min 0,000 mm 0,0 UV-I 0 W/m² 3,3 °C 4,3 °C 0,0 km/h (0 Bft)
11.10.2019 02:40 4,3 °C 94 % 1022,3 hPa 0,0 mm 0,0 km/h (0 Bft) SW 221 ° 0 min 0,000 mm 0,0 UV-I 0 W/m² 3,4 °C 4,3 °C 0,0 km/h (0 Bft)
11.10.2019 02:41 4,4 °C 94 % 1022,4 hPa 0,0 mm 0,0 km/h (0 Bft) SW 221 ° 0 min 0,000 mm 0,0 UV-I 0 W/m² 3,5 °C 4,4 °C 0,0 km/h (0 Bft)
11.10.2019 02:42 4,4 °C 93 % 1022,2 hPa 0,0 mm 0,0 km/h (0 Bft) SW 221 ° 0 min 0,000 mm 0,0 UV-I 0 W/m² 3,4 °C 4,4 °C 0,0 km/h (0 Bft)
11.10.2019 02:43 4,3 °C 93 % 1022,2 hPa 0,0 mm 0,0 km/h (0 Bft) SW 221 ° 0 min 0,000 mm 0,0 UV-I 0 W/m² 3,3 °C 4,3 °C 0,0 km/h (0 Bft)
11.10.2019 02:44 4,3 °C 93 % 1022,2 hPa 0,0 mm 0,0 km/h (0 Bft) SW 221 ° 0 min 0,000 mm 0,0 UV-I 0 W/m² 3,3 °C 4,3 °C 0,0 km/h (0 Bft)
11.10.2019 02:45 4,3 °C 93 % 1022,2 hPa 0,0 mm 0,0 km/h (0 Bft) SW 221 ° 0 min 0,000 mm 0,0 UV-I 0 W/m² 3,3 °C 4,3 °C 0,0 km/h (0 Bft)
11.10.2019 02:46 4,2 °C 93 % 1022,2 hPa 0,0 mm 0,0 km/h (0 Bft) W-SW 242 ° 0 min 0,000 mm 0,0 UV-I 0 W/m² 3,2 °C 4,2 °C 0,0 km/h (0 Bft)
11.10.2019 02:47 4,2 °C 93 % 1022,1 hPa 0,0 mm 0,0 km/h (0 Bft) W-SW 242 ° 0 min 0,000 mm 0,0 UV-I 0 W/m² 3,2 °C 4,2 °C 0,0 km/h (0 Bft)
11.10.2019 02:48 4,2 °C 93 % 1022,1 hPa 0,0 mm 0,0 km/h (0 Bft) W-SW 240 ° 0 min 0,000 mm 0,0 UV-I 0 W/m² 3,2 °C 4,2 °C 0,0 km/h (0 Bft)
11.10.2019 02:49 4,2 °C 93 % 1022,1 hPa 0,0 mm 0,0 km/h (0 Bft) W-SW 240 ° 0 min 0,000 mm 0,0 UV-I 0 W/m² 3,2 °C 4,2 °C 0,0 km/h (0 Bft)
11.10.2019 02:50 4,2 °C 93 % 1022,0 hPa 0,0 mm 0,0 km/h (0 Bft) W-SW 240 ° 0 min 0,000 mm 0,0 UV-I 0 W/m² 3,2 °C 4,2 °C 0,0 km/h (0 Bft)
11.10.2019 02:51 4,3 °C 93 % 1022,0 hPa 0,0 mm 0,0 km/h (0 Bft) W-SW 240 ° 0 min 0,000 mm 0,0 UV-I 0 W/m² 3,3 °C 4,3 °C 0,0 km/h (0 Bft)
11.10.2019 02:52 4,3 °C 93 % 1022,0 hPa 0,0 mm 0,0 km/h (0 Bft) W-SW 240 ° 0 min 0,000 mm 0,0 UV-I 0 W/m² 3,3 °C 4,3 °C 0,0 km/h (0 Bft)
11.10.2019 02:53 4,2 °C 93 % 1022,0 hPa 0,0 mm 0,0 km/h (0 Bft) W-SW 240 ° 0 min 0,000 mm 0,0 UV-I 0 W/m² 3,2 °C 4,2 °C 0,0 km/h (0 Bft)
11.10.2019 02:54 4,3 °C 93 % 1022,0 hPa 0,0 mm 0,0 km/h (0 Bft) W-SW 240 ° 0 min 0,000 mm 0,0 UV-I 0 W/m² 3,3 °C 4,3 °C 0,0 km/h (0 Bft)
11.10.2019 02:55 4,3 °C 93 % 1022,0 hPa 0,0 mm 0,0 km/h (0 Bft) W-SW 240 ° 0 min 0,000 mm 0,0 UV-I 0 W/m² 3,3 °C 4,3 °C 0,0 km/h (0 Bft)
11.10.2019 02:56 4,3 °C 93 % 1022,0 hPa 0,0 mm 0,0 km/h (0 Bft) W-SW 240 ° 0 min 0,000 mm 0,0 UV-I 0 W/m² 3,3 °C 4,3 °C 0,0 km/h (0 Bft)
11.10.2019 02:57 4,3 °C 93 % 1021,9 hPa 0,0 mm 0,0 km/h (0 Bft) W-SW 240 ° 0 min 0,000 mm 0,0 UV-I 0 W/m² 3,3 °C 4,3 °C 0,0 km/h (0 Bft)
11.10.2019 02:58 4,3 °C 93 % 1022,0 hPa 0,0 mm 0,0 km/h (0 Bft) W-SW 240 ° 0 min 0,000 mm 0,0 UV-I 0 W/m² 3,3 °C 4,3 °C 0,0 km/h (0 Bft)
11.10.2019 02:59 4,3 °C 93 % 1022,0 hPa 0,0 mm 0,0 km/h (0 Bft) W-SW 240 ° 0 min 0,000 mm 0,0 UV-I 0 W/m² 3,3 °C 4,3 °C 0,0 km/h (0 Bft)
11.10.2019 03:00 4,3 °C 93 % 1022,0 hPa 0,0 mm 0,0 km/h (0 Bft) W-SW 240 ° 0 min 0,000 mm 0,0 UV-I 0 W/m² 3,3 °C 4,3 °C 0,0 km/h (0 Bft)
11.10.2019 03:01 4,3 °C 93 % 1022,0 hPa 0,0 mm 0,0 km/h (0 Bft) W-SW 240 ° 0 min 0,000 mm 0,0 UV-I 0 W/m² 3,3 °C 4,3 °C 0,0 km/h (0 Bft)
11.10.2019 03:02 4,4 °C 93 % 1022,1 hPa 0,0 mm 0,0 km/h (0 Bft) W-SW 240 ° 0 min 0,000 mm 0,0 UV-I 0 W/m² 3,4 °C 4,4 °C 0,0 km/h (0 Bft)
11.10.2019 03:03 4,4 °C 93 % 1022,1 hPa 0,0 mm 0,0 km/h (0 Bft) W-SW 240 ° 0 min 0,000 mm 0,0 UV-I 0 W/m² 3,4 °C 4,4 °C 0,0 km/h (0 Bft)
11.10.2019 03:04 4,4 °C 93 % 1022,1 hPa 0,0 mm 0,0 km/h (0 Bft) W-SW 240 ° 0 min 0,000 mm 0,0 UV-I 0 W/m² 3,4 °C 4,4 °C 0,0 km/h (0 Bft)
11.10.2019 03:05 4,4 °C 93 % 1022,1 hPa 0,0 mm 0,0 km/h (0 Bft) W-SW 240 ° 0 min 0,000 mm 0,0 UV-I 0 W/m² 3,4 °C 4,4 °C 0,0 km/h (0 Bft)
11.10.2019 03:06 4,4 °C 93 % 1022,2 hPa 0,0 mm 0,0 km/h (0 Bft) W-SW 240 ° 0 min 0,000 mm 0,0 UV-I 0 W/m² 3,4 °C 4,4 °C 0,0 km/h (0 Bft)
11.10.2019 03:07 4,4 °C 93 % 1022,2 hPa 0,0 mm 0,0 km/h (0 Bft) W-SW 240 ° 0 min 0,000 mm 0,0 UV-I 0 W/m² 3,4 °C 4,4 °C 0,0 km/h (0 Bft)
11.10.2019 03:08 4,4 °C 93 % 1022,2 hPa 0,0 mm 0,0 km/h (0 Bft) W-SW 240 ° 0 min 0,000 mm 0,0 UV-I 0 W/m² 3,4 °C 4,4 °C 0,0 km/h (0 Bft)
11.10.2019 03:09 4,3 °C 93 % 1022,2 hPa 0,0 mm 0,0 km/h (0 Bft) W 273 ° 0 min 0,000 mm 0,0 UV-I 0 W/m² 3,3 °C 4,3 °C 0,0 km/h (0 Bft)
11.10.2019 03:10 4,3 °C 93 % 1022,2 hPa 0,0 mm 0,0 km/h (0 Bft) W 273 ° 0 min 0,000 mm 0,0 UV-I 0 W/m² 3,3 °C 4,3 °C 0,0 km/h (0 Bft)
11.10.2019 03:11 4,2 °C 92 % 1022,2 hPa 0,0 mm 0,0 km/h (0 Bft) W 273 ° 0 min 0,000 mm 0,0 UV-I 0 W/m² 3,0 °C 4,2 °C 0,0 km/h (0 Bft)
11.10.2019 03:12 4,1 °C 92 % 1022,2 hPa 0,0 mm 0,0 km/h (0 Bft) W 273 ° 0 min 0,000 mm 0,0 UV-I 0 W/m² 2,9 °C 4,1 °C 0,0 km/h (0 Bft)
11.10.2019 03:13 4,1 °C 93 % 1022,2 hPa 0,0 mm 0,0 km/h (0 Bft) W 273 ° 0 min 0,000 mm 0,0 UV-I 0 W/m² 3,1 °C 4,1 °C 0,0 km/h (0 Bft)
11.10.2019 03:14 4,0 °C 93 % 1022,2 hPa 0,0 mm 0,0 km/h (0 Bft) W 273 ° 0 min 0,000 mm 0,0 UV-I 0 W/m² 3,0 °C 4,0 °C 0,0 km/h (0 Bft)
11.10.2019 03:15 3,9 °C 93 % 1022,2 hPa 0,0 mm 0,0 km/h (0 Bft) W 273 ° 0 min 0,000 mm 0,0 UV-I 0 W/m² 2,9 °C 3,9 °C 0,0 km/h (0 Bft)
11.10.2019 03:16 3,9 °C 92 % 1022,2 hPa 0,0 mm 0,0 km/h (0 Bft) W 273 ° 0 min 0,000 mm 0,0 UV-I 0 W/m² 2,7 °C 3,9 °C 0,0 km/h (0 Bft)
11.10.2019 03:17 3,8 °C 93 % 1022,2 hPa 0,0 mm 0,0 km/h (0 Bft) W 273 ° 0 min 0,000 mm 0,0 UV-I 0 W/m² 2,8 °C 3,8 °C 0,0 km/h (0 Bft)
11.10.2019 03:18 3,9 °C 93 % 1022,1 hPa 0,0 mm 0,0 km/h (0 Bft) W 273 ° 0 min 0,000 mm 0,0 UV-I 0 W/m² 2,9 °C 3,9 °C 0,0 km/h (0 Bft)
11.10.2019 03:19 3,9 °C 93 % 1022,2 hPa 0,0 mm 0,0 km/h (0 Bft) W 273 ° 0 min 0,000 mm 0,0 UV-I 0 W/m² 2,9 °C 3,9 °C 0,0 km/h (0 Bft)
11.10.2019 03:20 3,8 °C 93 % 1022,2 hPa 0,0 mm 0,0 km/h (0 Bft) W 273 ° 0 min 0,000 mm 0,0 UV-I 0 W/m² 2,8 °C 3,8 °C 0,0 km/h (0 Bft)
11.10.2019 03:21 3,8 °C 93 % 1022,2 hPa 0,0 mm 0,0 km/h (0 Bft) W 273 ° 0 min 0,000 mm 0,0 UV-I 0 W/m² 2,8 °C 3,8 °C 0,0 km/h (0 Bft)
11.10.2019 03:22 3,8 °C 93 % 1022,1 hPa 0,0 mm 0,0 km/h (0 Bft) W 273 ° 0 min 0,000 mm 0,0 UV-I 0 W/m² 2,8 °C 3,8 °C 0,0 km/h (0 Bft)
11.10.2019 03:23 3,8 °C 93 % 1022,1 hPa 0,0 mm 0,0 km/h (0 Bft) W 273 ° 0 min 0,000 mm 0,0 UV-I 0 W/m² 2,8 °C 3,8 °C 0,0 km/h (0 Bft)
11.10.2019 03:24 3,8 °C 93 % 1022,1 hPa 0,0 mm 0,0 km/h (0 Bft) W 273 ° 0 min 0,000 mm 0,0 UV-I 0 W/m² 2,8 °C 3,8 °C 0,0 km/h (0 Bft)
11.10.2019 03:25 3,8 °C 93 % 1022,1 hPa 0,0 mm 0,0 km/h (0 Bft) W 273 ° 0 min 0,000 mm 0,0 UV-I 0 W/m² 2,8 °C 3,8 °C 0,0 km/h (0 Bft)
11.10.2019 03:26 3,7 °C 93 % 1022,1 hPa 0,0 mm 0,0 km/h (0 Bft) W 273 ° 0 min 0,000 mm 0,0 UV-I 0 W/m² 2,7 °C 3,7 °C 0,0 km/h (0 Bft)
11.10.2019 03:27 3,7 °C 93 % 1022,1 hPa 0,0 mm 0,0 km/h (0 Bft) W 273 ° 0 min 0,000 mm 0,0 UV-I 0 W/m² 2,7 °C 3,7 °C 0,0 km/h (0 Bft)
11.10.2019 03:28 3,6 °C 93 % 1022,1 hPa 0,0 mm 0,0 km/h (0 Bft) W 273 ° 0 min 0,000 mm 0,0 UV-I 0 W/m² 2,6 °C 3,6 °C 0,0 km/h (0 Bft)
11.10.2019 03:29 3,7 °C 93 % 1022,1 hPa 0,0 mm 0,0 km/h (0 Bft) W 273 ° 0 min 0,000 mm 0,0 UV-I 0 W/m² 2,7 °C 3,7 °C 0,0 km/h (0 Bft)
11.10.2019 03:30 3,6 °C 93 % 1022,1 hPa 0,0 mm 0,0 km/h (0 Bft) W 273 ° 0 min 0,000 mm 0,0 UV-I 0 W/m² 2,6 °C 3,6 °C 0,0 km/h (0 Bft)
11.10.2019 03:31 3,5 °C 93 % 1022,1 hPa 0,0 mm 0,0 km/h (0 Bft) W 273 ° 0 min 0,000 mm 0,0 UV-I 0 W/m² 2,5 °C 3,5 °C 0,0 km/h (0 Bft)
11.10.2019 03:32 3,4 °C 93 % 1022,1 hPa 0,0 mm 0,0 km/h (0 Bft) W 273 ° 0 min 0,000 mm 0,0 UV-I 0 W/m² 2,4 °C 3,4 °C 0,0 km/h (0 Bft)
11.10.2019 03:33 3,4 °C 93 % 1022,1 hPa 0,0 mm 0,0 km/h (0 Bft) W 273 ° 0 min 0,000 mm 0,0 UV-I 0 W/m² 2,4 °C 3,4 °C 0,0 km/h (0 Bft)
11.10.2019 03:34 3,4 °C 93 % 1022,0 hPa 0,0 mm 0,0 km/h (0 Bft) W 273 ° 0 min 0,000 mm 0,0 UV-I 0 W/m² 2,4 °C 3,4 °C 0,0 km/h (0 Bft)
11.10.2019 03:35 3,4 °C 93 % 1022,0 hPa 0,0 mm 0,0 km/h (0 Bft) W 273 ° 0 min 0,000 mm 0,0 UV-I 0 W/m² 2,4 °C 3,4 °C 0,0 km/h (0 Bft)
11.10.2019 03:36 3,3 °C 93 % 1022,0 hPa 0,0 mm 0,0 km/h (0 Bft) W 273 ° 0 min 0,000 mm 0,0 UV-I 0 W/m² 2,3 °C 3,3 °C 0,0 km/h (0 Bft)
11.10.2019 03:37 3,4 °C 93 % 1021,9 hPa 0,0 mm 0,0 km/h (0 Bft) W 273 ° 0 min 0,000 mm 0,0 UV-I 0 W/m² 2,4 °C 3,4 °C 0,0 km/h (0 Bft)
11.10.2019 03:38 3,3 °C 93 % 1021,9 hPa 0,0 mm 0,0 km/h (0 Bft) W 273 ° 0 min 0,000 mm 0,0 UV-I 0 W/m² 2,3 °C 3,3 °C 0,0 km/h (0 Bft)
11.10.2019 03:39 3,3 °C 93 % 1021,9 hPa 0,0 mm 0,0 km/h (0 Bft) W 273 ° 0 min 0,000 mm 0,0 UV-I 0 W/m² 2,3 °C 3,3 °C 0,0 km/h (0 Bft)
11.10.2019 03:40 3,3 °C 93 % 1021,9 hPa 0,0 mm 0,0 km/h (0 Bft) W 273 ° 0 min 0,000 mm 0,0 UV-I 0 W/m² 2,3 °C 3,3 °C 0,0 km/h (0 Bft)
11.10.2019 03:41 3,3 °C 93 % 1021,9 hPa 0,0 mm 0,0 km/h (0 Bft) W 273 ° 0 min 0,000 mm 0,0 UV-I 0 W/m² 2,3 °C 3,3 °C 0,0 km/h (0 Bft)
11.10.2019 03:42 3,3 °C 93 % 1021,9 hPa 0,0 mm 0,0 km/h (0 Bft) W 273 ° 0 min 0,000 mm 0,0 UV-I 0 W/m² 2,3 °C 3,3 °C 0,0 km/h (0 Bft)
11.10.2019 03:43 3,3 °C 93 % 1021,8 hPa 0,0 mm 0,0 km/h (0 Bft) W 273 ° 0 min 0,000 mm 0,0 UV-I 0 W/m² 2,3 °C 3,3 °C 0,0 km/h (0 Bft)
11.10.2019 03:44 3,3 °C 93 % 1021,8 hPa 0,0 mm 0,0 km/h (0 Bft) W 273 ° 0 min 0,000 mm 0,0 UV-I 0 W/m² 2,3 °C 3,3 °C 0,0 km/h (0 Bft)
11.10.2019 03:45 3,3 °C 93 % 1021,9 hPa 0,0 mm 0,0 km/h (0 Bft) W 273 ° 0 min 0,000 mm 0,0 UV-I 0 W/m² 2,3 °C 3,3 °C 0,0 km/h (0 Bft)
11.10.2019 03:46 3,3 °C 93 % 1021,8 hPa 0,0 mm 0,0 km/h (0 Bft) W 273 ° 0 min 0,000 mm 0,0 UV-I 0 W/m² 2,3 °C 3,3 °C 0,0 km/h (0 Bft)
11.10.2019 03:47 3,3 °C 93 % 1021,8 hPa 0,0 mm 0,0 km/h (0 Bft) W 273 ° 0 min 0,000 mm 0,0 UV-I 0 W/m² 2,3 °C 3,3 °C 0,0 km/h (0 Bft)
11.10.2019 03:48 3,3 °C 93 % 1021,8 hPa 0,0 mm 0,0 km/h (0 Bft) W 273 ° 0 min 0,000 mm 0,0 UV-I 0 W/m² 2,3 °C 3,3 °C 0,0 km/h (0 Bft)
11.10.2019 03:49 3,3 °C 93 % 1021,9 hPa 0,0 mm 0,0 km/h (0 Bft) W 273 ° 0 min 0,000 mm 0,0 UV-I 0 W/m² 2,3 °C 3,3 °C 0,0 km/h (0 Bft)
11.10.2019 03:50 3,3 °C 93 % 1021,9 hPa 0,0 mm 0,0 km/h (0 Bft) W 273 ° 0 min 0,000 mm 0,0 UV-I 0 W/m² 2,3 °C 3,3 °C 0,0 km/h (0 Bft)
11.10.2019 03:51 3,2 °C 93 % 1021,9 hPa 0,0 mm 0,0 km/h (0 Bft) W 273 ° 0 min 0,000 mm 0,0 UV-I 0 W/m² 2,2 °C 3,2 °C 0,0 km/h (0 Bft)
11.10.2019 03:52 3,2 °C 93 % 1021,9 hPa 0,0 mm 0,0 km/h (0 Bft) W 273 ° 0 min 0,000 mm 0,0 UV-I 0 W/m² 2,2 °C 3,2 °C 0,0 km/h (0 Bft)
11.10.2019 03:53 3,2 °C 93 % 1021,9 hPa 0,0 mm 0,0 km/h (0 Bft) W 273 ° 0 min 0,000 mm 0,0 UV-I 0 W/m² 2,2 °C 3,2 °C 0,0 km/h (0 Bft)
11.10.2019 03:54 3,2 °C 93 % 1021,9 hPa 0,0 mm 0,0 km/h (0 Bft) W 273 ° 0 min 0,000 mm 0,0 UV-I 0 W/m² 2,2 °C 3,2 °C 0,0 km/h (0 Bft)
11.10.2019 03:55 3,2 °C 93 % 1021,8 hPa 0,0 mm 0,0 km/h (0 Bft) W 273 ° 0 min 0,000 mm 0,0 UV-I 0 W/m² 2,2 °C 3,2 °C 0,0 km/h (0 Bft)
11.10.2019 03:56 3,2 °C 94 % 1021,8 hPa 0,0 mm 0,0 km/h (0 Bft) W 273 ° 0 min 0,000 mm 0,0 UV-I 0 W/m² 2,3 °C 3,2 °C 0,0 km/h (0 Bft)
11.10.2019 03:57 3,2 °C 94 % 1021,8 hPa 0,0 mm 0,0 km/h (0 Bft) W 273 ° 0 min 0,000 mm 0,0 UV-I 0 W/m² 2,3 °C 3,2 °C 0,0 km/h (0 Bft)
11.10.2019 03:58 3,3 °C 94 % 1021,7 hPa 0,0 mm 0,0 km/h (0 Bft) W 273 ° 0 min 0,000 mm 0,0 UV-I 0 W/m² 2,4 °C 3,3 °C 0,0 km/h (0 Bft)
11.10.2019 03:59 3,3 °C 94 % 1021,7 hPa 0,0 mm 0,0 km/h (0 Bft) W 273 ° 0 min 0,000 mm 0,0 UV-I 0 W/m² 2,4 °C 3,3 °C 0,0 km/h (0 Bft)
11.10.2019 04:00 3,2 °C 94 % 1021,7 hPa 0,0 mm 0,0 km/h (0 Bft) W 273 ° 0 min 0,000 mm 0,0 UV-I 0 W/m² 2,3 °C 3,2 °C 0,0 km/h (0 Bft)
11.10.2019 04:01 3,3 °C 94 % 1021,7 hPa 0,0 mm 0,0 km/h (0 Bft) W 273 ° 0 min 0,000 mm 0,0 UV-I 0 W/m² 2,4 °C 3,3 °C 0,0 km/h (0 Bft)
11.10.2019 04:02 3,3 °C 94 % 1021,7 hPa 0,0 mm 0,0 km/h (0 Bft) W 273 ° 0 min 0,000 mm 0,0 UV-I 0 W/m² 2,4 °C 3,3 °C 0,0 km/h (0 Bft)
11.10.2019 04:03 3,3 °C 94 % 1021,6 hPa 0,0 mm 0,0 km/h (0 Bft) W 273 ° 0 min 0,000 mm 0,0 UV-I 0 W/m² 2,4 °C 3,3 °C 0,0 km/h (0 Bft)
11.10.2019 04:04 3,3 °C 94 % 1021,6 hPa 0,0 mm 0,0 km/h (0 Bft) W 273 ° 0 min 0,000 mm 0,0 UV-I 0 W/m² 2,4 °C 3,3 °C 0,0 km/h (0 Bft)
11.10.2019 04:05 3,3 °C 94 % 1021,6 hPa 0,0 mm 0,0 km/h (0 Bft) W 273 ° 0 min 0,000 mm 0,0 UV-I 0 W/m² 2,4 °C 3,3 °C 0,0 km/h (0 Bft)
11.10.2019 04:06 3,4 °C 94 % 1021,5 hPa 0,0 mm 0,0 km/h (0 Bft) W 273 ° 0 min 0,000 mm 0,0 UV-I 0 W/m² 2,5 °C 3,4 °C 0,0 km/h (0 Bft)
11.10.2019 04:07 3,4 °C 94 % 1021,6 hPa 0,0 mm 0,0 km/h (0 Bft) W 273 ° 0 min 0,000 mm 0,0 UV-I 0 W/m² 2,5 °C 3,4 °C 0,0 km/h (0 Bft)
11.10.2019 04:08 3,5 °C 94 % 1021,6 hPa 0,0 mm 0,0 km/h (0 Bft) N 360 ° 0 min 0,000 mm 0,0 UV-I 0 W/m² 2,6 °C 3,5 °C 0,0 km/h (0 Bft)
11.10.2019 04:09 3,6 °C 94 % 1021,6 hPa 0,0 mm 0,0 km/h (0 Bft) N 360 ° 0 min 0,000 mm 0,0 UV-I 0 W/m² 2,7 °C 3,6 °C 0,0 km/h (0 Bft)
11.10.2019 04:10 3,6 °C 94 % 1021,5 hPa 0,0 mm 0,0 km/h (0 Bft) N 360 ° 0 min 0,000 mm 0,0 UV-I 0 W/m² 2,7 °C 3,6 °C 0,0 km/h (0 Bft)
11.10.2019 04:11 3,6 °C 94 % 1021,5 hPa 0,0 mm 0,0 km/h (0 Bft) N 360 ° 0 min 0,000 mm 0,0 UV-I 0 W/m² 2,7 °C 3,6 °C 0,0 km/h (0 Bft)
11.10.2019 04:12 3,7 °C 94 % 1021,5 hPa 0,0 mm 0,0 km/h (0 Bft) N 360 ° 0 min 0,000 mm 0,0 UV-I 0 W/m² 2,8 °C 3,7 °C 0,0 km/h (0 Bft)
11.10.2019 04:13 3,7 °C 94 % 1021,5 hPa 0,0 mm 0,0 km/h (0 Bft) N 360 ° 0 min 0,000 mm 0,0 UV-I 0 W/m² 2,8 °C 3,7 °C 0,0 km/h (0 Bft)
11.10.2019 04:14 3,7 °C 94 % 1021,4 hPa 0,0 mm 0,0 km/h (0 Bft) N 360 ° 0 min 0,000 mm 0,0 UV-I 0 W/m² 2,8 °C 3,7 °C 0,0 km/h (0 Bft)
11.10.2019 04:15 3,7 °C 94 % 1021,5 hPa 0,0 mm 0,0 km/h (0 Bft) N 360 ° 0 min 0,000 mm 0,0 UV-I 0 W/m² 2,8 °C 3,7 °C 0,0 km/h (0 Bft)
11.10.2019 04:16 3,7 °C 94 % 1021,5 hPa 0,0 mm 0,0 km/h (0 Bft) N 360 ° 0 min 0,000 mm 0,0 UV-I 0 W/m² 2,8 °C 3,7 °C 0,0 km/h (0 Bft)
11.10.2019 04:17 3,7 °C 94 % 1021,5 hPa 0,0 mm 0,0 km/h (0 Bft) N 360 ° 0 min 0,000 mm 0,0 UV-I 0 W/m² 2,8 °C 3,7 °C 0,0 km/h (0 Bft)
11.10.2019 04:18 3,7 °C 94 % 1021,5 hPa 0,0 mm 0,0 km/h (0 Bft) N 360 ° 0 min 0,000 mm 0,0 UV-I 0 W/m² 2,8 °C 3,7 °C 0,0 km/h (0 Bft)
11.10.2019 04:19 3,8 °C 94 % 1021,5 hPa 0,0 mm 0,0 km/h (0 Bft) N 360 ° 0 min 0,000 mm 0,0 UV-I 0 W/m² 2,9 °C 3,8 °C 0,0 km/h (0 Bft)
11.10.2019 04:20 3,8 °C 94 % 1021,5 hPa 0,0 mm 0,0 km/h (0 Bft) N 360 ° 0 min 0,000 mm 0,0 UV-I 0 W/m² 2,9 °C 3,8 °C 0,0 km/h (0 Bft)
11.10.2019 04:21 3,8 °C 94 % 1021,5 hPa 0,0 mm 0,0 km/h (0 Bft) N 360 ° 0 min 0,000 mm 0,0 UV-I 0 W/m² 2,9 °C 3,8 °C 0,0 km/h (0 Bft)
11.10.2019 04:22 3,8 °C 94 % 1021,5 hPa 0,0 mm 0,0 km/h (0 Bft) N 360 ° 0 min 0,000 mm 0,0 UV-I 0 W/m² 2,9 °C 3,8 °C 0,0 km/h (0 Bft)
11.10.2019 04:23 3,8 °C 94 % 1021,5 hPa 0,0 mm 0,0 km/h (0 Bft) N 360 ° 0 min 0,000 mm 0,0 UV-I 0 W/m² 2,9 °C 3,8 °C 0,0 km/h (0 Bft)
11.10.2019 04:24 3,7 °C 94 % 1021,4 hPa 0,0 mm 0,0 km/h (0 Bft) N 360 ° 0 min 0,000 mm 0,0 UV-I 0 W/m² 2,8 °C 3,7 °C 0,0 km/h (0 Bft)
11.10.2019 04:25 3,8 °C 94 % 1021,4 hPa 0,0 mm 0,0 km/h (0 Bft) N 360 ° 0 min 0,000 mm 0,0 UV-I 0 W/m² 2,9 °C 3,8 °C 0,0 km/h (0 Bft)
11.10.2019 04:26 3,8 °C 94 % 1021,4 hPa 0,0 mm 0,0 km/h (0 Bft) N 360 ° 0 min 0,000 mm 0,0 UV-I 0 W/m² 2,9 °C 3,8 °C 0,0 km/h (0 Bft)
11.10.2019 04:27 3,8 °C 94 % 1021,4 hPa 0,0 mm 0,0 km/h (0 Bft) N 360 ° 0 min 0,000 mm 0,0 UV-I 0 W/m² 2,9 °C 3,8 °C 0,0 km/h (0 Bft)
11.10.2019 04:28 3,8 °C 94 % 1021,4 hPa 0,0 mm 0,0 km/h (0 Bft) N 360 ° 0 min 0,000 mm 0,0 UV-I 0 W/m² 2,9 °C 3,8 °C 0,0 km/h (0 Bft)
11.10.2019 04:29 3,8 °C 94 % 1021,4 hPa 0,0 mm 0,0 km/h (0 Bft) N 360 ° 0 min 0,000 mm 0,0 UV-I 0 W/m² 2,9 °C 3,8 °C 0,0 km/h (0 Bft)
11.10.2019 04:30 3,8 °C 94 % 1021,4 hPa 0,0 mm 0,0 km/h (0 Bft) N 360 ° 0 min 0,000 mm 0,0 UV-I 0 W/m² 2,9 °C 3,8 °C 0,0 km/h (0 Bft)
11.10.2019 04:31 3,9 °C 94 % 1021,4 hPa 0,0 mm 0,0 km/h (0 Bft) N 360 ° 0 min 0,000 mm 0,0 UV-I 0 W/m² 3,0 °C 3,9 °C 0,0 km/h (0 Bft)
11.10.2019 04:32 3,9 °C 94 % 1021,4 hPa 0,0 mm 0,0 km/h (0 Bft) N 360 ° 0 min 0,000 mm 0,0 UV-I 0 W/m² 3,0 °C 3,9 °C 0,0 km/h (0 Bft)
11.10.2019 04:33 3,9 °C 94 % 1021,4 hPa 0,0 mm 0,0 km/h (0 Bft) N 360 ° 0 min 0,000 mm 0,0 UV-I 0 W/m² 3,0 °C 3,9 °C 0,0 km/h (0 Bft)
11.10.2019 04:34 3,9 °C 94 % 1021,4 hPa 0,0 mm 0,0 km/h (0 Bft) N 360 ° 0 min 0,000 mm 0,0 UV-I 0 W/m² 3,0 °C 3,9 °C 0,0 km/h (0 Bft)
11.10.2019 04:35 4,0 °C 94 % 1021,4 hPa 0,0 mm 0,0 km/h (0 Bft) N 360 ° 0 min 0,000 mm 0,0 UV-I 0 W/m² 3,1 °C 4,0 °C 0,0 km/h (0 Bft)
11.10.2019 04:36 4,0 °C 94 % 1021,5 hPa 0,0 mm 0,0 km/h (0 Bft) N 360 ° 0 min 0,000 mm 0,0 UV-I 0 W/m² 3,1 °C 4,0 °C 0,0 km/h (0 Bft)
11.10.2019 04:37 4,0 °C 94 % 1021,5 hPa 0,0 mm 0,0 km/h (0 Bft) N 360 ° 0 min 0,000 mm 0,0 UV-I 0 W/m² 3,1 °C 4,0 °C 0,0 km/h (0 Bft)
11.10.2019 04:38 4,0 °C 94 % 1021,5 hPa 0,0 mm 0,0 km/h (0 Bft) N 360 ° 0 min 0,000 mm 0,0 UV-I 0 W/m² 3,1 °C 4,0 °C 0,0 km/h (0 Bft)
11.10.2019 04:39 4,0 °C 94 % 1021,5 hPa 0,0 mm 0,0 km/h (0 Bft) N 360 ° 0 min 0,000 mm 0,0 UV-I 0 W/m² 3,1 °C 4,0 °C 0,0 km/h (0 Bft)
11.10.2019 04:40 4,0 °C 94 % 1021,5 hPa 0,0 mm 0,0 km/h (0 Bft) N 360 ° 0 min 0,000 mm 0,0 UV-I 0 W/m² 3,1 °C 4,0 °C 0,0 km/h (0 Bft)
11.10.2019 04:41 4,1 °C 94 % 1021,5 hPa 0,0 mm 0,0 km/h (0 Bft) N 360 ° 0 min 0,000 mm 0,0 UV-I 0 W/m² 3,2 °C 4,1 °C 0,0 km/h (0 Bft)
11.10.2019 04:42 4,1 °C 94 % 1021,5 hPa 0,0 mm 0,0 km/h (0 Bft) N 360 ° 0 min 0,000 mm 0,0 UV-I 0 W/m² 3,2 °C 4,1 °C 0,0 km/h (0 Bft)
11.10.2019 04:43 4,1 °C 94 % 1021,5 hPa 0,0 mm 0,0 km/h (0 Bft) N 360 ° 0 min 0,000 mm 0,0 UV-I 0 W/m² 3,2 °C 4,1 °C 0,0 km/h (0 Bft)
11.10.2019 04:44 4,1 °C 94 % 1021,5 hPa 0,0 mm 0,0 km/h (0 Bft) N 360 ° 0 min 0,000 mm 0,0 UV-I 0 W/m² 3,2 °C 4,1 °C 0,0 km/h (0 Bft)
11.10.2019 04:45 4,1 °C 94 % 1021,5 hPa 0,0 mm 0,0 km/h (0 Bft) N 360 ° 0 min 0,000 mm 0,0 UV-I 0 W/m² 3,2 °C 4,1 °C 0,0 km/h (0 Bft)
11.10.2019 04:46 4,2 °C 94 % 1021,5 hPa 0,0 mm 0,0 km/h (0 Bft) N 360 ° 0 min 0,000 mm 0,0 UV-I 0 W/m² 3,3 °C 4,2 °C 0,0 km/h (0 Bft)
11.10.2019 04:47 4,2 °C 94 % 1021,5 hPa 0,0 mm 0,0 km/h (0 Bft) N 360 ° 0 min 0,000 mm 0,0 UV-I 0 W/m² 3,3 °C 4,2 °C 0,0 km/h (0 Bft)
11.10.2019 04:48 4,2 °C 94 % 1021,5 hPa 0,0 mm 0,0 km/h (0 Bft) N 360 ° 0 min 0,000 mm 0,0 UV-I 0 W/m² 3,3 °C 4,2 °C 0,0 km/h (0 Bft)
11.10.2019 04:49 4,2 °C 93 % 1021,5 hPa 0,0 mm 0,0 km/h (0 Bft) N 360 ° 0 min 0,000 mm 0,0 UV-I 0 W/m² 3,2 °C 4,2 °C 0,0 km/h (0 Bft)
11.10.2019 04:50 4,1 °C 93 % 1021,5 hPa 0,0 mm 0,0 km/h (0 Bft) N 360 ° 0 min 0,000 mm 0,0 UV-I 0 W/m² 3,1 °C 4,1 °C 0,0 km/h (0 Bft)
11.10.2019 04:51 4,0 °C 93 % 1021,5 hPa 0,0 mm 0,0 km/h (0 Bft) N 360 ° 0 min 0,000 mm 0,0 UV-I 0 W/m² 3,0 °C 4,0 °C 0,0 km/h (0 Bft)
11.10.2019 04:52 3,9 °C 93 % 1021,4 hPa 0,0 mm 0,0 km/h (0 Bft) N 360 ° 0 min 0,000 mm 0,0 UV-I 0 W/m² 2,9 °C 3,9 °C 0,0 km/h (0 Bft)
11.10.2019 04:53 3,8 °C 93 % 1021,5 hPa 0,0 mm 0,0 km/h (0 Bft) N 360 ° 0 min 0,000 mm 0,0 UV-I 0 W/m² 2,8 °C 3,8 °C 0,0 km/h (0 Bft)
11.10.2019 04:54 3,8 °C 93 % 1021,3 hPa 0,0 mm 0,0 km/h (0 Bft) N 360 ° 0 min 0,000 mm 0,0 UV-I 0 W/m² 2,8 °C 3,8 °C 0,0 km/h (0 Bft)
11.10.2019 04:55 3,7 °C 93 % 1021,3 hPa 0,0 mm 0,0 km/h (0 Bft) N 360 ° 0 min 0,000 mm 0,0 UV-I 0 W/m² 2,7 °C 3,7 °C 0,0 km/h (0 Bft)
11.10.2019 04:56 3,7 °C 93 % 1021,3 hPa 0,0 mm 0,0 km/h (0 Bft) N 360 ° 0 min 0,000 mm 0,0 UV-I 0 W/m² 2,7 °C 3,7 °C 0,0 km/h (0 Bft)
11.10.2019 04:57 3,7 °C 93 % 1021,3 hPa 0,0 mm 0,0 km/h (0 Bft) N 360 ° 0 min 0,000 mm 0,0 UV-I 0 W/m² 2,7 °C 3,7 °C 0,0 km/h (0 Bft)
11.10.2019 04:58 3,7 °C 93 % 1021,3 hPa 0,0 mm 0,0 km/h (0 Bft) N 360 ° 0 min 0,000 mm 0,0 UV-I 0 W/m² 2,7 °C 3,7 °C 0,0 km/h (0 Bft)
11.10.2019 04:59 3,7 °C 93 % 1021,2 hPa 0,0 mm 0,0 km/h (0 Bft) N 360 ° 0 min 0,000 mm 0,0 UV-I 0 W/m² 2,7 °C 3,7 °C 0,0 km/h (0 Bft)
11.10.2019 05:00 3,7 °C 93 % 1021,3 hPa 0,0 mm 0,0 km/h (0 Bft) N 360 ° 0 min 0,000 mm 0,0 UV-I 0 W/m² 2,7 °C 3,7 °C 0,0 km/h (0 Bft)
11.10.2019 05:01 3,7 °C 93 % 1021,2 hPa 0,0 mm 0,0 km/h (0 Bft) N 360 ° 0 min 0,000 mm 0,0 UV-I 0 W/m² 2,7 °C 3,7 °C 0,0 km/h (0 Bft)
11.10.2019 05:02 3,7 °C 93 % 1021,3 hPa 0,0 mm 0,0 km/h (0 Bft) N 360 ° 0 min 0,000 mm 0,0 UV-I 0 W/m² 2,7 °C 3,7 °C 0,0 km/h (0 Bft)
11.10.2019 05:03 3,6 °C 93 % 1021,3 hPa 0,0 mm 0,0 km/h (0 Bft) N 360 ° 0 min 0,000 mm 0,0 UV-I 0 W/m² 2,6 °C 3,6 °C 0,0 km/h (0 Bft)
11.10.2019 05:04 3,5 °C 93 % 1021,4 hPa 0,0 mm 0,0 km/h (0 Bft) N 360 ° 0 min 0,000 mm 0,0 UV-I 0 W/m² 2,5 °C 3,5 °C 0,0 km/h (0 Bft)
11.10.2019 05:05 3,4 °C 93 % 1021,4 hPa 0,0 mm 0,0 km/h (0 Bft) N 360 ° 0 min 0,000 mm 0,0 UV-I 0 W/m² 2,4 °C 3,4 °C 0,0 km/h (0 Bft)
11.10.2019 05:06 3,3 °C 93 % 1021,4 hPa 0,0 mm 0,0 km/h (0 Bft) N 360 ° 0 min 0,000 mm 0,0 UV-I 0 W/m² 2,3 °C 3,3 °C 0,0 km/h (0 Bft)
11.10.2019 05:07 3,3 °C 93 % 1021,4 hPa 0,0 mm 0,0 km/h (0 Bft) N 360 ° 0 min 0,000 mm 0,0 UV-I 0 W/m² 2,3 °C 3,3 °C 0,0 km/h (0 Bft)
11.10.2019 05:08 3,2 °C 93 % 1021,5 hPa 0,0 mm 0,0 km/h (0 Bft) N 360 ° 0 min 0,000 mm 0,0 UV-I 0 W/m² 2,2 °C 3,2 °C 0,0 km/h (0 Bft)
11.10.2019 05:09 3,2 °C 93 % 1021,5 hPa 0,0 mm 0,0 km/h (0 Bft) N 360 ° 0 min 0,000 mm 0,0 UV-I 0 W/m² 2,2 °C 3,2 °C 0,0 km/h (0 Bft)
11.10.2019 05:10 3,2 °C 93 % 1021,4 hPa 0,0 mm 0,0 km/h (0 Bft) N 360 ° 0 min 0,000 mm 0,0 UV-I 0 W/m² 2,2 °C 3,2 °C 0,0 km/h (0 Bft)
11.10.2019 05:11 3,1 °C 93 % 1021,5 hPa 0,0 mm 0,0 km/h (0 Bft) N 360 ° 0 min 0,000 mm 0,0 UV-I 0 W/m² 2,1 °C 3,1 °C 0,0 km/h (0 Bft)
11.10.2019 05:12 3,1 °C 93 % 1021,5 hPa 0,0 mm 0,0 km/h (0 Bft) N 360 ° 0 min 0,000 mm 0,0 UV-I 0 W/m² 2,1 °C 3,1 °C 0,0 km/h (0 Bft)
11.10.2019 05:13 3,1 °C 93 % 1021,5 hPa 0,0 mm 0,0 km/h (0 Bft) N 360 ° 0 min 0,000 mm 0,0 UV-I 0 W/m² 2,1 °C 3,1 °C 0,0 km/h (0 Bft)
11.10.2019 05:14 3,1 °C 93 % 1021,5 hPa 0,0 mm 0,0 km/h (0 Bft) N 360 ° 0 min 0,000 mm 0,0 UV-I 0 W/m² 2,1 °C 3,1 °C 0,0 km/h (0 Bft)
11.10.2019 05:15 3,0 °C 93 % 1021,5 hPa 0,0 mm 0,0 km/h (0 Bft) N 360 ° 0 min 0,000 mm 0,0 UV-I 0 W/m² 2,0 °C 3,0 °C 0,0 km/h (0 Bft)
11.10.2019 05:16 3,0 °C 93 % 1021,6 hPa 0,0 mm 0,0 km/h (0 Bft) N 360 ° 0 min 0,000 mm 0,0 UV-I 0 W/m² 2,0 °C 3,0 °C 0,0 km/h (0 Bft)
11.10.2019 05:17 3,0 °C 93 % 1021,5 hPa 0,0 mm 0,0 km/h (0 Bft) N 360 ° 0 min 0,000 mm 0,0 UV-I 0 W/m² 2,0 °C 3,0 °C 0,0 km/h (0 Bft)
11.10.2019 05:18 3,0 °C 93 % 1021,5 hPa 0,0 mm 0,0 km/h (0 Bft) N 360 ° 0 min 0,000 mm 0,0 UV-I 0 W/m² 2,0 °C 3,0 °C 0,0 km/h (0 Bft)
11.10.2019 05:19 3,1 °C 93 % 1021,5 hPa 0,0 mm 0,0 km/h (0 Bft) N 360 ° 0 min 0,000 mm 0,0 UV-I 0 W/m² 2,1 °C 3,1 °C 0,0 km/h (0 Bft)
11.10.2019 05:20 3,1 °C 93 % 1021,5 hPa 0,0 mm 0,0 km/h (0 Bft) N 360 ° 0 min 0,000 mm 0,0 UV-I 0 W/m² 2,1 °C 3,1 °C 0,0 km/h (0 Bft)
11.10.2019 05:21 3,1 °C 93 % 1021,4 hPa 0,0 mm 0,0 km/h (0 Bft) N 360 ° 0 min 0,000 mm 0,0 UV-I 0 W/m² 2,1 °C 3,1 °C 0,0 km/h (0 Bft)
11.10.2019 05:22 3,1 °C 93 % 1021,5 hPa 0,0 mm 0,0 km/h (0 Bft) N 360 ° 0 min 0,000 mm 0,0 UV-I 0 W/m² 2,1 °C 3,1 °C 0,0 km/h (0 Bft)
11.10.2019 05:23 3,1 °C 93 % 1021,5 hPa 0,0 mm 0,0 km/h (0 Bft) N 360 ° 0 min 0,000 mm 0,0 UV-I 0 W/m² 2,1 °C 3,1 °C 0,0 km/h (0 Bft)
11.10.2019 05:24 3,1 °C 93 % 1021,5 hPa 0,0 mm 0,0 km/h (0 Bft) N 360 ° 0 min 0,000 mm 0,0 UV-I 0 W/m² 2,1 °C 3,1 °C 0,0 km/h (0 Bft)
11.10.2019 05:25 3,0 °C 93 % 1021,5 hPa 0,0 mm 0,0 km/h (0 Bft) N 360 ° 0 min 0,000 mm 0,0 UV-I 0 W/m² 2,0 °C 3,0 °C 0,0 km/h (0 Bft)
11.10.2019 05:26 2,9 °C 93 % 1021,5 hPa 0,0 mm 0,0 km/h (0 Bft) N 360 ° 0 min 0,000 mm 0,0 UV-I 0 W/m² 1,9 °C 2,9 °C 0,0 km/h (0 Bft)
11.10.2019 05:27 2,9 °C 93 % 1021,5 hPa 0,0 mm 0,0 km/h (0 Bft) N 360 ° 0 min 0,000 mm 0,0 UV-I 0 W/m² 1,9 °C 2,9 °C 0,0 km/h (0 Bft)
11.10.2019 05:28 2,8 °C 93 % 1021,6 hPa 0,0 mm 0,0 km/h (0 Bft) N 360 ° 0 min 0,000 mm 0,0 UV-I 0 W/m² 1,8 °C 2,8 °C 0,0 km/h (0 Bft)
11.10.2019 05:29 2,8 °C 93 % 1021,6 hPa 0,0 mm 0,0 km/h (0 Bft) N 360 ° 0 min 0,000 mm 0,0 UV-I 0 W/m² 1,8 °C 2,8 °C 0,0 km/h (0 Bft)
11.10.2019 05:30 2,8 °C 93 % 1021,6 hPa 0,0 mm 0,0 km/h (0 Bft) N 360 ° 0 min 0,000 mm 0,0 UV-I 0 W/m² 1,8 °C 2,8 °C 0,0 km/h (0 Bft)
11.10.2019 05:31 2,8 °C 93 % 1021,7 hPa 0,0 mm 0,0 km/h (0 Bft) N 360 ° 0 min 0,000 mm 0,0 UV-I 0 W/m² 1,8 °C 2,8 °C 0,0 km/h (0 Bft)
11.10.2019 05:32 2,8 °C 93 % 1021,7 hPa 0,0 mm 0,0 km/h (0 Bft) N 360 ° 0 min 0,000 mm 0,0 UV-I 0 W/m² 1,8 °C 2,8 °C 0,0 km/h (0 Bft)
11.10.2019 05:33 2,9 °C 93 % 1021,7 hPa 0,0 mm 0,0 km/h (0 Bft) N 360 ° 0 min 0,000 mm 0,0 UV-I 0 W/m² 1,9 °C 2,9 °C 0,0 km/h (0 Bft)
11.10.2019 05:34 2,8 °C 94 % 1021,7 hPa 0,0 mm 0,0 km/h (0 Bft) N 360 ° 0 min 0,000 mm 0,0 UV-I 0 W/m² 1,9 °C 2,8 °C 0,0 km/h (0 Bft)
11.10.2019 05:35 2,8 °C 93 % 1021,7 hPa 0,0 mm 0,0 km/h (0 Bft) N 360 ° 0 min 0,000 mm 0,0 UV-I 0 W/m² 1,8 °C 2,8 °C 0,0 km/h (0 Bft)
11.10.2019 05:36 2,8 °C 93 % 1021,7 hPa 0,0 mm 0,0 km/h (0 Bft) N 360 ° 0 min 0,000 mm 0,0 UV-I 0 W/m² 1,8 °C 2,8 °C 0,0 km/h (0 Bft)
11.10.2019 05:37 2,8 °C 93 % 1021,7 hPa 0,0 mm 0,0 km/h (0 Bft) N 360 ° 0 min 0,000 mm 0,0 UV-I 0 W/m² 1,8 °C 2,8 °C 0,0 km/h (0 Bft)
11.10.2019 05:38 2,9 °C 94 % 1021,7 hPa 0,0 mm 0,0 km/h (0 Bft) N 360 ° 0 min 0,000 mm 0,0 UV-I 0 W/m² 2,0 °C 2,9 °C 0,0 km/h (0 Bft)
11.10.2019 05:39 2,9 °C 93 % 1021,7 hPa 0,0 mm 0,0 km/h (0 Bft) N 360 ° 0 min 0,000 mm 0,0 UV-I 0 W/m² 1,9 °C 2,9 °C 0,0 km/h (0 Bft)
11.10.2019 05:40 2,9 °C 93 % 1021,7 hPa 0,0 mm 0,0 km/h (0 Bft) N 360 ° 0 min 0,000 mm 0,0 UV-I 0 W/m² 1,9 °C 2,9 °C 0,0 km/h (0 Bft)
11.10.2019 05:41 2,8 °C 93 % 1021,8 hPa 0,0 mm 0,0 km/h (0 Bft) N 360 ° 0 min 0,000 mm 0,0 UV-I 0 W/m² 1,8 °C 2,8 °C 0,0 km/h (0 Bft)
11.10.2019 05:42 2,8 °C 93 % 1021,7 hPa 0,0 mm 0,0 km/h (0 Bft) N 360 ° 0 min 0,000 mm 0,0 UV-I 0 W/m² 1,8 °C 2,8 °C 0,0 km/h (0 Bft)
11.10.2019 05:43 2,8 °C 93 % 1021,7 hPa 0,0 mm 0,0 km/h (0 Bft) N 360 ° 0 min 0,000 mm 0,0 UV-I 0 W/m² 1,8 °C 2,8 °C 0,0 km/h (0 Bft)
11.10.2019 05:44 2,8 °C 93 % 1021,7 hPa 0,0 mm 0,0 km/h (0 Bft) N 360 ° 0 min 0,000 mm 0,0 UV-I 0 W/m² 1,8 °C 2,8 °C 0,0 km/h (0 Bft)
11.10.2019 05:45 2,8 °C 93 % 1021,7 hPa 0,0 mm 0,0 km/h (0 Bft) N 360 ° 0 min 0,000 mm 0,0 UV-I 0 W/m² 1,8 °C 2,8 °C 0,0 km/h (0 Bft)
11.10.2019 05:46 2,8 °C 93 % 1021,7 hPa 0,0 mm 0,0 km/h (0 Bft) N 360 ° 0 min 0,000 mm 0,0 UV-I 0 W/m² 1,8 °C 2,8 °C 0,0 km/h (0 Bft)
11.10.2019 05:47 2,8 °C 93 % 1021,8 hPa 0,0 mm 0,0 km/h (0 Bft) N 360 ° 0 min 0,000 mm 0,0 UV-I 0 W/m² 1,8 °C 2,8 °C 0,0 km/h (0 Bft)
11.10.2019 05:48 2,8 °C 93 % 1021,7 hPa 0,0 mm 0,0 km/h (0 Bft) N 360 ° 0 min 0,000 mm 0,0 UV-I 0 W/m² 1,8 °C 2,8 °C 0,0 km/h (0 Bft)
11.10.2019 05:49 2,8 °C 93 % 1021,7 hPa 0,0 mm 0,0 km/h (0 Bft) N 360 ° 0 min 0,000 mm 0,0 UV-I 0 W/m² 1,8 °C 2,8 °C 0,0 km/h (0 Bft)
11.10.2019 05:50 2,8 °C 93 % 1021,7 hPa 0,0 mm 0,0 km/h (0 Bft) N 360 ° 0 min 0,000 mm 0,0 UV-I 0 W/m² 1,8 °C 2,8 °C 0,0 km/h (0 Bft)
11.10.2019 05:51 2,7 °C 93 % 1021,7 hPa 0,0 mm 0,0 km/h (0 Bft) N 360 ° 0 min 0,000 mm 0,0 UV-I 0 W/m² 1,7 °C 2,7 °C 0,0 km/h (0 Bft)
11.10.2019 05:52 2,7 °C 93 % 1021,8 hPa 0,0 mm 0,0 km/h (0 Bft) N 360 ° 0 min 0,000 mm 0,0 UV-I 0 W/m² 1,7 °C 2,7 °C 0,0 km/h (0 Bft)
11.10.2019 05:53 2,6 °C 93 % 1021,8 hPa 0,0 mm 0,0 km/h (0 Bft) N 360 ° 0 min 0,000 mm 0,0 UV-I 0 W/m² 1,6 °C 2,6 °C 0,0 km/h (0 Bft)
11.10.2019 05:54 2,6 °C 94 % 1021,8 hPa 0,0 mm 0,0 km/h (0 Bft) N 360 ° 0 min 0,000 mm 0,0 UV-I 0 W/m² 1,7 °C 2,6 °C 0,0 km/h (0 Bft)
11.10.2019 05:55 2,7 °C 94 % 1021,8 hPa 0,0 mm 0,0 km/h (0 Bft) N 360 ° 0 min 0,000 mm 0,0 UV-I 0 W/m² 1,8 °C 2,7 °C 0,0 km/h (0 Bft)
11.10.2019 05:56 2,7 °C 94 % 1021,8 hPa 0,0 mm 0,0 km/h (0 Bft) N 360 ° 0 min 0,000 mm 0,0 UV-I 0 W/m² 1,8 °C 2,7 °C 0,0 km/h (0 Bft)
11.10.2019 05:57 2,7 °C 94 % 1021,8 hPa 0,0 mm 0,0 km/h (0 Bft) N 360 ° 0 min 0,000 mm 0,0 UV-I 0 W/m² 1,8 °C 2,7 °C 0,0 km/h (0 Bft)
11.10.2019 05:58 2,7 °C 94 % 1021,9 hPa 0,0 mm 0,0 km/h (0 Bft) N 360 ° 0 min 0,000 mm 0,0 UV-I 0 W/m² 1,8 °C 2,7 °C 0,0 km/h (0 Bft)
11.10.2019 05:59 2,8 °C 94 % 1021,8 hPa 0,0 mm 0,0 km/h (0 Bft) N 360 ° 0 min 0,000 mm 0,0 UV-I 0 W/m² 1,9 °C 2,8 °C 0,0 km/h (0 Bft)
11.10.2019 06:00 2,9 °C 94 % 1021,8 hPa 0,0 mm 0,0 km/h (0 Bft) N 360 ° 0 min 0,000 mm 0,0 UV-I 0 W/m² 2,0 °C 2,9 °C 0,0 km/h (0 Bft)
11.10.2019 06:01 2,9 °C 94 % 1021,8 hPa 0,0 mm 0,0 km/h (0 Bft) N 360 ° 0 min 0,000 mm 0,0 UV-I 0 W/m² 2,0 °C 2,9 °C 0,0 km/h (0 Bft)
11.10.2019 06:02 2,9 °C 94 % 1021,8 hPa 0,0 mm 0,0 km/h (0 Bft) N 360 ° 0 min 0,000 mm 0,0 UV-I 0 W/m² 2,0 °C 2,9 °C 0,0 km/h (0 Bft)
11.10.2019 06:03 2,9 °C 94 % 1021,8 hPa 0,0 mm 0,0 km/h (0 Bft) N 360 ° 0 min 0,000 mm 0,0 UV-I 0 W/m² 2,0 °C 2,9 °C 0,0 km/h (0 Bft)
11.10.2019 06:04 2,9 °C 94 % 1021,8 hPa 0,0 mm 0,0 km/h (0 Bft) N 360 ° 0 min 0,000 mm 0,0 UV-I 0 W/m² 2,0 °C 2,9 °C 0,0 km/h (0 Bft)
11.10.2019 06:05 2,9 °C 94 % 1021,8 hPa 0,0 mm 0,0 km/h (0 Bft) N 360 ° 0 min 0,000 mm 0,0 UV-I 0 W/m² 2,0 °C 2,9 °C 0,0 km/h (0 Bft)
11.10.2019 06:06 2,8 °C 94 % 1021,8 hPa 0,0 mm 0,0 km/h (0 Bft) N 360 ° 0 min 0,000 mm 0,0 UV-I 0 W/m² 1,9 °C 2,8 °C 0,0 km/h (0 Bft)
11.10.2019 06:07 2,8 °C 93 % 1021,8 hPa 0,0 mm 0,0 km/h (0 Bft) N 360 ° 0 min 0,000 mm 0,0 UV-I 0 W/m² 1,8 °C 2,8 °C 0,0 km/h (0 Bft)
11.10.2019 06:08 2,7 °C 93 % 1021,8 hPa 0,0 mm 0,0 km/h (0 Bft) N 360 ° 0 min 0,000 mm 0,0 UV-I 0 W/m² 1,7 °C 2,7 °C 0,0 km/h (0 Bft)
11.10.2019 06:09 2,7 °C 93 % 1021,8 hPa 0,0 mm 0,0 km/h (0 Bft) N 360 ° 0 min 0,000 mm 0,0 UV-I 0 W/m² 1,7 °C 2,7 °C 0,0 km/h (0 Bft)
11.10.2019 06:10 2,7 °C 94 % 1021,8 hPa 0,0 mm 0,0 km/h (0 Bft) N 360 ° 0 min 0,000 mm 0,0 UV-I 0 W/m² 1,8 °C 2,7 °C 0,0 km/h (0 Bft)
11.10.2019 06:11 2,6 °C 94 % 1021,8 hPa 0,0 mm 0,0 km/h (0 Bft) N 360 ° 0 min 0,000 mm 0,0 UV-I 0 W/m² 1,7 °C 2,6 °C 0,0 km/h (0 Bft)
11.10.2019 06:12 2,6 °C 94 % 1021,8 hPa 0,0 mm 0,0 km/h (0 Bft) N 360 ° 0 min 0,000 mm 0,0 UV-I 0 W/m² 1,7 °C 2,6 °C 0,0 km/h (0 Bft)
11.10.2019 06:13 2,6 °C 94 % 1021,8 hPa 0,0 mm 0,0 km/h (0 Bft) N 360 ° 0 min 0,000 mm 0,0 UV-I 0 W/m² 1,7 °C 2,6 °C 0,0 km/h (0 Bft)
11.10.2019 06:14 2,6 °C 94 % 1021,7 hPa 0,0 mm 0,0 km/h (0 Bft) N 360 ° 0 min 0,000 mm 0,0 UV-I 0 W/m² 1,7 °C 2,6 °C 0,0 km/h (0 Bft)
11.10.2019 06:15 2,6 °C 94 % 1021,7 hPa 0,0 mm 0,0 km/h (0 Bft) N 360 ° 0 min 0,000 mm 0,0 UV-I 0 W/m² 1,7 °C 2,6 °C 0,0 km/h (0 Bft)
11.10.2019 06:16 2,6 °C 94 % 1021,7 hPa 0,0 mm 0,0 km/h (0 Bft) N 360 ° 0 min 0,000 mm 0,0 UV-I 0 W/m² 1,7 °C 2,6 °C 0,0 km/h (0 Bft)
11.10.2019 06:17 2,6 °C 94 % 1021,7 hPa 0,0 mm 0,0 km/h (0 Bft) N 360 ° 0 min 0,000 mm 0,0 UV-I 0 W/m² 1,7 °C 2,6 °C 0,0 km/h (0 Bft)
11.10.2019 06:18 2,5 °C 93 % 1021,7 hPa 0,0 mm 0,0 km/h (0 Bft) S 191 ° 0 min 0,000 mm 0,0 UV-I 0 W/m² 1,5 °C 2,5 °C 0,0 km/h (0 Bft)
11.10.2019 06:19 2,4 °C 93 % 1021,7 hPa 0,0 mm 0,0 km/h (0 Bft) S 191 ° 0 min 0,000 mm 0,0 UV-I 0 W/m² 1,4 °C 2,4 °C 0,0 km/h (0 Bft)
11.10.2019 06:20 2,4 °C 94 % 1021,7 hPa 0,0 mm 0,0 km/h (0 Bft) S 191 ° 0 min 0,000 mm 0,0 UV-I 0 W/m² 1,5 °C 2,4 °C 0,0 km/h (0 Bft)
11.10.2019 06:21 2,6 °C 94 % 1021,8 hPa 0,0 mm 0,0 km/h (0 Bft) S 191 ° 0 min 0,000 mm 0,0 UV-I 0 W/m² 1,7 °C 2,6 °C 0,0 km/h (0 Bft)
11.10.2019 06:22 2,6 °C 94 % 1021,7 hPa 0,0 mm 0,0 km/h (0 Bft) S 191 ° 0 min 0,000 mm 0,0 UV-I 0 W/m² 1,7 °C 2,6 °C 0,0 km/h (0 Bft)
11.10.2019 06:23 2,6 °C 94 % 1021,7 hPa 0,0 mm 0,0 km/h (0 Bft) S 190 ° 0 min 0,000 mm 0,0 UV-I 0 W/m² 1,7 °C 2,6 °C 0,0 km/h (0 Bft)
11.10.2019 06:24 2,6 °C 94 % 1021,7 hPa 0,0 mm 2,6 km/h (1 Bft) S-SW 213 ° 0 min 0,000 mm 0,0 UV-I 0 W/m² 1,7 °C 2,6 °C 6,4 km/h (2 Bft)
11.10.2019 06:25 2,6 °C 94 % 1021,7 hPa 0,0 mm 3,0 km/h (1 Bft) W-NW 296 ° 0 min 0,000 mm 0,0 UV-I 0 W/m² 1,7 °C 2,6 °C 6,4 km/h (2 Bft)
11.10.2019 06:26 2,6 °C 94 % 1021,6 hPa 0,0 mm 0,1 km/h (0 Bft) W-NW 296 ° 0 min 0,000 mm 0,0 UV-I 0 W/m² 1,7 °C 2,6 °C 1,6 km/h (1 Bft)
11.10.2019 06:27 2,7 °C 94 % 1021,7 hPa 0,0 mm 0,0 km/h (0 Bft) W-NW 296 ° 0 min 0,000 mm 0,0 UV-I 0 W/m² 1,8 °C 2,7 °C 0,0 km/h (0 Bft)
11.10.2019 06:28 2,8 °C 94 % 1021,7 hPa 0,0 mm 0,8 km/h (0 Bft) N-NW 329 ° 0 min 0,000 mm 0,0 UV-I 0 W/m² 1,9 °C 2,8 °C 4,8 km/h (1 Bft)
11.10.2019 06:29 2,8 °C 94 % 1021,7 hPa 0,0 mm 0,1 km/h (0 Bft) N-NW 329 ° 0 min 0,000 mm 0,0 UV-I 0 W/m² 1,9 °C 2,8 °C 1,6 km/h (1 Bft)
11.10.2019 06:30 2,9 °C 94 % 1021,6 hPa 0,0 mm 0,0 km/h (0 Bft) N-NW 329 ° 0 min 0,000 mm 0,0 UV-I 0 W/m² 2,0 °C 2,9 °C 0,0 km/h (0 Bft)
11.10.2019 06:31 2,9 °C 94 % 1021,6 hPa 0,0 mm 0,0 km/h (0 Bft) N-NW 329 ° 0 min 0,000 mm 0,0 UV-I 0 W/m² 2,0 °C 2,9 °C 0,0 km/h (0 Bft)
11.10.2019 06:32 2,9 °C 94 % 1021,6 hPa 0,0 mm 0,0 km/h (0 Bft) N-NW 329 ° 0 min 0,000 mm 0,0 UV-I 0 W/m² 2,0 °C 2,9 °C 0,0 km/h (0 Bft)
11.10.2019 06:33 3,0 °C 94 % 1021,6 hPa 0,0 mm 0,0 km/h (0 Bft) N-NW 329 ° 0 min 0,000 mm 0,0 UV-I 0 W/m² 2,1 °C 3,0 °C 0,0 km/h (0 Bft)
11.10.2019 06:34 2,9 °C 94 % 1021,6 hPa 0,0 mm 0,0 km/h (0 Bft) N-NW 329 ° 0 min 0,000 mm 0,0 UV-I 0 W/m² 2,0 °C 2,9 °C 0,0 km/h (0 Bft)
11.10.2019 06:35 3,0 °C 94 % 1021,5 hPa 0,0 mm 0,0 km/h (0 Bft) N-NW 329 ° 0 min 0,000 mm 0,0 UV-I 0 W/m² 2,1 °C 3,0 °C 0,0 km/h (0 Bft)
11.10.2019 06:36 3,1 °C 94 % 1021,5 hPa 0,0 mm 0,0 km/h (0 Bft) N-NW 329 ° 0 min 0,000 mm 0,0 UV-I 0 W/m² 2,2 °C 3,1 °C 0,0 km/h (0 Bft)
11.10.2019 06:37 3,1 °C 94 % 1021,5 hPa 0,0 mm 0,0 km/h (0 Bft) N-NW 329 ° 0 min 0,000 mm 0,0 UV-I 0 W/m² 2,2 °C 3,1 °C 0,0 km/h (0 Bft)
11.10.2019 06:38 3,2 °C 94 % 1021,5 hPa 0,0 mm 0,0 km/h (0 Bft) N-NW 329 ° 0 min 0,000 mm 0,0 UV-I 0 W/m² 2,3 °C 3,2 °C 0,0 km/h (0 Bft)
11.10.2019 06:39 3,2 °C 94 % 1021,5 hPa 0,0 mm 0,0 km/h (0 Bft) N-NW 329 ° 0 min 0,000 mm 0,0 UV-I 0 W/m² 2,3 °C 3,2 °C 0,0 km/h (0 Bft)
11.10.2019 06:40 3,2 °C 94 % 1021,5 hPa 0,0 mm 0,0 km/h (0 Bft) N-NW 329 ° 0 min 0,000 mm 0,0 UV-I 0 W/m² 2,3 °C 3,2 °C 0,0 km/h (0 Bft)
11.10.2019 06:41 3,2 °C 94 % 1021,5 hPa 0,0 mm 0,0 km/h (0 Bft) N-NW 329 ° 0 min 0,000 mm 0,0 UV-I 0 W/m² 2,3 °C 3,2 °C 0,0 km/h (0 Bft)
11.10.2019 06:42 3,3 °C 94 % 1021,5 hPa 0,0 mm 0,0 km/h (0 Bft) N-NW 329 ° 0 min 0,000 mm 0,0 UV-I 0 W/m² 2,4 °C 3,3 °C 0,0 km/h (0 Bft)
11.10.2019 06:43 3,3 °C 94 % 1021,4 hPa 0,0 mm 0,0 km/h (0 Bft) N-NW 329 ° 0 min 0,000 mm 0,0 UV-I 0 W/m² 2,4 °C 3,3 °C 0,0 km/h (0 Bft)
11.10.2019 06:44 3,3 °C 94 % 1021,5 hPa 0,0 mm 0,0 km/h (0 Bft) N-NW 329 ° 0 min 0,000 mm 0,0 UV-I 0 W/m² 2,4 °C 3,3 °C 0,0 km/h (0 Bft)
11.10.2019 06:45 3,3 °C 94 % 1021,5 hPa 0,0 mm 0,0 km/h (0 Bft) N-NW 329 ° 0 min 0,000 mm 0,0 UV-I 0 W/m² 2,4 °C 3,3 °C 0,0 km/h (0 Bft)
11.10.2019 06:46 3,3 °C 94 % 1021,5 hPa 0,0 mm 0,0 km/h (0 Bft) N-NW 329 ° 0 min 0,000 mm 0,0 UV-I 0 W/m² 2,4 °C 3,3 °C 0,0 km/h (0 Bft)
11.10.2019 06:47 3,3 °C 94 % 1021,5 hPa 0,0 mm 0,0 km/h (0 Bft) N-NW 329 ° 0 min 0,000 mm 0,0 UV-I 0 W/m² 2,4 °C 3,3 °C 0,0 km/h (0 Bft)
11.10.2019 06:48 3,3 °C 94 % 1021,5 hPa 0,0 mm 0,0 km/h (0 Bft) N-NW 329 ° 0 min 0,000 mm 0,0 UV-I 0 W/m² 2,4 °C 3,3 °C 0,0 km/h (0 Bft)
11.10.2019 06:49 3,3 °C 94 % 1021,5 hPa 0,0 mm 0,0 km/h (0 Bft) N-NW 329 ° 0 min 0,000 mm 0,0 UV-I 0 W/m² 2,4 °C 3,3 °C 0,0 km/h (0 Bft)
11.10.2019 06:50 3,3 °C 94 % 1021,4 hPa 0,0 mm 0,0 km/h (0 Bft) N-NW 329 ° 0 min 0,000 mm 0,0 UV-I 0 W/m² 2,4 °C 3,3 °C 0,0 km/h (0 Bft)
11.10.2019 06:51 3,3 °C 94 % 1021,4 hPa 0,0 mm 0,0 km/h (0 Bft) N-NW 329 ° 0 min 0,000 mm 0,0 UV-I 0 W/m² 2,4 °C 3,3 °C 0,0 km/h (0 Bft)
11.10.2019 06:52 3,3 °C 94 % 1021,4 hPa 0,0 mm 0,0 km/h (0 Bft) N-NW 329 ° 0 min 0,000 mm 0,0 UV-I 0 W/m² 2,4 °C 3,3 °C 0,0 km/h (0 Bft)
11.10.2019 06:53 3,3 °C 94 % 1021,4 hPa 0,0 mm 0,0 km/h (0 Bft) N-NW 329 ° 0 min 0,000 mm 0,0 UV-I 0 W/m² 2,4 °C 3,3 °C 0,0 km/h (0 Bft)
11.10.2019 06:54 3,3 °C 94 % 1021,3 hPa 0,0 mm 0,0 km/h (0 Bft) N-NW 329 ° 0 min 0,000 mm 0,0 UV-I 0 W/m² 2,4 °C 3,3 °C 0,0 km/h (0 Bft)
11.10.2019 06:55 3,3 °C 94 % 1021,3 hPa 0,0 mm 0,0 km/h (0 Bft) N-NW 329 ° 0 min 0,000 mm 0,0 UV-I 0 W/m² 2,4 °C 3,3 °C 0,0 km/h (0 Bft)
11.10.2019 06:56 3,3 °C 94 % 1021,3 hPa 0,0 mm 0,0 km/h (0 Bft) N-NW 329 ° 0 min 0,000 mm 0,0 UV-I 0 W/m² 2,4 °C 3,3 °C 0,0 km/h (0 Bft)
11.10.2019 06:57 3,3 °C 94 % 1021,3 hPa 0,0 mm 0,0 km/h (0 Bft) N-NW 329 ° 0 min 0,000 mm 0,0 UV-I 0 W/m² 2,4 °C 3,3 °C 0,0 km/h (0 Bft)
11.10.2019 06:58 3,3 °C 94 % 1021,2 hPa 0,0 mm 0,0 km/h (0 Bft) N-NW 329 ° 0 min 0,000 mm 0,0 UV-I 0 W/m² 2,4 °C 3,3 °C 0,0 km/h (0 Bft)
11.10.2019 06:59 3,3 °C 94 % 1021,2 hPa 0,0 mm 0,0 km/h (0 Bft) N-NW 329 ° 0 min 0,000 mm 0,0 UV-I 0 W/m² 2,4 °C 3,3 °C 0,0 km/h (0 Bft)
11.10.2019 07:00 3,3 °C 94 % 1021,2 hPa 0,0 mm 0,0 km/h (0 Bft) N-NW 329 ° 0 min 0,000 mm 0,0 UV-I 0 W/m² 2,4 °C 3,3 °C 0,0 km/h (0 Bft)
11.10.2019 07:01 3,3 °C 94 % 1021,2 hPa 0,0 mm 0,0 km/h (0 Bft) N-NW 331 ° 0 min 0,000 mm 0,0 UV-I 0 W/m² 2,4 °C 3,3 °C 0,0 km/h (0 Bft)
11.10.2019 07:02 3,3 °C 94 % 1021,3 hPa 0,0 mm 0,0 km/h (0 Bft) N-NW 331 ° 0 min 0,000 mm 0,0 UV-I 0 W/m² 2,4 °C 3,3 °C 0,0 km/h (0 Bft)
11.10.2019 07:03 3,3 °C 94 % 1021,2 hPa 0,0 mm 0,0 km/h (0 Bft) N-NW 331 ° 0 min 0,000 mm 0,0 UV-I 0 W/m² 2,4 °C 3,3 °C 0,0 km/h (0 Bft)
11.10.2019 07:04 3,3 °C 94 % 1021,2 hPa 0,0 mm 0,3 km/h (0 Bft) N-NW 330 ° 0 min 0,000 mm 0,0 UV-I 0 W/m² 2,4 °C 3,3 °C 1,6 km/h (1 Bft)
11.10.2019 07:05 3,3 °C 94 % 1021,2 hPa 0,0 mm 0,0 km/h (0 Bft) N-NW 330 ° 0 min 0,000 mm 0,0 UV-I 0 W/m² 2,4 °C 3,3 °C 0,0 km/h (0 Bft)
11.10.2019 07:06 3,4 °C 94 % 1021,2 hPa 0,0 mm 0,0 km/h (0 Bft) N-NW 330 ° 0 min 0,000 mm 0,0 UV-I 0 W/m² 2,5 °C 3,4 °C 0,0 km/h (0 Bft)
11.10.2019 07:07 3,4 °C 94 % 1021,2 hPa 0,0 mm 0,0 km/h (0 Bft) N-NW 330 ° 0 min 0,000 mm 0,0 UV-I 0 W/m² 2,5 °C 3,4 °C 0,0 km/h (0 Bft)
11.10.2019 07:08 3,4 °C 94 % 1021,2 hPa 0,0 mm 0,0 km/h (0 Bft) N-NW 330 ° 0 min 0,000 mm 0,0 UV-I 0 W/m² 2,5 °C 3,4 °C 0,0 km/h (0 Bft)
11.10.2019 07:09 3,4 °C 94 % 1021,2 hPa 0,0 mm 0,0 km/h (0 Bft) N-NW 330 ° 0 min 0,000 mm 0,0 UV-I 0 W/m² 2,5 °C 3,4 °C 0,0 km/h (0 Bft)
11.10.2019 07:10 3,4 °C 94 % 1021,2 hPa 0,0 mm 0,0 km/h (0 Bft) N-NW 330 ° 0 min 0,000 mm 0,0 UV-I 0 W/m² 2,5 °C 3,4 °C 0,0 km/h (0 Bft)
11.10.2019 07:11 3,4 °C 94 % 1021,2 hPa 0,0 mm 0,0 km/h (0 Bft) N-NW 330 ° 0 min 0,000 mm 0,0 UV-I 0 W/m² 2,5 °C 3,4 °C 0,0 km/h (0 Bft)
11.10.2019 07:12 3,4 °C 94 % 1021,2 hPa 0,0 mm 0,0 km/h (0 Bft) N-NW 330 ° 0 min 0,000 mm 0,0 UV-I 0 W/m² 2,5 °C 3,4 °C 0,0 km/h (0 Bft)
11.10.2019 07:13 3,4 °C 94 % 1021,2 hPa 0,0 mm 0,0 km/h (0 Bft) N-NW 330 ° 0 min 0,000 mm 0,0 UV-I 0 W/m² 2,5 °C 3,4 °C 0,0 km/h (0 Bft)
11.10.2019 07:14 3,4 °C 94 % 1021,3 hPa 0,0 mm 1,2 km/h (1 Bft) N-NW 330 ° 0 min 0,000 mm 0,0 UV-I 0 W/m² 2,5 °C 3,4 °C 4,8 km/h (1 Bft)
11.10.2019 07:15 3,4 °C 94 % 1021,3 hPa 0,0 mm 0,8 km/h (0 Bft) N-NW 330 ° 0 min 0,000 mm 0,0 UV-I 0 W/m² 2,5 °C 3,4 °C 3,2 km/h (1 Bft)
11.10.2019 07:16 3,4 °C 94 % 1021,3 hPa 0,0 mm 0,0 km/h (0 Bft) N-NW 330 ° 0 min 0,000 mm 0,0 UV-I 0 W/m² 2,5 °C 3,4 °C 0,0 km/h (0 Bft)
11.10.2019 07:17 3,5 °C 94 % 1021,3 hPa 0,0 mm 0,7 km/h (0 Bft) N-NW 330 ° 0 min 0,000 mm 0,0 UV-I 0 W/m² 2,6 °C 3,5 °C 3,2 km/h (1 Bft)
11.10.2019 07:18 3,4 °C 94 % 1021,3 hPa 0,0 mm 2,5 km/h (1 Bft) O-NO 69 ° 0 min 0,000 mm 0,0 UV-I 0 W/m² 2,5 °C 3,4 °C 4,8 km/h (1 Bft)
11.10.2019 07:19 3,4 °C 93 % 1021,3 hPa 0,0 mm 0,1 km/h (0 Bft) O-NO 69 ° 0 min 0,000 mm 0,0 UV-I 0 W/m² 2,4 °C 3,4 °C 1,6 km/h (1 Bft)
11.10.2019 07:20 3,4 °C 94 % 1021,3 hPa 0,0 mm 0,1 km/h (0 Bft) O-NO 69 ° 0 min 0,000 mm 0,0 UV-I 0 W/m² 2,5 °C 3,4 °C 1,6 km/h (1 Bft)
11.10.2019 07:21 3,4 °C 94 % 1021,3 hPa 0,0 mm 0,0 km/h (0 Bft) O-NO 69 ° 0 min 0,000 mm 0,0 UV-I 0 W/m² 2,5 °C 3,4 °C 0,0 km/h (0 Bft)
11.10.2019 07:22 3,5 °C 94 % 1021,4 hPa 0,0 mm 0,0 km/h (0 Bft) O-NO 69 ° 0 min 0,000 mm 0,0 UV-I 0 W/m² 2,6 °C 3,5 °C 0,0 km/h (0 Bft)
11.10.2019 07:23 3,6 °C 94 % 1021,3 hPa 0,0 mm 0,0 km/h (0 Bft) O-NO 69 ° 0 min 0,000 mm 0,0 UV-I 0 W/m² 2,7 °C 3,6 °C 0,0 km/h (0 Bft)
11.10.2019 07:24 3,6 °C 94 % 1021,3 hPa 0,0 mm 0,0 km/h (0 Bft) O-NO 69 ° 0 min 0,000 mm 0,0 UV-I 5 W/m² 2,7 °C 3,6 °C 0,0 km/h (0 Bft)
11.10.2019 07:25 3,7 °C 94 % 1021,3 hPa 0,0 mm 0,0 km/h (0 Bft) O-NO 69 ° 0 min 0,000 mm 0,0 UV-I 5 W/m² 2,8 °C 3,7 °C 0,0 km/h (0 Bft)
11.10.2019 07:26 3,7 °C 94 % 1021,3 hPa 0,0 mm 0,0 km/h (0 Bft) O-NO 69 ° 0 min 0,000 mm 0,0 UV-I 5 W/m² 2,8 °C 3,7 °C 0,0 km/h (0 Bft)
11.10.2019 07:27 3,7 °C 93 % 1021,3 hPa 0,0 mm 0,0 km/h (0 Bft) O-NO 69 ° 0 min 0,000 mm 0,0 UV-I 5 W/m² 2,7 °C 3,7 °C 0,0 km/h (0 Bft)
11.10.2019 07:28 3,6 °C 93 % 1021,2 hPa 0,0 mm 0,0 km/h (0 Bft) O-NO 69 ° 0 min 0,000 mm 0,0 UV-I 5 W/m² 2,6 °C 3,6 °C 0,0 km/h (0 Bft)
11.10.2019 07:29 3,6 °C 93 % 1021,3 hPa 0,0 mm 0,0 km/h (0 Bft) O-NO 69 ° 0 min 0,000 mm 0,0 UV-I 5 W/m² 2,6 °C 3,6 °C 0,0 km/h (0 Bft)
11.10.2019 07:30 3,6 °C 93 % 1021,3 hPa 0,0 mm 0,0 km/h (0 Bft) O-NO 69 ° 0 min 0,000 mm 0,0 UV-I 5 W/m² 2,6 °C 3,6 °C 0,0 km/h (0 Bft)
11.10.2019 07:31 3,5 °C 93 % 1021,3 hPa 0,0 mm 0,0 km/h (0 Bft) O-NO 69 ° 0 min 0,000 mm 0,0 UV-I 5 W/m² 2,5 °C 3,5 °C 0,0 km/h (0 Bft)
11.10.2019 07:32 3,5 °C 93 % 1021,3 hPa 0,0 mm 0,0 km/h (0 Bft) O-NO 69 ° 0 min 0,000 mm 0,0 UV-I 5 W/m² 2,5 °C 3,5 °C 0,0 km/h (0 Bft)
11.10.2019 07:33 3,4 °C 93 % 1021,3 hPa 0,0 mm 0,0 km/h (0 Bft) O-NO 69 ° 0 min 0,000 mm 0,0 UV-I 5 W/m² 2,4 °C 3,4 °C 0,0 km/h (0 Bft)
11.10.2019 07:34 3,3 °C 93 % 1021,2 hPa 0,0 mm 0,0 km/h (0 Bft) O-NO 69 ° 0 min 0,000 mm 0,0 UV-I 7 W/m² 2,3 °C 3,3 °C 0,0 km/h (0 Bft)
11.10.2019 07:35 3,3 °C 93 % 1021,2 hPa 0,0 mm 0,0 km/h (0 Bft) O-NO 69 ° 0 min 0,000 mm 0,0 UV-I 7 W/m² 2,3 °C 3,3 °C 0,0 km/h (0 Bft)
11.10.2019 07:36 3,3 °C 93 % 1021,2 hPa 0,0 mm 0,0 km/h (0 Bft) O-NO 69 ° 0 min 0,000 mm 0,0 UV-I 7 W/m² 2,3 °C 3,3 °C 0,0 km/h (0 Bft)
11.10.2019 07:37 3,2 °C 93 % 1021,2 hPa 0,0 mm 0,0 km/h (0 Bft) O-NO 69 ° 0 min 0,000 mm 0,0 UV-I 7 W/m² 2,2 °C 3,2 °C 0,0 km/h (0 Bft)
11.10.2019 07:38 3,2 °C 93 % 1021,2 hPa 0,0 mm 0,0 km/h (0 Bft) O-NO 69 ° 0 min 0,000 mm 0,0 UV-I 9 W/m² 2,2 °C 3,2 °C 0,0 km/h (0 Bft)
11.10.2019 07:39 3,2 °C 93 % 1021,2 hPa 0,0 mm 0,0 km/h (0 Bft) O-NO 69 ° 0 min 0,000 mm 0,0 UV-I 9 W/m² 2,2 °C 3,2 °C 0,0 km/h (0 Bft)
11.10.2019 07:40 3,2 °C 93 % 1021,1 hPa 0,0 mm 0,0 km/h (0 Bft) O-NO 69 ° 0 min 0,000 mm 0,0 UV-I 11 W/m² 2,2 °C 3,2 °C 0,0 km/h (0 Bft)
11.10.2019 07:41 3,2 °C 93 % 1021,1 hPa 0,2 mm 0,0 km/h (0 Bft) O-NO 69 ° 0 min 0,000 mm 0,0 UV-I 11 W/m² 2,2 °C 3,2 °C 0,0 km/h (0 Bft)
11.10.2019 07:42 3,3 °C 93 % 1021,1 hPa 0,0 mm 0,0 km/h (0 Bft) O-NO 69 ° 0 min 0,000 mm 0,0 UV-I 11 W/m² 2,3 °C 3,3 °C 0,0 km/h (0 Bft)
11.10.2019 07:43 3,3 °C 93 % 1021,0 hPa 0,0 mm 0,0 km/h (0 Bft) O-NO 69 ° 0 min 0,000 mm 0,0 UV-I 12 W/m² 2,3 °C 3,3 °C 0,0 km/h (0 Bft)
11.10.2019 07:44 3,3 °C 93 % 1021,1 hPa 0,0 mm 0,3 km/h (0 Bft) O-NO 64 ° 0 min 0,000 mm 0,0 UV-I 12 W/m² 2,3 °C 3,3 °C 1,6 km/h (1 Bft)
11.10.2019 07:45 3,3 °C 93 % 1021,1 hPa 0,0 mm 0,0 km/h (0 Bft) O-NO 64 ° 0 min 0,000 mm 0,0 UV-I 12 W/m² 2,3 °C 3,3 °C 0,0 km/h (0 Bft)
11.10.2019 07:46 3,3 °C 93 % 1021,1 hPa 0,0 mm 0,0 km/h (0 Bft) O-NO 64 ° 0 min 0,000 mm 0,0 UV-I 14 W/m² 2,3 °C 3,3 °C 0,0 km/h (0 Bft)
11.10.2019 07:47 3,3 °C 93 % 1021,1 hPa 0,0 mm 0,0 km/h (0 Bft) O-NO 63 ° 0 min 0,000 mm 0,0 UV-I 14 W/m² 2,3 °C 3,3 °C 0,0 km/h (0 Bft)
11.10.2019 07:48 3,3 °C 93 % 1021,0 hPa 0,0 mm 0,0 km/h (0 Bft) O-NO 63 ° 0 min 0,000 mm 0,0 UV-I 16 W/m² 2,3 °C 3,3 °C 0,0 km/h (0 Bft)
11.10.2019 07:49 3,4 °C 93 % 1021,0 hPa 0,0 mm 0,0 km/h (0 Bft) O-NO 63 ° 0 min 0,000 mm 0,0 UV-I 16 W/m² 2,4 °C 3,4 °C 0,0 km/h (0 Bft)
11.10.2019 07:50 3,4 °C 93 % 1021,0 hPa 0,0 mm 0,0 km/h (0 Bft) O-NO 63 ° 0 min 0,000 mm 0,0 UV-I 18 W/m² 2,4 °C 3,4 °C 0,0 km/h (0 Bft)
11.10.2019 07:51 3,4 °C 93 % 1021,0 hPa 0,0 mm 0,0 km/h (0 Bft) O-NO 63 ° 0 min 0,000 mm 0,0 UV-I 18 W/m² 2,4 °C 3,4 °C 0,0 km/h (0 Bft)
11.10.2019 07:52 3,4 °C 93 % 1021,0 hPa 0,0 mm 0,0 km/h (0 Bft) O-NO 63 ° 0 min 0,000 mm 0,0 UV-I 18 W/m² 2,4 °C 3,4 °C 0,0 km/h (0 Bft)
11.10.2019 07:53 3,4 °C 93 % 1021,0 hPa 0,0 mm 0,0 km/h (0 Bft) O-NO 63 ° 0 min 0,000 mm 0,0 UV-I 19 W/m² 2,4 °C 3,4 °C 0,0 km/h (0 Bft)
11.10.2019 07:54 3,5 °C 93 % 1021,0 hPa 0,0 mm 0,0 km/h (0 Bft) O-NO 63 ° 0 min 0,000 mm 0,0 UV-I 19 W/m² 2,5 °C 3,5 °C 0,0 km/h (0 Bft)
11.10.2019 07:55 3,6 °C 93 % 1021,0 hPa 0,0 mm 0,0 km/h (0 Bft) O-NO 63 ° 0 min 0,000 mm 0,0 UV-I 19 W/m² 2,6 °C 3,6 °C 0,0 km/h (0 Bft)
11.10.2019 07:56 3,6 °C 93 % 1021,0 hPa 0,0 mm 0,0 km/h (0 Bft) O-NO 63 ° 0 min 0,000 mm 0,0 UV-I 19 W/m² 2,6 °C 3,6 °C 0,0 km/h (0 Bft)
11.10.2019 07:57 3,6 °C 93 % 1021,0 hPa 0,0 mm 0,0 km/h (0 Bft) O-NO 63 ° 0 min 0,000 mm 0,0 UV-I 21 W/m² 2,6 °C 3,6 °C 0,0 km/h (0 Bft)
11.10.2019 07:58 3,6 °C 93 % 1021,0 hPa 0,0 mm 0,0 km/h (0 Bft) O-NO 63 ° 0 min 0,000 mm 0,0 UV-I 21 W/m² 2,6 °C 3,6 °C 0,0 km/h (0 Bft)
11.10.2019 07:59 3,7 °C 93 % 1021,0 hPa 0,0 mm 0,0 km/h (0 Bft) O-NO 63 ° 0 min 0,000 mm 0,0 UV-I 21 W/m² 2,7 °C 3,7 °C 0,0 km/h (0 Bft)
11.10.2019 08:00 3,7 °C 93 % 1021,0 hPa 0,0 mm 0,0 km/h (0 Bft) O-NO 63 ° 0 min 0,000 mm 0,0 UV-I 21 W/m² 2,7 °C 3,7 °C 0,0 km/h (0 Bft)
11.10.2019 08:01 3,7 °C 93 % 1020,9 hPa 0,0 mm 0,0 km/h (0 Bft) O-NO 62 ° 0 min 0,000 mm 0,0 UV-I 21 W/m² 2,7 °C 3,7 °C 0,0 km/h (0 Bft)
11.10.2019 08:02 3,7 °C 93 % 1020,9 hPa 0,0 mm 0,0 km/h (0 Bft) O-NO 62 ° 0 min 0,000 mm 0,0 UV-I 23 W/m² 2,7 °C 3,7 °C 0,0 km/h (0 Bft)
11.10.2019 08:03 3,7 °C 93 % 1021,0 hPa 0,0 mm 0,0 km/h (0 Bft) NO 42 ° 0 min 0,000 mm 0,0 UV-I 23 W/m² 2,7 °C 3,7 °C 0,0 km/h (0 Bft)
11.10.2019 08:04 3,7 °C 93 % 1021,0 hPa 0,0 mm 1,3 km/h (1 Bft) NO 42 ° 0 min 0,000 mm 0,0 UV-I 23 W/m² 2,7 °C 3,7 °C 4,8 km/h (1 Bft)
11.10.2019 08:05 3,8 °C 93 % 1020,9 hPa 0,0 mm 0,0 km/h (0 Bft) NO 42 ° 0 min 0,000 mm 0,0 UV-I 23 W/m² 2,8 °C 3,8 °C 0,0 km/h (0 Bft)
11.10.2019 08:06 3,8 °C 93 % 1020,9 hPa 0,0 mm 2,1 km/h (1 Bft) NO 42 ° 0 min 0,000 mm 0,0 UV-I 25 W/m² 2,8 °C 3,8 °C 3,2 km/h (1 Bft)
11.10.2019 08:07 3,8 °C 93 % 1020,8 hPa 0,0 mm 0,6 km/h (0 Bft) NO 42 ° 0 min 0,000 mm 0,0 UV-I 25 W/m² 2,8 °C 3,8 °C 3,2 km/h (1 Bft)
11.10.2019 08:08 3,8 °C 93 % 1020,8 hPa 0,0 mm 0,5 km/h (0 Bft) NO 41 ° 0 min 0,000 mm 0,0 UV-I 25 W/m² 2,8 °C 3,8 °C 1,6 km/h (1 Bft)
11.10.2019 08:09 3,8 °C 93 % 1020,8 hPa 0,0 mm 1,8 km/h (1 Bft) NW 306 ° 0 min 0,000 mm 0,0 UV-I 25 W/m² 2,8 °C 3,8 °C 4,8 km/h (1 Bft)
11.10.2019 08:10 3,8 °C 93 % 1020,7 hPa 0,0 mm 1,2 km/h (1 Bft) NW 324 ° 0 min 0,000 mm 0,0 UV-I 25 W/m² 2,8 °C 3,8 °C 3,2 km/h (1 Bft)
11.10.2019 08:11 3,8 °C 93 % 1020,8 hPa 0,0 mm 0,0 km/h (0 Bft) NW 324 ° 0 min 0,000 mm 0,0 UV-I 25 W/m² 2,8 °C 3,8 °C 0,0 km/h (0 Bft)
11.10.2019 08:12 3,8 °C 93 % 1020,7 hPa 0,0 mm 0,0 km/h (0 Bft) NW 324 ° 0 min 0,000 mm 0,0 UV-I 26 W/m² 2,8 °C 3,8 °C 0,0 km/h (0 Bft)
11.10.2019 08:13 3,8 °C 93 % 1020,7 hPa 0,0 mm 0,0 km/h (0 Bft) NW 324 ° 0 min 0,000 mm 0,0 UV-I 26 W/m² 2,8 °C 3,8 °C 0,0 km/h (0 Bft)
11.10.2019 08:14 3,8 °C 93 % 1020,7 hPa 0,0 mm 0,0 km/h (0 Bft) NW 324 ° 0 min 0,000 mm 0,0 UV-I 26 W/m² 2,8 °C 3,8 °C 0,0 km/h (0 Bft)
11.10.2019 08:15 3,8 °C 93 % 1020,7 hPa 0,0 mm 0,0 km/h (0 Bft) NW 324 ° 0 min 0,000 mm 0,0 UV-I 26 W/m² 2,8 °C 3,8 °C 0,0 km/h (0 Bft)
11.10.2019 08:16 3,9 °C 93 % 1020,7 hPa 0,0 mm 0,0 km/h (0 Bft) NW 324 ° 0 min 0,000 mm 0,0 UV-I 26 W/m² 2,9 °C 3,9 °C 0,0 km/h (0 Bft)
11.10.2019 08:17 3,9 °C 93 % 1020,6 hPa 0,0 mm 0,0 km/h (0 Bft) NW 324 ° 0 min 0,000 mm 0,0 UV-I 26 W/m² 2,9 °C 3,9 °C 0,0 km/h (0 Bft)
11.10.2019 08:18 4,0 °C 93 % 1020,7 hPa 0,0 mm 0,0 km/h (0 Bft) NW 324 ° 0 min 0,000 mm 0,0 UV-I 26 W/m² 3,0 °C 4,0 °C 0,0 km/h (0 Bft)
11.10.2019 08:19 4,1 °C 93 % 1020,7 hPa 0,0 mm 0,0 km/h (0 Bft) NW 324 ° 0 min 0,000 mm 0,0 UV-I 26 W/m² 3,1 °C 4,1 °C 0,0 km/h (0 Bft)
11.10.2019 08:20 4,1 °C 93 % 1020,7 hPa 0,0 mm 0,1 km/h (0 Bft) NW 324 ° 0 min 0,000 mm 0,0 UV-I 28 W/m² 3,1 °C 4,1 °C 1,6 km/h (1 Bft)
11.10.2019 08:21 4,2 °C 92 % 1020,7 hPa 0,0 mm 0,0 km/h (0 Bft) NW 324 ° 0 min 0,000 mm 0,0 UV-I 26 W/m² 3,0 °C 4,2 °C 0,0 km/h (0 Bft)
11.10.2019 08:22 4,2 °C 92 % 1020,7 hPa 0,0 mm 0,0 km/h (0 Bft) NW 324 ° 0 min 0,000 mm 0,0 UV-I 26 W/m² 3,0 °C 4,2 °C 0,0 km/h (0 Bft)
11.10.2019 08:23 4,2 °C 92 % 1020,7 hPa 0,0 mm 0,0 km/h (0 Bft) NW 324 ° 0 min 0,000 mm 0,0 UV-I 26 W/m² 3,0 °C 4,2 °C 0,0 km/h (0 Bft)
11.10.2019 08:24 4,3 °C 92 % 1020,7 hPa 0,0 mm 0,0 km/h (0 Bft) NW 324 ° 0 min 0,000 mm 0,0 UV-I 26 W/m² 3,1 °C 4,3 °C 0,0 km/h (0 Bft)
11.10.2019 08:25 4,2 °C 92 % 1020,7 hPa 0,0 mm 0,0 km/h (0 Bft) NW 324 ° 0 min 0,000 mm 0,0 UV-I 26 W/m² 3,0 °C 4,2 °C 0,0 km/h (0 Bft)
11.10.2019 08:26 4,2 °C 92 % 1020,7 hPa 0,0 mm 0,0 km/h (0 Bft) NW 324 ° 0 min 0,000 mm 0,0 UV-I 26 W/m² 3,0 °C 4,2 °C 0,0 km/h (0 Bft)
11.10.2019 08:27 4,2 °C 92 % 1020,7 hPa 0,0 mm 0,1 km/h (0 Bft) NW 324 ° 0 min 0,000 mm 0,0 UV-I 26 W/m² 3,0 °C 4,2 °C 1,6 km/h (1 Bft)
11.10.2019 08:28 4,3 °C 92 % 1020,8 hPa 0,0 mm 0,0 km/h (0 Bft) NW 324 ° 0 min 0,000 mm 0,0 UV-I 26 W/m² 3,1 °C 4,3 °C 0,0 km/h (0 Bft)
11.10.2019 08:29 4,3 °C 92 % 1020,7 hPa 0,0 mm 0,0 km/h (0 Bft) NW 324 ° 0 min 0,000 mm 0,0 UV-I 26 W/m² 3,1 °C 4,3 °C 0,0 km/h (0 Bft)
11.10.2019 08:30 4,3 °C 92 % 1020,7 hPa 0,0 mm 0,0 km/h (0 Bft) NW 324 ° 0 min 0,000 mm 0,0 UV-I 26 W/m² 3,1 °C 4,3 °C 0,0 km/h (0 Bft)
11.10.2019 08:31 4,4 °C 92 % 1020,7 hPa 0,0 mm 0,9 km/h (0 Bft) NW 324 ° 0 min 0,000 mm 0,0 UV-I 26 W/m² 3,2 °C 4,4 °C 3,2 km/h (1 Bft)
11.10.2019 08:32 4,4 °C 92 % 1020,7 hPa 0,0 mm 0,7 km/h (0 Bft) NW 325 ° 0 min 0,000 mm 0,0 UV-I 26 W/m² 3,2 °C 4,4 °C 3,2 km/h (1 Bft)
11.10.2019 08:33 4,4 °C 92 % 1020,7 hPa 0,0 mm 0,0 km/h (0 Bft) NW 325 ° 0 min 0,000 mm 0,0 UV-I 26 W/m² 3,2 °C 4,4 °C 0,0 km/h (0 Bft)
11.10.2019 08:34 4,4 °C 92 % 1020,7 hPa 0,0 mm 0,0 km/h (0 Bft) NW 325 ° 0 min 0,000 mm 0,0 UV-I 26 W/m² 3,2 °C 4,4 °C 0,0 km/h (0 Bft)
11.10.2019 08:35 4,4 °C 92 % 1020,7 hPa 0,0 mm 0,0 km/h (0 Bft) NW 325 ° 0 min 0,000 mm 0,0 UV-I 26 W/m² 3,2 °C 4,4 °C 0,0 km/h (0 Bft)
11.10.2019 08:36 4,4 °C 92 % 1020,8 hPa 0,0 mm 0,1 km/h (0 Bft) NW 325 ° 0 min 0,000 mm 0,0 UV-I 26 W/m² 3,2 °C 4,4 °C 1,6 km/h (1 Bft)
11.10.2019 08:37 4,4 °C 92 % 1020,7 hPa 0,0 mm 0,1 km/h (0 Bft) NW 325 ° 0 min 0,000 mm 0,0 UV-I 26 W/m² 3,2 °C 4,4 °C 1,6 km/h (1 Bft)
11.10.2019 08:38 4,5 °C 92 % 1020,8 hPa 0,0 mm 0,0 km/h (0 Bft) NW 325 ° 0 min 0,000 mm 0,0 UV-I 26 W/m² 3,3 °C 4,5 °C 0,0 km/h (0 Bft)
11.10.2019 08:39 4,6 °C 92 % 1020,8 hPa 0,0 mm 1,3 km/h (1 Bft) NW 325 ° 0 min 0,000 mm 0,0 UV-I 28 W/m² 3,4 °C 4,6 °C 4,8 km/h (1 Bft)
11.10.2019 08:40 4,6 °C 92 % 1020,8 hPa 0,0 mm 1,3 km/h (1 Bft) NW 324 ° 0 min 0,000 mm 0,0 UV-I 28 W/m² 3,4 °C 4,6 °C 3,2 km/h (1 Bft)
11.10.2019 08:41 4,6 °C 92 % 1020,8 hPa 0,0 mm 0,3 km/h (0 Bft) NW 324 ° 0 min 0,000 mm 0,0 UV-I 28 W/m² 3,4 °C 4,6 °C 1,6 km/h (1 Bft)
11.10.2019 08:42 4,6 °C 91 % 1020,8 hPa 0,0 mm 0,9 km/h (0 Bft) NW 326 ° 0 min 0,000 mm 0,0 UV-I 28 W/m² 3,3 °C 4,6 °C 3,2 km/h (1 Bft)
11.10.2019 08:43 4,5 °C 91 % 1020,8 hPa 0,0 mm 0,0 km/h (0 Bft) NW 326 ° 0 min 0,000 mm 0,0 UV-I 28 W/m² 3,2 °C 4,5 °C 0,0 km/h (0 Bft)
11.10.2019 08:44 4,6 °C 91 % 1020,8 hPa 0,0 mm 0,0 km/h (0 Bft) NW 326 ° 0 min 0,000 mm 0,0 UV-I 28 W/m² 3,3 °C 4,6 °C 0,0 km/h (0 Bft)
11.10.2019 08:45 4,7 °C 91 % 1020,7 hPa 0,0 mm 0,0 km/h (0 Bft) NW 326 ° 0 min 0,000 mm 0,0 UV-I 28 W/m² 3,4 °C 4,7 °C 0,0 km/h (0 Bft)
11.10.2019 08:46 4,7 °C 92 % 1020,7 hPa 0,0 mm 0,0 km/h (0 Bft) NW 326 ° 0 min 0,000 mm 0,0 UV-I 28 W/m² 3,5 °C 4,7 °C 0,0 km/h (0 Bft)
11.10.2019 08:47 4,8 °C 91 % 1020,8 hPa 0,0 mm 0,0 km/h (0 Bft) NW 326 ° 0 min 0,000 mm 0,0 UV-I 28 W/m² 3,5 °C 4,8 °C 0,0 km/h (0 Bft)
11.10.2019 08:48 4,8 °C 91 % 1020,7 hPa 0,0 mm 0,0 km/h (0 Bft) NW 326 ° 0 min 0,000 mm 0,0 UV-I 28 W/m² 3,5 °C 4,8 °C 0,0 km/h (0 Bft)
11.10.2019 08:49 4,8 °C 90 % 1020,7 hPa 0,0 mm 0,0 km/h (0 Bft) NW 326 ° 0 min 0,000 mm 0,0 UV-I 28 W/m² 3,3 °C 4,8 °C 0,0 km/h (0 Bft)
11.10.2019 08:50 4,8 °C 91 % 1020,7 hPa 0,0 mm 0,0 km/h (0 Bft) NW 326 ° 0 min 0,000 mm 0,0 UV-I 28 W/m² 3,5 °C 4,8 °C 0,0 km/h (0 Bft)
11.10.2019 08:51 4,9 °C 90 % 1020,7 hPa 0,0 mm 0,0 km/h (0 Bft) NW 326 ° 0 min 0,000 mm 0,0 UV-I 28 W/m² 3,4 °C 4,9 °C 0,0 km/h (0 Bft)
11.10.2019 08:52 4,9 °C 90 % 1020,7 hPa 0,0 mm 0,0 km/h (0 Bft) NW 326 ° 0 min 0,000 mm 0,0 UV-I 28 W/m² 3,4 °C 4,9 °C 0,0 km/h (0 Bft)
11.10.2019 08:53 4,9 °C 90 % 1020,8 hPa 0,0 mm 0,0 km/h (0 Bft) NW 326 ° 0 min 0,000 mm 0,0 UV-I 28 W/m² 3,4 °C 4,9 °C 0,0 km/h (0 Bft)
11.10.2019 08:54 4,9 °C 90 % 1020,8 hPa 0,0 mm 0,0 km/h (0 Bft) NW 326 ° 0 min 0,000 mm 0,0 UV-I 28 W/m² 3,4 °C 4,9 °C 0,0 km/h (0 Bft)
11.10.2019 08:55 4,9 °C 90 % 1020,8 hPa 0,0 mm 0,0 km/h (0 Bft) NW 326 ° 0 min 0,000 mm 0,0 UV-I 30 W/m² 3,4 °C 4,9 °C 0,0 km/h (0 Bft)
11.10.2019 08:56 5,0 °C 90 % 1020,7 hPa 0,0 mm 0,0 km/h (0 Bft) NW 326 ° 0 min 0,000 mm 0,0 UV-I 30 W/m² 3,5 °C 5,0 °C 0,0 km/h (0 Bft)
11.10.2019 08:57 5,1 °C 90 % 1020,7 hPa 0,0 mm 0,0 km/h (0 Bft) NW 326 ° 0 min 0,000 mm 0,0 UV-I 32 W/m² 3,6 °C 5,1 °C 0,0 km/h (0 Bft)
11.10.2019 08:58 5,1 °C 90 % 1020,7 hPa 0,0 mm 0,0 km/h (0 Bft) NW 326 ° 0 min 0,000 mm 0,0 UV-I 32 W/m² 3,6 °C 5,1 °C 0,0 km/h (0 Bft)
11.10.2019 08:59 5,2 °C 90 % 1020,7 hPa 0,0 mm 0,0 km/h (0 Bft) NW 326 ° 0 min 0,000 mm 0,0 UV-I 32 W/m² 3,7 °C 5,2 °C 0,0 km/h (0 Bft)
11.10.2019 09:00 5,3 °C 90 % 1020,7 hPa 0,0 mm 0,0 km/h (0 Bft) NW 326 ° 0 min 0,000 mm 0,0 UV-I 33 W/m² 3,8 °C 5,3 °C 0,0 km/h (0 Bft)
11.10.2019 09:01 5,3 °C 90 % 1020,7 hPa 0,0 mm 0,0 km/h (0 Bft) NW 326 ° 0 min 0,000 mm 0,0 UV-I 35 W/m² 3,8 °C 5,3 °C 0,0 km/h (0 Bft)
11.10.2019 09:02 5,4 °C 89 % 1020,7 hPa 0,0 mm 0,0 km/h (0 Bft) NW 326 ° 0 min 0,000 mm 0,0 UV-I 37 W/m² 3,7 °C 5,4 °C 0,0 km/h (0 Bft)
11.10.2019 09:03 5,3 °C 89 % 1020,7 hPa 0,0 mm 0,0 km/h (0 Bft) NW 326 ° 0 min 0,000 mm 0,0 UV-I 39 W/m² 3,6 °C 5,3 °C 0,0 km/h (0 Bft)
11.10.2019 09:04 5,4 °C 89 % 1020,8 hPa 0,0 mm 0,0 km/h (0 Bft) NW 326 ° 0 min 0,000 mm 0,0 UV-I 40 W/m² 3,7 °C 5,4 °C 0,0 km/h (0 Bft)
11.10.2019 09:05 5,4 °C 90 % 1020,8 hPa 0,0 mm 0,0 km/h (0 Bft) NW 326 ° 0 min 0,000 mm 0,0 UV-I 40 W/m² 3,9 °C 5,4 °C 0,0 km/h (0 Bft)
11.10.2019 09:06 5,6 °C 89 % 1020,8 hPa 0,0 mm 0,0 km/h (0 Bft) NW 326 ° 0 min 0,000 mm 0,0 UV-I 42 W/m² 3,9 °C 5,6 °C 0,0 km/h (0 Bft)
11.10.2019 09:07 5,6 °C 89 % 1020,8 hPa 0,0 mm 0,0 km/h (0 Bft) NW 326 ° 0 min 0,000 mm 0,0 UV-I 44 W/m² 3,9 °C 5,6 °C 0,0 km/h (0 Bft)
11.10.2019 09:08 5,6 °C 89 % 1020,9 hPa 0,0 mm 0,0 km/h (0 Bft) NW 326 ° 0 min 0,000 mm 0,0 UV-I 46 W/m² 3,9 °C 5,6 °C 0,0 km/h (0 Bft)
11.10.2019 09:09 5,6 °C 90 % 1020,8 hPa 0,0 mm 0,0 km/h (0 Bft) NW 326 ° 0 min 0,000 mm 0,0 UV-I 47 W/m² 4,1 °C 5,6 °C 0,0 km/h (0 Bft)
11.10.2019 09:10 5,6 °C 89 % 1020,9 hPa 0,0 mm 0,0 km/h (0 Bft) NW 326 ° 0 min 0,000 mm 0,0 UV-I 47 W/m² 3,9 °C 5,6 °C 0,0 km/h (0 Bft)
11.10.2019 09:11 5,6 °C 90 % 1020,9 hPa 0,0 mm 0,0 km/h (0 Bft) NW 326 ° 0 min 0,000 mm 0,0 UV-I 49 W/m² 4,1 °C 5,6 °C 0,0 km/h (0 Bft)
11.10.2019 09:12 5,7 °C 90 % 1020,9 hPa 0,0 mm 0,0 km/h (0 Bft) NW 326 ° 0 min 0,000 mm 0,0 UV-I 51 W/m² 4,2 °C 5,7 °C 0,0 km/h (0 Bft)
11.10.2019 09:13 5,9 °C 89 % 1021,0 hPa 0,0 mm 0,0 km/h (0 Bft) NW 326 ° 0 min 0,000 mm 0,0 UV-I 53 W/m² 4,2 °C 5,9 °C 0,0 km/h (0 Bft)
11.10.2019 09:14 6,1 °C 89 % 1021,0 hPa 0,0 mm 0,0 km/h (0 Bft) NW 326 ° 0 min 0,000 mm 0,7 UV-I 60 W/m² 4,4 °C 6,1 °C 0,0 km/h (0 Bft)
11.10.2019 09:15 6,2 °C 89 % 1021,0 hPa 0,0 mm 0,0 km/h (0 Bft) NW 326 ° 0 min 0,000 mm 0,8 UV-I 67 W/m² 4,5 °C 6,2 °C 0,0 km/h (0 Bft)
11.10.2019 09:16 6,3 °C 89 % 1021,0 hPa 0,0 mm 0,0 km/h (0 Bft) NW 326 ° 0 min 0,000 mm 0,8 UV-I 67 W/m² 4,6 °C 6,3 °C 0,0 km/h (0 Bft)
11.10.2019 09:17 6,4 °C 87 % 1021,0 hPa 0,0 mm 0,0 km/h (0 Bft) NW 326 ° 0 min 0,000 mm 0,8 UV-I 77 W/m² 4,4 °C 6,4 °C 0,0 km/h (0 Bft)
11.10.2019 09:18 6,6 °C 87 % 1021,0 hPa 0,0 mm 0,0 km/h (0 Bft) NW 326 ° 0 min 0,000 mm 0,8 UV-I 83 W/m² 4,6 °C 6,6 °C 0,0 km/h (0 Bft)
11.10.2019 09:19 6,7 °C 86 % 1021,0 hPa 0,0 mm 0,0 km/h (0 Bft) NW 326 ° 0 min 0,000 mm 0,9 UV-I 88 W/m² 4,5 °C 6,7 °C 0,0 km/h (0 Bft)
11.10.2019 09:20 6,7 °C 86 % 1021,1 hPa 0,0 mm 0,0 km/h (0 Bft) NW 326 ° 0 min 0,000 mm 0,9 UV-I 91 W/m² 4,5 °C 6,7 °C 0,0 km/h (0 Bft)
11.10.2019 09:21 6,8 °C 86 % 1021,1 hPa 0,0 mm 0,0 km/h (0 Bft) NW 326 ° 0 min 0,000 mm 0,8 UV-I 90 W/m² 4,6 °C 6,8 °C 0,0 km/h (0 Bft)
11.10.2019 09:22 6,9 °C 86 % 1021,2 hPa 0,0 mm 0,0 km/h (0 Bft) NW 326 ° 0 min 0,000 mm 0,8 UV-I 86 W/m² 4,7 °C 6,9 °C 0,0 km/h (0 Bft)
11.10.2019 09:23 6,9 °C 85 % 1021,1 hPa 0,0 mm 0,0 km/h (0 Bft) NW 326 ° 0 min 0,000 mm 0,8 UV-I 84 W/m² 4,6 °C 6,9 °C 0,0 km/h (0 Bft)
11.10.2019 09:24 7,1 °C 85 % 1021,2 hPa 0,0 mm 0,0 km/h (0 Bft) NW 326 ° 0 min 0,000 mm 0,8 UV-I 81 W/m² 4,8 °C 7,1 °C 0,0 km/h (0 Bft)
11.10.2019 09:25 7,2 °C 85 % 1021,2 hPa 0,0 mm 0,0 km/h (0 Bft) NW 326 ° 0 min 0,000 mm 0,8 UV-I 79 W/m² 4,9 °C 7,2 °C 0,0 km/h (0 Bft)
11.10.2019 09:26 7,2 °C 85 % 1021,2 hPa 0,0 mm 0,0 km/h (0 Bft) NW 326 ° 0 min 0,000 mm 0,8 UV-I 76 W/m² 4,9 °C 7,2 °C 0,0 km/h (0 Bft)
11.10.2019 09:27 7,3 °C 84 % 1021,3 hPa 0,0 mm 0,0 km/h (0 Bft) NW 326 ° 0 min 0,000 mm 0,8 UV-I 76 W/m² 4,8 °C 7,3 °C 0,0 km/h (0 Bft)
11.10.2019 09:28 7,3 °C 84 % 1021,3 hPa 0,0 mm 0,0 km/h (0 Bft) NW 326 ° 0 min 0,000 mm 0,8 UV-I 76 W/m² 4,8 °C 7,3 °C 0,0 km/h (0 Bft)
11.10.2019 09:29 7,2 °C 85 % 1021,4 hPa 0,0 mm 0,0 km/h (0 Bft) NW 326 ° 0 min 0,000 mm 0,8 UV-I 76 W/m² 4,9 °C 7,2 °C 0,0 km/h (0 Bft)
11.10.2019 09:30 7,2 °C 85 % 1021,4 hPa 0,0 mm 0,0 km/h (0 Bft) NW 326 ° 0 min 0,000 mm 0,8 UV-I 76 W/m² 4,9 °C 7,2 °C 0,0 km/h (0 Bft)
11.10.2019 09:31 7,3 °C 84 % 1021,4 hPa 0,0 mm 0,0 km/h (0 Bft) NW 326 ° 0 min 0,000 mm 0,8 UV-I 77 W/m² 4,8 °C 7,3 °C 0,0 km/h (0 Bft)
11.10.2019 09:32 7,4 °C 84 % 1021,4 hPa 0,0 mm 0,0 km/h (0 Bft) NW 326 ° 0 min 0,000 mm 0,8 UV-I 79 W/m² 4,9 °C 7,4 °C 0,0 km/h (0 Bft)
11.10.2019 09:33 7,4 °C 84 % 1021,4 hPa 0,0 mm 0,0 km/h (0 Bft) NW 326 ° 0 min 0,000 mm 0,8 UV-I 81 W/m² 4,9 °C 7,4 °C 0,0 km/h (0 Bft)
11.10.2019 09:34 7,4 °C 84 % 1021,5 hPa 0,0 mm 0,0 km/h (0 Bft) NW 326 ° 0 min 0,000 mm 0,9 UV-I 84 W/m² 4,9 °C 7,4 °C 0,0 km/h (0 Bft)
11.10.2019 09:35 7,5 °C 84 % 1021,5 hPa 0,0 mm 0,0 km/h (0 Bft) NW 326 ° 0 min 0,000 mm 0,9 UV-I 88 W/m² 5,0 °C 7,5 °C 0,0 km/h (0 Bft)
11.10.2019 09:36 7,5 °C 84 % 1021,5 hPa 0,0 mm 0,0 km/h (0 Bft) NW 326 ° 0 min 0,000 mm 0,9 UV-I 90 W/m² 5,0 °C 7,5 °C 0,0 km/h (0 Bft)
11.10.2019 09:37 7,5 °C 85 % 1021,5 hPa 0,0 mm 0,0 km/h (0 Bft) NW 326 ° 0 min 0,000 mm 0,9 UV-I 95 W/m² 5,1 °C 7,5 °C 0,0 km/h (0 Bft)
11.10.2019 09:38 7,4 °C 85 % 1021,5 hPa 0,0 mm 0,0 km/h (0 Bft) NW 326 ° 0 min 0,000 mm 0,9 UV-I 93 W/m² 5,0 °C 7,4 °C 0,0 km/h (0 Bft)
11.10.2019 09:39 7,3 °C 86 % 1021,5 hPa 0,0 mm 0,0 km/h (0 Bft) NW 326 ° 0 min 0,000 mm 0,9 UV-I 93 W/m² 5,1 °C 7,3 °C 0,0 km/h (0 Bft)
11.10.2019 09:40 7,4 °C 86 % 1021,5 hPa 0,0 mm 0,0 km/h (0 Bft) NW 326 ° 0 min 0,000 mm 0,9 UV-I 90 W/m² 5,2 °C 7,4 °C 0,0 km/h (0 Bft)
11.10.2019 09:41 7,4 °C 87 % 1021,5 hPa 0,0 mm 0,0 km/h (0 Bft) NW 326 ° 0 min 0,000 mm 0,9 UV-I 93 W/m² 5,4 °C 7,4 °C 0,0 km/h (0 Bft)
11.10.2019 09:42 7,6 °C 87 % 1021,6 hPa 0,0 mm 0,0 km/h (0 Bft) NW 326 ° 0 min 0,000 mm 0,9 UV-I 93 W/m² 5,6 °C 7,6 °C 0,0 km/h (0 Bft)
11.10.2019 09:43 7,7 °C 87 % 1021,6 hPa 0,0 mm 0,0 km/h (0 Bft) NW 326 ° 0 min 0,000 mm 0,9 UV-I 91 W/m² 5,7 °C 7,7 °C 0,0 km/h (0 Bft)
11.10.2019 09:44 7,8 °C 86 % 1021,6 hPa 0,0 mm 0,0 km/h (0 Bft) NW 326 ° 0 min 0,000 mm 1,0 UV-I 91 W/m² 5,6 °C 7,8 °C 0,0 km/h (0 Bft)
11.10.2019 09:45 7,9 °C 86 % 1021,6 hPa 0,0 mm 0,0 km/h (0 Bft) NW 326 ° 0 min 0,000 mm 1,0 UV-I 97 W/m² 5,7 °C 7,9 °C 0,0 km/h (0 Bft)
11.10.2019 09:46 7,9 °C 85 % 1021,6 hPa 0,0 mm 0,0 km/h (0 Bft) NW 326 ° 0 min 0,000 mm 1,0 UV-I 98 W/m² 5,5 °C 7,9 °C 0,0 km/h (0 Bft)
11.10.2019 09:47 8,0 °C 84 % 1021,6 hPa 0,0 mm 0,0 km/h (0 Bft) NW 326 ° 0 min 0,000 mm 1,0 UV-I 97 W/m² 5,5 °C 8,0 °C 0,0 km/h (0 Bft)
11.10.2019 09:48 8,1 °C 84 % 1021,6 hPa 0,0 mm 0,0 km/h (0 Bft) NW 326 ° 0 min 0,000 mm 1,0 UV-I 97 W/m² 5,6 °C 8,1 °C 0,0 km/h (0 Bft)
11.10.2019 09:49 8,1 °C 84 % 1021,6 hPa 0,0 mm 0,0 km/h (0 Bft) NW 326 ° 0 min 0,000 mm 1,0 UV-I 102 W/m² 5,6 °C 8,1 °C 0,0 km/h (0 Bft)
11.10.2019 09:50 8,1 °C 85 % 1021,6 hPa 0,0 mm 0,0 km/h (0 Bft) NW 326 ° 0 min 0,000 mm 1,1 UV-I 107 W/m² 5,7 °C 8,1 °C 0,0 km/h (0 Bft)
11.10.2019 09:51 8,1 °C 85 % 1021,6 hPa 0,0 mm 0,0 km/h (0 Bft) NW 326 ° 0 min 0,000 mm 1,1 UV-I 113 W/m² 5,7 °C 8,1 °C 0,0 km/h (0 Bft)
11.10.2019 09:52 8,2 °C 85 % 1021,6 hPa 0,0 mm 0,0 km/h (0 Bft) NW 326 ° 0 min 0,000 mm 1,1 UV-I 114 W/m² 5,8 °C 8,2 °C 0,0 km/h (0 Bft)
11.10.2019 09:53 8,3 °C 84 % 1021,6 hPa 0,0 mm 0,0 km/h (0 Bft) NW 326 ° 0 min 0,000 mm 1,1 UV-I 118 W/m² 5,8 °C 8,3 °C 0,0 km/h (0 Bft)
11.10.2019 09:54 8,4 °C 84 % 1021,7 hPa 0,0 mm 0,0 km/h (0 Bft) W-SW 238 ° 0 min 0,000 mm 1,1 UV-I 120 W/m² 5,9 °C 8,4 °C 0,0 km/h (0 Bft)
11.10.2019 09:55 8,5 °C 84 % 1021,7 hPa 0,0 mm 0,0 km/h (0 Bft) W-SW 238 ° 0 min 0,000 mm 1,1 UV-I 125 W/m² 6,0 °C 8,5 °C 0,0 km/h (0 Bft)
11.10.2019 09:56 8,7 °C 85 % 1021,7 hPa 0,0 mm 4,3 km/h (1 Bft) SW 236 ° 0 min 0,000 mm 1,1 UV-I 127 W/m² 6,3 °C 8,7 °C 4,8 km/h (1 Bft)
11.10.2019 09:57 8,7 °C 85 % 1021,7 hPa 0,0 mm 3,1 km/h (1 Bft) SW 236 ° 0 min 0,000 mm 1,1 UV-I 128 W/m² 6,3 °C 8,7 °C 4,8 km/h (1 Bft)
11.10.2019 09:58 8,8 °C 84 % 1021,7 hPa 0,0 mm 1,0 km/h (0 Bft) SW 236 ° 0 min 0,000 mm 1,1 UV-I 127 W/m² 6,2 °C 8,8 °C 3,2 km/h (1 Bft)
11.10.2019 09:59 8,8 °C 83 % 1021,7 hPa 0,0 mm 2,8 km/h (1 Bft) SW 236 ° 0 min 0,000 mm 1,1 UV-I 125 W/m² 6,1 °C 8,8 °C 4,8 km/h (1 Bft)
11.10.2019 10:00 8,9 °C 83 % 1021,8 hPa 0,0 mm 1,4 km/h (1 Bft) SW 236 ° 0 min 0,000 mm 1,1 UV-I 125 W/m² 6,2 °C 8,9 °C 3,2 km/h (1 Bft)
11.10.2019 10:01 9,0 °C 84 % 1021,8 hPa 0,0 mm 0,0 km/h (0 Bft) SW 236 ° 0 min 0,025 mm 1,1 UV-I 118 W/m² 6,4 °C 9,0 °C 0,0 km/h (0 Bft)
11.10.2019 10:02 9,1 °C 84 % 1021,8 hPa 0,0 mm 0,0 km/h (0 Bft) SW 236 ° 0 min 0,000 mm 1,1 UV-I 114 W/m² 6,5 °C 9,1 °C 0,0 km/h (0 Bft)
11.10.2019 10:03 9,1 °C 84 % 1021,9 hPa 0,0 mm 0,0 km/h (0 Bft) SW 236 ° 0 min 0,000 mm 1,1 UV-I 111 W/m² 6,5 °C 9,1 °C 0,0 km/h (0 Bft)
11.10.2019 10:04 9,1 °C 84 % 1022,0 hPa 0,0 mm 0,0 km/h (0 Bft) SW 236 ° 0 min 0,000 mm 1,1 UV-I 109 W/m² 6,5 °C 9,1 °C 0,0 km/h (0 Bft)
11.10.2019 10:05 9,2 °C 84 % 1021,9 hPa 0,0 mm 0,0 km/h (0 Bft) SW 236 ° 0 min 0,000 mm 1,1 UV-I 109 W/m² 6,6 °C 9,2 °C 0,0 km/h (0 Bft)
11.10.2019 10:06 9,2 °C 84 % 1022,0 hPa 0,0 mm 2,2 km/h (1 Bft) SW 236 ° 0 min 0,000 mm 1,1 UV-I 109 W/m² 6,6 °C 9,2 °C 4,8 km/h (1 Bft)
11.10.2019 10:07 9,3 °C 84 % 1021,9 hPa 0,0 mm 3,4 km/h (1 Bft) SW 236 ° 0 min 0,000 mm 1,1 UV-I 107 W/m² 6,7 °C 9,3 °C 4,8 km/h (1 Bft)
11.10.2019 10:08 9,4 °C 83 % 1021,9 hPa 0,0 mm 2,1 km/h (1 Bft) SW 236 ° 0 min 0,000 mm 1,1 UV-I 109 W/m² 6,7 °C 9,4 °C 3,2 km/h (1 Bft)
11.10.2019 10:09 9,4 °C 83 % 1021,9 hPa 0,0 mm 2,0 km/h (1 Bft) SW 236 ° 0 min 0,000 mm 1,2 UV-I 109 W/m² 6,7 °C 9,4 °C 3,2 km/h (1 Bft)
11.10.2019 10:10 9,5 °C 82 % 1022,0 hPa 0,0 mm 0,0 km/h (0 Bft) SW 236 ° 0 min 0,000 mm 1,2 UV-I 109 W/m² 6,6 °C 9,5 °C 0,0 km/h (0 Bft)
11.10.2019 10:11 9,6 °C 83 % 1022,0 hPa 0,0 mm 0,0 km/h (0 Bft) SW 236 ° 0 min 0,000 mm 1,2 UV-I 111 W/m² 6,9 °C 9,6 °C 0,0 km/h (0 Bft)
11.10.2019 10:12 9,6 °C 82 % 1022,0 hPa 0,0 mm 0,0 km/h (0 Bft) SW 236 ° 0 min 0,000 mm 1,2 UV-I 114 W/m² 6,7 °C 9,6 °C 0,0 km/h (0 Bft)
11.10.2019 10:13 9,7 °C 82 % 1022,0 hPa 0,0 mm 0,0 km/h (0 Bft) SW 236 ° 0 min 0,000 mm 1,2 UV-I 120 W/m² 6,8 °C 9,7 °C 0,0 km/h (0 Bft)
11.10.2019 10:14 9,7 °C 82 % 1021,9 hPa 0,0 mm 0,0 km/h (0 Bft) SW 236 ° 0 min 0,000 mm 1,2 UV-I 116 W/m² 6,8 °C 9,7 °C 0,0 km/h (0 Bft)
11.10.2019 10:15 9,7 °C 82 % 1022,0 hPa 0,0 mm 0,0 km/h (0 Bft) SW 236 ° 0 min 0,000 mm 1,2 UV-I 116 W/m² 6,8 °C 9,7 °C 0,0 km/h (0 Bft)
11.10.2019 10:16 9,7 °C 81 % 1022,0 hPa 0,0 mm 0,0 km/h (0 Bft) SW 236 ° 0 min 0,000 mm 1,2 UV-I 118 W/m² 6,6 °C 9,7 °C 0,0 km/h (0 Bft)
11.10.2019 10:17 9,8 °C 81 % 1022,0 hPa 0,0 mm 0,0 km/h (0 Bft) SW 236 ° 0 min 0,000 mm 1,2 UV-I 121 W/m² 6,7 °C 9,8 °C 0,0 km/h (0 Bft)
11.10.2019 10:18 9,8 °C 81 % 1022,0 hPa 0,0 mm 0,0 km/h (0 Bft) SW 236 ° 0 min 0,000 mm 1,3 UV-I 128 W/m² 6,7 °C 9,8 °C 0,0 km/h (0 Bft)
11.10.2019 10:19 9,9 °C 81 % 1022,0 hPa 0,0 mm 1,9 km/h (1 Bft) SW 236 ° 0 min 0,000 mm 1,3 UV-I 128 W/m² 6,8 °C 9,9 °C 4,8 km/h (1 Bft)
11.10.2019 10:20 9,9 °C 81 % 1022,1 hPa 0,0 mm 0,7 km/h (0 Bft) SW 236 ° 0 min 0,000 mm 1,2 UV-I 127 W/m² 6,8 °C 9,9 °C 1,6 km/h (1 Bft)
11.10.2019 10:21 10,1 °C 78 % 1022,1 hPa 0,0 mm 1,2 km/h (1 Bft) SW 236 ° 0 min 0,000 mm 1,2 UV-I 125 W/m² 6,4 °C 10,1 °C 3,2 km/h (1 Bft)
11.10.2019 10:22 10,2 °C 77 % 1022,1 hPa 0,0 mm 0,6 km/h (0 Bft) SW 236 ° 0 min 0,000 mm 1,2 UV-I 123 W/m² 6,4 °C 10,2 °C 1,6 km/h (1 Bft)
11.10.2019 10:23 10,3 °C 76 % 1022,2 hPa 0,0 mm 0,9 km/h (0 Bft) SW 236 ° 0 min 0,000 mm 1,2 UV-I 121 W/m² 6,3 °C 10,3 °C 3,2 km/h (1 Bft)
11.10.2019 10:24 10,3 °C 77 % 1022,2 hPa 0,0 mm 0,1 km/h (0 Bft) SW 236 ° 0 min 0,000 mm 1,2 UV-I 120 W/m² 6,4 °C 10,3 °C 1,6 km/h (1 Bft)
11.10.2019 10:25 10,3 °C 77 % 1022,2 hPa 0,0 mm 0,1 km/h (0 Bft) SW 236 ° 0 min 0,000 mm 1,2 UV-I 116 W/m² 6,4 °C 10,3 °C 1,6 km/h (1 Bft)
11.10.2019 10:26 10,4 °C 77 % 1022,2 hPa 0,0 mm 0,0 km/h (0 Bft) SW 236 ° 0 min 0,000 mm 1,2 UV-I 111 W/m² 6,5 °C 10,4 °C 0,0 km/h (0 Bft)
11.10.2019 10:27 10,4 °C 76 % 1022,2 hPa 0,0 mm 0,0 km/h (0 Bft) SW 236 ° 0 min 0,000 mm 1,2 UV-I 105 W/m² 6,4 °C 10,4 °C 0,0 km/h (0 Bft)
11.10.2019 10:28 10,4 °C 76 % 1022,3 hPa 0,0 mm 0,0 km/h (0 Bft) SW 236 ° 0 min 0,000 mm 1,2 UV-I 105 W/m² 6,4 °C 10,4 °C 0,0 km/h (0 Bft)
11.10.2019 10:29 10,4 °C 77 % 1022,3 hPa 0,0 mm 0,0 km/h (0 Bft) SW 236 ° 0 min 0,000 mm 1,2 UV-I 102 W/m² 6,5 °C 10,4 °C 0,0 km/h (0 Bft)
11.10.2019 10:30 10,4 °C 77 % 1022,3 hPa 0,0 mm 0,0 km/h (0 Bft) SW 236 ° 0 min 0,000 mm 1,2 UV-I 102 W/m² 6,5 °C 10,4 °C 0,0 km/h (0 Bft)
11.10.2019 10:31 10,4 °C 77 % 1022,3 hPa 0,0 mm 0,0 km/h (0 Bft) SW 236 ° 0 min 0,000 mm 1,2 UV-I 104 W/m² 6,5 °C 10,4 °C 0,0 km/h (0 Bft)
11.10.2019 10:32 10,3 °C 76 % 1022,3 hPa 0,0 mm 0,0 km/h (0 Bft) SW 236 ° 0 min 0,000 mm 1,2 UV-I 107 W/m² 6,3 °C 10,3 °C 0,0 km/h (0 Bft)
11.10.2019 10:33 10,4 °C 75 % 1022,3 hPa 0,0 mm 0,0 km/h (0 Bft) SW 236 ° 0 min 0,000 mm 1,2 UV-I 107 W/m² 6,2 °C 10,4 °C 0,0 km/h (0 Bft)
11.10.2019 10:34 10,3 °C 76 % 1022,4 hPa 0,0 mm 0,0 km/h (0 Bft) SW 236 ° 0 min 0,000 mm 1,2 UV-I 105 W/m² 6,3 °C 10,3 °C 0,0 km/h (0 Bft)
11.10.2019 10:35 10,3 °C 77 % 1022,4 hPa 0,0 mm 0,0 km/h (0 Bft) SW 236 ° 0 min 0,000 mm 1,3 UV-I 105 W/m² 6,4 °C 10,3 °C 0,0 km/h (0 Bft)
11.10.2019 10:36 10,3 °C 76 % 1022,4 hPa 0,0 mm 0,0 km/h (0 Bft) SW 236 ° 0 min 0,000 mm 1,3 UV-I 104 W/m² 6,3 °C 10,3 °C 0,0 km/h (0 Bft)
11.10.2019 10:37 10,3 °C 74 % 1022,4 hPa 0,0 mm 0,0 km/h (0 Bft) SW 236 ° 0 min 0,000 mm 1,3 UV-I 100 W/m² 5,9 °C 10,3 °C 0,0 km/h (0 Bft)
11.10.2019 10:38 10,3 °C 77 % 1022,4 hPa 0,0 mm 0,0 km/h (0 Bft) SW 236 ° 0 min 0,000 mm 1,3 UV-I 100 W/m² 6,4 °C 10,3 °C 0,0 km/h (0 Bft)
11.10.2019 10:39 10,3 °C 76 % 1022,4 hPa 0,0 mm 0,0 km/h (0 Bft) SW 236 ° 0 min 0,000 mm 1,3 UV-I 100 W/m² 6,3 °C 10,3 °C 0,0 km/h (0 Bft)
11.10.2019 10:40 10,2 °C 74 % 1022,4 hPa 0,0 mm 0,0 km/h (0 Bft) SW 236 ° 0 min 0,000 mm 1,3 UV-I 102 W/m² 5,8 °C 10,2 °C 0,0 km/h (0 Bft)
11.10.2019 10:41 10,2 °C 73 % 1022,4 hPa 0,0 mm 0,0 km/h (0 Bft) SW 236 ° 0 min 0,000 mm 1,3 UV-I 102 W/m² 5,6 °C 10,2 °C 0,0 km/h (0 Bft)
11.10.2019 10:42 10,2 °C 73 % 1022,4 hPa 0,0 mm 0,0 km/h (0 Bft) SW 236 ° 0 min 0,000 mm 1,3 UV-I 107 W/m² 5,6 °C 10,2 °C 0,0 km/h (0 Bft)
11.10.2019 10:43 10,3 °C 73 % 1022,5 hPa 0,0 mm 0,0 km/h (0 Bft) SW 236 ° 0 min 0,000 mm 1,3 UV-I 105 W/m² 5,7 °C 10,3 °C 0,0 km/h (0 Bft)
11.10.2019 10:44 10,3 °C 74 % 1022,5 hPa 0,0 mm 0,0 km/h (0 Bft) SW 236 ° 0 min 0,000 mm 1,3 UV-I 104 W/m² 5,9 °C 10,3 °C 0,0 km/h (0 Bft)
11.10.2019 10:45 10,3 °C 72 % 1022,4 hPa 0,0 mm 0,0 km/h (0 Bft) SW 236 ° 0 min 0,000 mm 1,4 UV-I 95 W/m² 5,5 °C 10,3 °C 0,0 km/h (0 Bft)
11.10.2019 10:46 10,4 °C 71 % 1022,5 hPa 0,0 mm 0,0 km/h (0 Bft) SW 236 ° 0 min 0,000 mm 1,4 UV-I 91 W/m² 5,4 °C 10,4 °C 0,0 km/h (0 Bft)
11.10.2019 10:47 10,4 °C 70 % 1022,5 hPa 0,0 mm 0,0 km/h (0 Bft) SW 236 ° 0 min 0,000 mm 1,4 UV-I 95 W/m² 5,2 °C 10,4 °C 0,0 km/h (0 Bft)
11.10.2019 10:48 10,4 °C 70 % 1022,5 hPa 0,0 mm 0,0 km/h (0 Bft) SW 236 ° 0 min 0,000 mm 1,4 UV-I 98 W/m² 5,2 °C 10,4 °C 0,0 km/h (0 Bft)
11.10.2019 10:49 10,6 °C 70 % 1022,5 hPa 0,0 mm 0,0 km/h (0 Bft) SW 236 ° 0 min 0,000 mm 1,5 UV-I 102 W/m² 5,4 °C 10,6 °C 0,0 km/h (0 Bft)
11.10.2019 10:50 10,6 °C 69 % 1022,6 hPa 0,0 mm 0,0 km/h (0 Bft) SW 236 ° 0 min 0,000 mm 1,5 UV-I 113 W/m² 5,2 °C 10,6 °C 0,0 km/h (0 Bft)
11.10.2019 10:51 10,7 °C 68 % 1022,6 hPa 0,0 mm 0,0 km/h (0 Bft) SW 236 ° 0 min 0,000 mm 1,6 UV-I 144 W/m² 5,0 °C 10,7 °C 0,0 km/h (0 Bft)
11.10.2019 10:52 10,7 °C 70 % 1022,5 hPa 0,0 mm 0,0 km/h (0 Bft) SW 236 ° 0 min 0,000 mm 1,7 UV-I 178 W/m² 5,5 °C 10,7 °C 0,0 km/h (0 Bft)
11.10.2019 10:53 10,8 °C 71 % 1022,5 hPa 0,0 mm 0,0 km/h (0 Bft) SW 236 ° 0 min 0,000 mm 1,8 UV-I 197 W/m² 5,8 °C 10,8 °C 0,0 km/h (0 Bft)
11.10.2019 10:54 10,8 °C 73 % 1022,4 hPa 0,0 mm 0,0 km/h (0 Bft) SW 236 ° 0 min 0,000 mm 1,9 UV-I 251 W/m² 6,2 °C 10,8 °C 0,0 km/h (0 Bft)
11.10.2019 10:55 10,8 °C 73 % 1022,5 hPa 0,0 mm 0,0 km/h (0 Bft) SW 236 ° 0 min 0,000 mm 2,0 UV-I 318 W/m² 6,2 °C 10,8 °C 0,0 km/h (0 Bft)
11.10.2019 10:56 10,9 °C 74 % 1022,4 hPa 0,0 mm 0,0 km/h (0 Bft) SW 236 ° 0 min 0,000 mm 2,2 UV-I 413 W/m² 6,5 °C 10,9 °C 0,0 km/h (0 Bft)
11.10.2019 10:57 11,0 °C 73 % 1022,4 hPa 0,0 mm 2,7 km/h (1 Bft) SW 226 ° 0 min 0,000 mm 2,2 UV-I 439 W/m² 6,4 °C 11,0 °C 4,8 km/h (1 Bft)
11.10.2019 10:58 11,0 °C 74 % 1022,3 hPa 0,0 mm 1,5 km/h (1 Bft) SW 226 ° 0 min 0,000 mm 2,1 UV-I 383 W/m² 6,5 °C 11,0 °C 3,2 km/h (1 Bft)
11.10.2019 10:59 10,9 °C 76 % 1022,3 hPa 0,0 mm 1,5 km/h (1 Bft) SW 226 ° 0 min 0,000 mm 1,9 UV-I 294 W/m² 6,8 °C 10,9 °C 3,2 km/h (1 Bft)
11.10.2019 11:00 10,8 °C 76 % 1022,3 hPa 0,0 mm 1,4 km/h (1 Bft) SW 226 ° 0 min 0,000 mm 2,1 UV-I 315 W/m² 6,7 °C 10,8 °C 3,2 km/h (1 Bft)
11.10.2019 11:01 10,9 °C 75 % 1022,3 hPa 0,0 mm 2,1 km/h (1 Bft) SW 226 ° 0 min 0,077 mm 2,2 UV-I 336 W/m² 6,6 °C 10,9 °C 3,2 km/h (1 Bft)
11.10.2019 11:02 10,9 °C 72 % 1022,1 hPa 0,0 mm 1,7 km/h (1 Bft) SW 226 ° 0 min 0,000 mm 2,3 UV-I 336 W/m² 6,1 °C 10,9 °C 3,2 km/h (1 Bft)
11.10.2019 11:03 10,9 °C 73 % 1022,2 hPa 0,0 mm 1,1 km/h (1 Bft) SW 226 ° 0 min 0,000 mm 2,4 UV-I 454 W/m² 6,3 °C 10,9 °C 3,2 km/h (1 Bft)
11.10.2019 11:04 10,9 °C 73 % 1022,2 hPa 0,0 mm 0,1 km/h (0 Bft) S-SW 211 ° 0 min 0,000 mm 2,3 UV-I 420 W/m² 6,3 °C 10,9 °C 1,6 km/h (1 Bft)
11.10.2019 11:05 10,9 °C 73 % 1022,1 hPa 0,0 mm 0,0 km/h (0 Bft) S-SW 211 ° 0 min 0,000 mm 2,2 UV-I 404 W/m² 6,3 °C 10,9 °C 0,0 km/h (0 Bft)
11.10.2019 11:06 10,8 °C 74 % 1022,0 hPa 0,0 mm 0,0 km/h (0 Bft) S-SW 211 ° 0 min 0,000 mm 2,4 UV-I 478 W/m² 6,4 °C 10,8 °C 0,0 km/h (0 Bft)
11.10.2019 11:07 10,9 °C 72 % 1022,1 hPa 0,0 mm 0,0 km/h (0 Bft) S-SW 211 ° 0 min 0,000 mm 2,4 UV-I 461 W/m² 6,1 °C 10,9 °C 0,0 km/h (0 Bft)
11.10.2019 11:08 10,9 °C 71 % 1022,1 hPa 0,0 mm 0,0 km/h (0 Bft) S-SW 211 ° 0 min 0,000 mm 2,3 UV-I 399 W/m² 5,9 °C 10,9 °C 0,0 km/h (0 Bft)
11.10.2019 11:09 11,0 °C 70 % 1022,1 hPa 0,0 mm 0,0 km/h (0 Bft) S-SW 211 ° 0 min 0,000 mm 2,1 UV-I 309 W/m² 5,7 °C 11,0 °C 0,0 km/h (0 Bft)
11.10.2019 11:10 10,9 °C 78 % 1022,0 hPa 0,0 mm 1,0 km/h (0 Bft) S-SW 211 ° 0 min 0,000 mm 2,1 UV-I 295 W/m² 7,2 °C 10,9 °C 3,2 km/h (1 Bft)
11.10.2019 11:11 10,8 °C 74 % 1021,9 hPa 0,0 mm 0,0 km/h (0 Bft) S-SW 211 ° 0 min 0,000 mm 2,0 UV-I 255 W/m² 6,4 °C 10,8 °C 0,0 km/h (0 Bft)
11.10.2019 11:12 10,8 °C 76 % 1022,0 hPa 0,0 mm 0,0 km/h (0 Bft) S-SW 210 ° 0 min 0,000 mm 2,0 UV-I 258 W/m² 6,7 °C 10,8 °C 0,0 km/h (0 Bft)
11.10.2019 11:13 10,8 °C 74 % 1021,9 hPa 0,0 mm 0,0 km/h (0 Bft) S-SW 200 ° 0 min 0,000 mm 1,9 UV-I 241 W/m² 6,4 °C 10,8 °C 0,0 km/h (0 Bft)
11.10.2019 11:14 10,9 °C 75 % 1021,9 hPa 0,0 mm 0,0 km/h (0 Bft) S-SW 200 ° 0 min 0,000 mm 1,8 UV-I 206 W/m² 6,6 °C 10,9 °C 0,0 km/h (0 Bft)
11.10.2019 11:15 10,9 °C 76 % 1021,9 hPa 0,0 mm 0,0 km/h (0 Bft) S-SW 200 ° 0 min 0,000 mm 1,8 UV-I 183 W/m² 6,8 °C 10,9 °C 0,0 km/h (0 Bft)
11.10.2019 11:16 11,0 °C 74 % 1021,9 hPa 0,0 mm 0,0 km/h (0 Bft) S-SW 200 ° 0 min 0,000 mm 1,7 UV-I 156 W/m² 6,5 °C 11,0 °C 0,0 km/h (0 Bft)
11.10.2019 11:17 11,1 °C 74 % 1021,9 hPa 0,0 mm 0,0 km/h (0 Bft) S-SW 200 ° 0 min 0,000 mm 1,7 UV-I 197 W/m² 6,6 °C 11,1 °C 0,0 km/h (0 Bft)
11.10.2019 11:18 11,1 °C 75 % 1021,8 hPa 0,0 mm 0,0 km/h (0 Bft) S-SW 200 ° 0 min 0,000 mm 2,0 UV-I 274 W/m² 6,8 °C 11,1 °C 0,0 km/h (0 Bft)
11.10.2019 11:19 11,1 °C 74 % 1021,8 hPa 0,0 mm 0,0 km/h (0 Bft) S-SW 200 ° 0 min 0,000 mm 2,0 UV-I 232 W/m² 6,6 °C 11,1 °C 0,0 km/h (0 Bft)
11.10.2019 11:20 11,2 °C 73 % 1021,8 hPa 0,0 mm 0,0 km/h (0 Bft) S-SW 200 ° 0 min 0,000 mm 1,9 UV-I 176 W/m² 6,5 °C 11,2 °C 0,0 km/h (0 Bft)
11.10.2019 11:21 11,3 °C 73 % 1021,7 hPa 0,0 mm 0,0 km/h (0 Bft) S-SW 200 ° 0 min 0,000 mm 1,7 UV-I 134 W/m² 6,6 °C 11,3 °C 0,0 km/h (0 Bft)
11.10.2019 11:22 11,3 °C 73 % 1021,7 hPa 0,0 mm 0,0 km/h (0 Bft) S-SW 200 ° 0 min 0,000 mm 1,6 UV-I 120 W/m² 6,6 °C 11,3 °C 0,0 km/h (0 Bft)
11.10.2019 11:23 11,4 °C 72 % 1021,6 hPa 0,0 mm 0,2 km/h (0 Bft) S-SW 201 ° 0 min 0,000 mm 1,7 UV-I 148 W/m² 6,5 °C 11,4 °C 1,6 km/h (1 Bft)
11.10.2019 11:24 11,4 °C 73 % 1021,6 hPa 0,0 mm 1,9 km/h (1 Bft) S 182 ° 0 min 0,000 mm 1,9 UV-I 195 W/m² 6,7 °C 11,4 °C 3,2 km/h (1 Bft)
11.10.2019 11:25 11,3 °C 73 % 1021,6 hPa 0,0 mm 2,2 km/h (1 Bft) S 182 ° 0 min 0,000 mm 1,9 UV-I 160 W/m² 6,6 °C 11,3 °C 3,2 km/h (1 Bft)
11.10.2019 11:26 11,3 °C 73 % 1021,5 hPa 0,0 mm 0,1 km/h (0 Bft) S 182 ° 0 min 0,000 mm 1,8 UV-I 137 W/m² 6,6 °C 11,3 °C 1,6 km/h (1 Bft)
11.10.2019 11:27 11,3 °C 72 % 1021,5 hPa 0,0 mm 0,0 km/h (0 Bft) S 182 ° 0 min 0,000 mm 1,7 UV-I 93 W/m² 6,4 °C 11,3 °C 0,0 km/h (0 Bft)
11.10.2019 11:28 11,3 °C 73 % 1021,5 hPa 0,0 mm 0,0 km/h (0 Bft) S 182 ° 0 min 0,000 mm 1,6 UV-I 118 W/m² 6,6 °C 11,3 °C 0,0 km/h (0 Bft)
11.10.2019 11:29 11,3 °C 73 % 1021,4 hPa 0,0 mm 0,0 km/h (0 Bft) S 182 ° 0 min 0,000 mm 1,7 UV-I 111 W/m² 6,6 °C 11,3 °C 0,0 km/h (0 Bft)
11.10.2019 11:30 11,2 °C 73 % 1021,3 hPa 0,0 mm 0,0 km/h (0 Bft) O-SO 122 ° 0 min 0,000 mm 1,6 UV-I 69 W/m² 6,5 °C 11,2 °C 0,0 km/h (0 Bft)
11.10.2019 11:31 11,2 °C 74 % 1021,3 hPa 0,0 mm 0,0 km/h (0 Bft) O-SO 122 ° 0 min 0,000 mm 1,6 UV-I 69 W/m² 6,7 °C 11,2 °C 0,0 km/h (0 Bft)
11.10.2019 11:32 11,3 °C 74 % 1021,3 hPa 0,0 mm 0,0 km/h (0 Bft) S 191 ° 0 min 0,000 mm 1,6 UV-I 88 W/m² 6,8 °C 11,3 °C 0,0 km/h (0 Bft)
11.10.2019 11:33 11,4 °C 71 % 1021,3 hPa 0,0 mm 0,0 km/h (0 Bft) W 277 ° 0 min 0,000 mm 1,7 UV-I 125 W/m² 6,3 °C 11,4 °C 0,0 km/h (0 Bft)
11.10.2019 11:34 11,5 °C 71 % 1021,3 hPa 0,0 mm 0,0 km/h (0 Bft) W 277 ° 0 min 0,000 mm 1,8 UV-I 178 W/m² 6,4 °C 11,5 °C 0,0 km/h (0 Bft)
11.10.2019 11:35 11,6 °C 70 % 1021,3 hPa 0,0 mm 0,0 km/h (0 Bft) W 277 ° 0 min 0,000 mm 2,1 UV-I 178 W/m² 6,3 °C 11,6 °C 0,0 km/h (0 Bft)
11.10.2019 11:36 11,5 °C 71 % 1021,3 hPa 0,0 mm 0,0 km/h (0 Bft) W 277 ° 0 min 0,000 mm 2,7 UV-I 476 W/m² 6,4 °C 11,5 °C 0,0 km/h (0 Bft)
11.10.2019 11:37 11,5 °C 70 % 1021,3 hPa 0,0 mm 0,0 km/h (0 Bft) W 277 ° 0 min 0,000 mm 2,9 UV-I 513 W/m² 6,2 °C 11,5 °C 0,0 km/h (0 Bft)
11.10.2019 11:38 11,6 °C 70 % 1021,4 hPa 0,0 mm 0,0 km/h (0 Bft) W 277 ° 0 min 0,000 mm 2,9 UV-I 536 W/m² 6,3 °C 11,6 °C 0,0 km/h (0 Bft)
11.10.2019 11:39 11,6 °C 72 % 1021,3 hPa 0,0 mm 0,0 km/h (0 Bft) W 277 ° 0 min 0,000 mm 2,9 UV-I 538 W/m² 6,7 °C 11,6 °C 0,0 km/h (0 Bft)
11.10.2019 11:40 11,7 °C 72 % 1021,3 hPa 0,0 mm 0,0 km/h (0 Bft) W 277 ° 0 min 0,000 mm 2,8 UV-I 503 W/m² 6,8 °C 11,7 °C 0,0 km/h (0 Bft)
11.10.2019 11:41 11,8 °C 69 % 1021,3 hPa 0,0 mm 0,0 km/h (0 Bft) W 277 ° 0 min 0,000 mm 3,0 UV-I 533 W/m² 6,3 °C 11,8 °C 0,0 km/h (0 Bft)
11.10.2019 11:42 12,1 °C 69 % 1021,4 hPa 0,0 mm 0,0 km/h (0 Bft) W 277 ° 0 min 0,000 mm 3,0 UV-I 538 W/m² 6,6 °C 12,1 °C 0,0 km/h (0 Bft)
11.10.2019 11:43 12,0 °C 74 % 1021,4 hPa 0,0 mm 0,0 km/h (0 Bft) W 277 ° 0 min 0,000 mm 2,9 UV-I 519 W/m² 7,5 °C 12,0 °C 0,0 km/h (0 Bft)
11.10.2019 11:44 11,9 °C 76 % 1021,4 hPa 0,0 mm 0,0 km/h (0 Bft) W 277 ° 0 min 0,000 mm 3,0 UV-I 541 W/m² 7,8 °C 11,9 °C 0,0 km/h (0 Bft)
11.10.2019 11:45 11,8 °C 75 % 1021,4 hPa 0,0 mm 0,0 km/h (0 Bft) W 277 ° 0 min 0,000 mm 3,0 UV-I 520 W/m² 7,5 °C 11,8 °C 0,0 km/h (0 Bft)
11.10.2019 11:46 11,9 °C 72 % 1021,4 hPa 0,0 mm 0,0 km/h (0 Bft) W 277 ° 0 min 0,000 mm 3,1 UV-I 545 W/m² 7,0 °C 11,9 °C 0,0 km/h (0 Bft)
11.10.2019 11:47 11,9 °C 71 % 1021,4 hPa 0,0 mm 0,0 km/h (0 Bft) W 277 ° 0 min 0,000 mm 3,1 UV-I 538 W/m² 6,8 °C 11,9 °C 0,0 km/h (0 Bft)
11.10.2019 11:48 12,0 °C 71 % 1021,4 hPa 0,0 mm 0,0 km/h (0 Bft) W 277 ° 0 min 0,000 mm 3,2 UV-I 548 W/m² 6,9 °C 12,0 °C 0,0 km/h (0 Bft)
11.10.2019 11:49 12,3 °C 71 % 1021,4 hPa 0,0 mm 0,0 km/h (0 Bft) W 277 ° 0 min 0,000 mm 3,2 UV-I 548 W/m² 7,2 °C 12,3 °C 0,0 km/h (0 Bft)
11.10.2019 11:50 12,3 °C 68 % 1021,4 hPa 0,0 mm 0,0 km/h (0 Bft) W 277 ° 0 min 0,000 mm 3,2 UV-I 550 W/m² 6,6 °C 12,3 °C 0,0 km/h (0 Bft)
11.10.2019 11:51 12,4 °C 72 % 1021,4 hPa 0,0 mm 0,0 km/h (0 Bft) W 277 ° 0 min 0,000 mm 3,2 UV-I 550 W/m² 7,5 °C 12,4 °C 0,0 km/h (0 Bft)
11.10.2019 11:52 12,6 °C 70 % 1021,4 hPa 0,0 mm 0,0 km/h (0 Bft) W 277 ° 0 min 0,000 mm 3,3 UV-I 552 W/m² 7,3 °C 12,6 °C 0,0 km/h (0 Bft)
11.10.2019 11:53 12,7 °C 66 % 1021,4 hPa 0,0 mm 0,0 km/h (0 Bft) W 277 ° 0 min 0,000 mm 3,3 UV-I 552 W/m² 6,5 °C 12,7 °C 0,0 km/h (0 Bft)
11.10.2019 11:54 12,8 °C 66 % 1021,3 hPa 0,0 mm 0,0 km/h (0 Bft) N 360 ° 0 min 0,000 mm 3,3 UV-I 554 W/m² 6,6 °C 12,8 °C 0,0 km/h (0 Bft)
11.10.2019 11:55 12,7 °C 66 % 1021,4 hPa 0,0 mm 0,8 km/h (0 Bft) N 355 ° 0 min 0,000 mm 3,3 UV-I 555 W/m² 6,5 °C 12,7 °C 3,2 km/h (1 Bft)
11.10.2019 11:56 12,8 °C 66 % 1021,4 hPa 0,0 mm 2,3 km/h (1 Bft) N-NW 336 ° 0 min 0,000 mm 3,3 UV-I 555 W/m² 6,6 °C 12,8 °C 4,8 km/h (1 Bft)
11.10.2019 11:57 12,6 °C 68 % 1021,3 hPa 0,0 mm 1,7 km/h (1 Bft) W-SW 245 ° 0 min 0,000 mm 3,3 UV-I 557 W/m² 6,9 °C 12,6 °C 3,2 km/h (1 Bft)
11.10.2019 11:58 12,7 °C 68 % 1021,3 hPa 0,0 mm 3,6 km/h (1 Bft) W-SW 251 ° 0 min 0,000 mm 3,3 UV-I 559 W/m² 6,9 °C 12,7 °C 4,8 km/h (1 Bft)
11.10.2019 11:59 12,9 °C 66 % 1021,3 hPa 0,0 mm 3,4 km/h (1 Bft) W-NW 302 ° 0 min 0,000 mm 3,4 UV-I 559 W/m² 6,7 °C 12,9 °C 4,8 km/h (1 Bft)
11.10.2019 12:00 13,1 °C 63 % 1021,3 hPa 0,0 mm 0,1 km/h (0 Bft) W-NW 302 ° 0 min 0,000 mm 3,4 UV-I 561 W/m² 6,2 °C 13,1 °C 1,6 km/h (1 Bft)
11.10.2019 12:01 13,2 °C 64 % 1021,2 hPa 0,0 mm 1,9 km/h (1 Bft) W-NW 286 ° 0 min 0,177 mm 3,4 UV-I 561 W/m² 6,5 °C 13,2 °C 6,4 km/h (2 Bft)
11.10.2019 12:02 13,3 °C 66 % 1021,3 hPa 0,0 mm 2,7 km/h (1 Bft) W-NW 286 ° 0 min 0,000 mm 3,4 UV-I 561 W/m² 7,1 °C 13,3 °C 3,2 km/h (1 Bft)
11.10.2019 12:03 13,3 °C 67 % 1021,2 hPa 0,0 mm 2,7 km/h (1 Bft) W-NW 286 ° 0 min 0,000 mm 3,4 UV-I 563 W/m² 7,3 °C 13,3 °C 4,8 km/h (1 Bft)
11.10.2019 12:04 13,3 °C 66 % 1021,2 hPa 0,0 mm 1,3 km/h (1 Bft) W-NW 286 ° 0 min 0,000 mm 3,4 UV-I 563 W/m² 7,1 °C 13,3 °C 6,4 km/h (2 Bft)
11.10.2019 12:05 13,3 °C 66 % 1021,2 hPa 0,0 mm 3,6 km/h (1 Bft) W-NW 286 ° 0 min 0,000 mm 3,4 UV-I 564 W/m² 7,1 °C 13,3 °C 6,4 km/h (2 Bft)
11.10.2019 12:06 13,3 °C 64 % 1021,2 hPa 0,0 mm 2,1 km/h (1 Bft) W-NW 286 ° 0 min 0,000 mm 3,4 UV-I 564 W/m² 6,6 °C 13,3 °C 4,8 km/h (1 Bft)
11.10.2019 12:07 13,4 °C 63 % 1021,2 hPa 0,0 mm 3,2 km/h (1 Bft) W-NW 286 ° 0 min 0,000 mm 3,4 UV-I 566 W/m² 6,5 °C 13,4 °C 6,4 km/h (2 Bft)
11.10.2019 12:08 13,4 °C 61 % 1021,1 hPa 0,0 mm 2,3 km/h (1 Bft) W-NW 286 ° 0 min 0,000 mm 3,4 UV-I 568 W/m² 6,0 °C 13,4 °C 4,8 km/h (1 Bft)
11.10.2019 12:09 13,5 °C 61 % 1021,1 hPa 0,0 mm 2,2 km/h (1 Bft) W-NW 286 ° 0 min 0,000 mm 3,5 UV-I 568 W/m² 6,1 °C 13,5 °C 3,2 km/h (1 Bft)
11.10.2019 12:10 13,6 °C 65 % 1021,0 hPa 0,0 mm 1,5 km/h (1 Bft) W-NW 286 ° 0 min 0,000 mm 3,5 UV-I 568 W/m² 7,1 °C 13,6 °C 3,2 km/h (1 Bft)
11.10.2019 12:11 13,4 °C 63 % 1021,0 hPa 0,0 mm 0,0 km/h (0 Bft) W-NW 286 ° 0 min 0,000 mm 3,5 UV-I 568 W/m² 6,5 °C 13,4 °C 0,0 km/h (0 Bft)
11.10.2019 12:12 13,2 °C 66 % 1020,9 hPa 0,0 mm 0,0 km/h (0 Bft) W-NW 286 ° 0 min 0,000 mm 3,5 UV-I 570 W/m² 7,0 °C 13,2 °C 0,0 km/h (0 Bft)
11.10.2019 12:13 13,0 °C 68 % 1020,9 hPa 0,0 mm 0,0 km/h (0 Bft) W-NW 286 ° 0 min 0,000 mm 3,5 UV-I 571 W/m² 7,2 °C 13,0 °C 0,0 km/h (0 Bft)
11.10.2019 12:14 12,8 °C 65 % 1020,8 hPa 0,0 mm 0,0 km/h (0 Bft) W-NW 286 ° 0 min 0,000 mm 3,5 UV-I 571 W/m² 6,4 °C 12,8 °C 0,0 km/h (0 Bft)
11.10.2019 12:15 12,7 °C 68 % 1020,8 hPa 0,0 mm 1,5 km/h (1 Bft) W-NW 286 ° 0 min 0,000 mm 3,5 UV-I 571 W/m² 6,9 °C 12,7 °C 4,8 km/h (1 Bft)
11.10.2019 12:16 12,6 °C 69 % 1020,8 hPa 0,0 mm 1,9 km/h (1 Bft) W-NW 286 ° 0 min 0,000 mm 3,5 UV-I 575 W/m² 7,1 °C 12,6 °C 3,2 km/h (1 Bft)
11.10.2019 12:17 12,6 °C 69 % 1020,7 hPa 0,0 mm 0,0 km/h (0 Bft) W-NW 286 ° 0 min 0,000 mm 3,6 UV-I 577 W/m² 7,1 °C 12,6 °C 0,0 km/h (0 Bft)
11.10.2019 12:18 12,7 °C 70 % 1020,6 hPa 0,0 mm 0,8 km/h (0 Bft) W-NW 286 ° 0 min 0,000 mm 3,6 UV-I 577 W/m² 7,4 °C 12,7 °C 3,2 km/h (1 Bft)
11.10.2019 12:19 12,7 °C 66 % 1020,6 hPa 0,0 mm 1,3 km/h (1 Bft) S-SW 210 ° 0 min 0,000 mm 3,6 UV-I 578 W/m² 6,5 °C 12,7 °C 3,2 km/h (1 Bft)
11.10.2019 12:20 12,7 °C 64 % 1020,6 hPa 0,0 mm 1,0 km/h (0 Bft) S-SW 210 ° 0 min 0,000 mm 3,6 UV-I 578 W/m² 6,1 °C 12,7 °C 3,2 km/h (1 Bft)
11.10.2019 12:21 12,8 °C 64 % 1020,6 hPa 0,0 mm 0,9 km/h (0 Bft) S-SW 208 ° 0 min 0,000 mm 3,6 UV-I 575 W/m² 6,2 °C 12,8 °C 3,2 km/h (1 Bft)
11.10.2019 12:22 12,7 °C 66 % 1020,5 hPa 0,0 mm 0,0 km/h (0 Bft) S-SW 208 ° 0 min 0,000 mm 3,6 UV-I 578 W/m² 6,5 °C 12,7 °C 0,0 km/h (0 Bft)
11.10.2019 12:23 12,7 °C 65 % 1020,6 hPa 0,0 mm 0,0 km/h (0 Bft) S-SW 205 ° 0 min 0,000 mm 3,6 UV-I 578 W/m² 6,3 °C 12,7 °C 0,0 km/h (0 Bft)
11.10.2019 12:24 12,8 °C 68 % 1020,5 hPa 0,2 mm 1,4 km/h (1 Bft) O 93 ° 0 min 0,000 mm 3,6 UV-I 578 W/m² 7,0 °C 12,8 °C 4,8 km/h (1 Bft)
11.10.2019 12:25 12,9 °C 73 % 1020,5 hPa 0,0 mm 0,3 km/h (0 Bft) O 93 ° 0 min 0,000 mm 3,6 UV-I 580 W/m² 8,2 °C 12,9 °C 1,6 km/h (1 Bft)
11.10.2019 12:26 13,1 °C 71 % 1020,4 hPa 0,0 mm 1,8 km/h (1 Bft) N-NO 31 ° 0 min 0,000 mm 3,6 UV-I 580 W/m² 8,0 °C 13,1 °C 4,8 km/h (1 Bft)
11.10.2019 12:27 13,3 °C 65 % 1020,4 hPa 0,0 mm 0,3 km/h (0 Bft) N-NO 31 ° 0 min 0,000 mm 3,6 UV-I 580 W/m² 6,9 °C 13,3 °C 1,6 km/h (1 Bft)
11.10.2019 12:28 13,4 °C 67 % 1020,4 hPa 0,0 mm 0,6 km/h (0 Bft) N-NO 31 ° 0 min 0,000 mm 3,6 UV-I 582 W/m² 7,4 °C 13,4 °C 1,6 km/h (1 Bft)
11.10.2019 12:29 13,5 °C 70 % 1020,4 hPa 0,0 mm 1,6 km/h (1 Bft) N-NO 31 ° 0 min 0,000 mm 3,6 UV-I 582 W/m² 8,1 °C 13,5 °C 3,2 km/h (1 Bft)
11.10.2019 12:30 13,7 °C 66 % 1020,4 hPa 0,0 mm 0,0 km/h (0 Bft) N-NO 31 ° 0 min 0,000 mm 3,6 UV-I 582 W/m² 7,5 °C 13,7 °C 0,0 km/h (0 Bft)
11.10.2019 12:31 13,6 °C 71 % 1020,3 hPa 0,0 mm 2,9 km/h (1 Bft) O 87 ° 0 min 0,000 mm 3,6 UV-I 582 W/m² 8,4 °C 13,6 °C 4,8 km/h (1 Bft)
11.10.2019 12:32 13,3 °C 67 % 1020,3 hPa 0,0 mm 3,5 km/h (1 Bft) SO 135 ° 0 min 0,000 mm 3,6 UV-I 584 W/m² 7,3 °C 13,3 °C 4,8 km/h (1 Bft)
11.10.2019 12:33 13,2 °C 65 % 1020,3 hPa 0,0 mm 0,1 km/h (0 Bft) SO 135 ° 0 min 0,000 mm 3,6 UV-I 587 W/m² 6,8 °C 13,2 °C 1,6 km/h (1 Bft)
11.10.2019 12:34 13,4 °C 67 % 1020,3 hPa 0,0 mm 0,0 km/h (0 Bft) SO 134 ° 0 min 0,000 mm 3,6 UV-I 587 W/m² 7,4 °C 13,4 °C 0,0 km/h (0 Bft)
11.10.2019 12:35 13,4 °C 69 % 1020,3 hPa 0,0 mm 0,0 km/h (0 Bft) SO 134 ° 0 min 0,000 mm 3,6 UV-I 589 W/m² 7,8 °C 13,4 °C 0,0 km/h (0 Bft)
11.10.2019 12:36 13,4 °C 68 % 1020,3 hPa 0,0 mm 0,0 km/h (0 Bft) SO 127 ° 0 min 0,000 mm 3,6 UV-I 589 W/m² 7,6 °C 13,4 °C 0,0 km/h (0 Bft)
11.10.2019 12:37 13,4 °C 66 % 1020,3 hPa 0,0 mm 1,5 km/h (1 Bft) SO 127 ° 0 min 0,000 mm 3,7 UV-I 591 W/m² 7,2 °C 13,4 °C 3,2 km/h (1 Bft)
11.10.2019 12:38 13,4 °C 66 % 1020,1 hPa 0,0 mm 1,8 km/h (1 Bft) SO 127 ° 0 min 0,000 mm 3,7 UV-I 589 W/m² 7,2 °C 13,4 °C 3,2 km/h (1 Bft)
11.10.2019 12:39 13,6 °C 62 % 1020,3 hPa 0,0 mm 2,1 km/h (1 Bft) O-NO 77 ° 0 min 0,000 mm 3,7 UV-I 591 W/m² 6,5 °C 13,6 °C 4,8 km/h (1 Bft)
11.10.2019 12:40 13,6 °C 65 % 1020,2 hPa 0,0 mm 0,4 km/h (0 Bft) O-NO 77 ° 0 min 0,000 mm 3,7 UV-I 591 W/m² 7,1 °C 13,6 °C 1,6 km/h (1 Bft)
11.10.2019 12:41 13,5 °C 65 % 1020,1 hPa 0,0 mm 2,6 km/h (1 Bft) O-NO 77 ° 0 min 0,000 mm 3,7 UV-I 592 W/m² 7,1 °C 13,5 °C 3,2 km/h (1 Bft)
11.10.2019 12:42 13,5 °C 62 % 1020,2 hPa 0,0 mm 2,4 km/h (1 Bft) NO 47 ° 0 min 0,000 mm 3,7 UV-I 591 W/m² 6,4 °C 13,5 °C 6,4 km/h (2 Bft)
11.10.2019 12:43 13,6 °C 65 % 1020,2 hPa 0,0 mm 4,8 km/h (1 Bft) NO 44 ° 0 min 0,000 mm 3,7 UV-I 592 W/m² 7,1 °C 13,6 °C 6,4 km/h (2 Bft)
11.10.2019 12:44 13,9 °C 63 % 1020,2 hPa 0,0 mm 6,8 km/h (2 Bft) NO 43 ° 0 min 0,000 mm 3,7 UV-I 594 W/m² 7,0 °C 13,9 °C 8,0 km/h (2 Bft)
11.10.2019 12:45 14,1 °C 62 % 1020,2 hPa 0,0 mm 5,2 km/h (1 Bft) O-NO 63 ° 0 min 0,000 mm 3,7 UV-I 594 W/m² 6,9 °C 14,1 °C 9,7 km/h (2 Bft)
11.10.2019 12:46 14,0 °C 66 % 1020,2 hPa 0,0 mm 6,0 km/h (2 Bft) O-SO 111 ° 0 min 0,000 mm 3,7 UV-I 592 W/m² 7,7 °C 14,0 °C 9,7 km/h (2 Bft)
11.10.2019 12:47 13,8 °C 64 % 1020,1 hPa 0,0 mm 1,2 km/h (1 Bft) NO 44 ° 0 min 0,000 mm 3,7 UV-I 596 W/m² 7,1 °C 13,8 °C 3,2 km/h (1 Bft)
11.10.2019 12:48 13,6 °C 65 % 1020,1 hPa 0,0 mm 1,5 km/h (1 Bft) NO 45 ° 0 min 0,000 mm 3,7 UV-I 594 W/m² 7,1 °C 13,6 °C 3,2 km/h (1 Bft)
11.10.2019 12:49 13,6 °C 65 % 1020,1 hPa 0,0 mm 1,5 km/h (1 Bft) NO 53 ° 0 min 0,000 mm 3,7 UV-I 596 W/m² 7,1 °C 13,6 °C 3,2 km/h (1 Bft)
11.10.2019 12:50 13,7 °C 64 % 1020,1 hPa 0,0 mm 1,5 km/h (1 Bft) NO 53 ° 0 min 0,000 mm 3,7 UV-I 596 W/m² 7,0 °C 13,7 °C 3,2 km/h (1 Bft)
11.10.2019 12:51 13,8 °C 63 % 1020,0 hPa 0,0 mm 0,0 km/h (0 Bft) NO 53 ° 0 min 0,000 mm 3,7 UV-I 596 W/m² 6,9 °C 13,8 °C 0,0 km/h (0 Bft)
11.10.2019 12:52 13,9 °C 62 % 1020,0 hPa 0,0 mm 0,0 km/h (0 Bft) NO 53 ° 0 min 0,000 mm 3,7 UV-I 596 W/m² 6,7 °C 13,9 °C 0,0 km/h (0 Bft)
11.10.2019 12:53 14,1 °C 61 % 1019,9 hPa 0,0 mm 0,4 km/h (0 Bft) O 86 ° 0 min 0,000 mm 3,7 UV-I 596 W/m² 6,7 °C 14,1 °C 3,2 km/h (1 Bft)
11.10.2019 12:54 14,1 °C 64 % 1019,9 hPa 0,0 mm 3,7 km/h (1 Bft) O 82 ° 0 min 0,000 mm 3,7 UV-I 596 W/m² 7,4 °C 14,1 °C 4,8 km/h (1 Bft)
11.10.2019 12:55 13,8 °C 65 % 1019,9 hPa 0,0 mm 3,6 km/h (1 Bft) O 86 ° 0 min 0,000 mm 3,7 UV-I 598 W/m² 7,3 °C 13,8 °C 6,4 km/h (2 Bft)
11.10.2019 12:56 13,8 °C 66 % 1019,9 hPa 0,0 mm 0,5 km/h (0 Bft) O 86 ° 0 min 0,000 mm 3,7 UV-I 596 W/m² 7,6 °C 13,8 °C 1,6 km/h (1 Bft)
11.10.2019 12:57 13,8 °C 61 % 1019,9 hPa 0,0 mm 0,0 km/h (0 Bft) O 86 ° 0 min 0,000 mm 3,7 UV-I 598 W/m² 6,4 °C 13,8 °C 0,0 km/h (0 Bft)
11.10.2019 12:58 14,0 °C 61 % 1019,9 hPa 0,0 mm 0,9 km/h (0 Bft) O 86 ° 0 min 0,000 mm 3,7 UV-I 598 W/m² 6,6 °C 14,0 °C 3,2 km/h (1 Bft)
11.10.2019 12:59 13,9 °C 63 % 1019,9 hPa 0,0 mm 1,2 km/h (1 Bft) O 86 ° 0 min 0,000 mm 3,7 UV-I 598 W/m² 7,0 °C 13,9 °C 3,2 km/h (1 Bft)
11.10.2019 13:00 13,9 °C 61 % 1019,9 hPa 0,0 mm 2,7 km/h (1 Bft) O 86 ° 0 min 0,000 mm 3,7 UV-I 598 W/m² 6,5 °C 13,9 °C 4,8 km/h (1 Bft)
11.10.2019 13:01 13,9 °C 61 % 1019,8 hPa 0,0 mm 1,9 km/h (1 Bft) O 86 ° 0 min 0,305 mm 3,7 UV-I 598 W/m² 6,5 °C 13,9 °C 3,2 km/h (1 Bft)
11.10.2019 13:02 13,9 °C 62 % 1019,8 hPa 0,0 mm 0,5 km/h (0 Bft) O 86 ° 0 min 0,000 mm 3,7 UV-I 598 W/m² 6,7 °C 13,9 °C 1,6 km/h (1 Bft)
11.10.2019 13:03 14,0 °C 59 % 1019,8 hPa 0,0 mm 0,0 km/h (0 Bft) O 86 ° 0 min 0,000 mm 3,7 UV-I 599 W/m² 6,1 °C 14,0 °C 0,0 km/h (0 Bft)
11.10.2019 13:04 14,1 °C 62 % 1019,8 hPa 0,0 mm 0,0 km/h (0 Bft) O 86 ° 0 min 0,000 mm 3,7 UV-I 599 W/m² 6,9 °C 14,1 °C 0,0 km/h (0 Bft)
11.10.2019 13:05 14,0 °C 61 % 1019,8 hPa 0,0 mm 0,0 km/h (0 Bft) O 86 ° 0 min 0,000 mm 3,7 UV-I 599 W/m² 6,6 °C 14,0 °C 0,0 km/h (0 Bft)
11.10.2019 13:06 14,0 °C 61 % 1019,8 hPa 0,0 mm 1,8 km/h (1 Bft) N-NW 342 ° 0 min 0,000 mm 3,7 UV-I 599 W/m² 6,6 °C 14,0 °C 4,8 km/h (1 Bft)
11.10.2019 13:07 14,1 °C 62 % 1019,8 hPa 0,0 mm 0,5 km/h (0 Bft) N-NW 343 ° 0 min 0,000 mm 3,7 UV-I 596 W/m² 6,9 °C 14,1 °C 1,6 km/h (1 Bft)
11.10.2019 13:08 14,3 °C 64 % 1019,8 hPa 0,0 mm 0,0 km/h (0 Bft) N-NW 343 ° 0 min 0,000 mm 3,7 UV-I 598 W/m² 7,6 °C 14,3 °C 0,0 km/h (0 Bft)
11.10.2019 13:09 14,2 °C 61 % 1019,8 hPa 0,0 mm 1,0 km/h (0 Bft) O-NO 57 ° 0 min 0,000 mm 3,7 UV-I 599 W/m² 6,8 °C 14,2 °C 4,8 km/h (1 Bft)
11.10.2019 13:10 14,3 °C 60 % 1019,7 hPa 0,0 mm 1,7 km/h (1 Bft) NO 56 ° 0 min 0,000 mm 3,7 UV-I 599 W/m² 6,6 °C 14,3 °C 3,2 km/h (1 Bft)
11.10.2019 13:11 14,3 °C 63 % 1019,8 hPa 0,0 mm 0,0 km/h (0 Bft) NO 56 ° 0 min 0,000 mm 3,7 UV-I 598 W/m² 7,4 °C 14,3 °C 0,0 km/h (0 Bft)
11.10.2019 13:12 14,3 °C 64 % 1019,8 hPa 0,0 mm 0,2 km/h (0 Bft) NO 56 ° 0 min 0,000 mm 3,7 UV-I 598 W/m² 7,6 °C 14,3 °C 1,6 km/h (1 Bft)
11.10.2019 13:13 14,0 °C 65 % 1019,7 hPa 0,0 mm 4,2 km/h (1 Bft) N-NO 15 ° 0 min 0,000 mm 3,7 UV-I 599 W/m² 7,5 °C 14,0 °C 4,8 km/h (1 Bft)
11.10.2019 13:14 14,0 °C 65 % 1019,7 hPa 0,0 mm 3,5 km/h (1 Bft) N-NO 30 ° 0 min 0,000 mm 3,7 UV-I 596 W/m² 7,5 °C 14,0 °C 4,8 km/h (1 Bft)
11.10.2019 13:15 14,1 °C 61 % 1019,6 hPa 0,0 mm 1,5 km/h (1 Bft) N-NO 30 ° 0 min 0,000 mm 3,7 UV-I 598 W/m² 6,7 °C 14,1 °C 3,2 km/h (1 Bft)
11.10.2019 13:16 14,2 °C 60 % 1019,6 hPa 0,0 mm 1,7 km/h (1 Bft) N-NO 30 ° 0 min 0,000 mm 3,7 UV-I 598 W/m² 6,5 °C 14,2 °C 3,2 km/h (1 Bft)
11.10.2019 13:17 14,4 °C 62 % 1019,7 hPa 0,0 mm 3,8 km/h (1 Bft) N 355 ° 0 min 0,000 mm 3,7 UV-I 598 W/m² 7,2 °C 14,4 °C 6,4 km/h (2 Bft)
11.10.2019 13:18 14,6 °C 58 % 1019,7 hPa 0,0 mm 3,0 km/h (1 Bft) N 355 ° 0 min 0,000 mm 3,7 UV-I 596 W/m² 6,4 °C 14,6 °C 4,8 km/h (1 Bft)
11.10.2019 13:19 14,7 °C 58 % 1019,6 hPa 0,0 mm 3,8 km/h (1 Bft) N 5 ° 0 min 0,000 mm 3,7 UV-I 594 W/m² 6,5 °C 14,7 °C 6,4 km/h (2 Bft)
11.10.2019 13:20 14,8 °C 61 % 1019,6 hPa 0,0 mm 2,6 km/h (1 Bft) N 5 ° 0 min 0,000 mm 3,7 UV-I 596 W/m² 7,4 °C 14,8 °C 4,8 km/h (1 Bft)
11.10.2019 13:21 14,7 °C 62 % 1019,6 hPa 0,0 mm 0,4 km/h (0 Bft) N 5 ° 0 min 0,000 mm 3,7 UV-I 596 W/m² 7,5 °C 14,7 °C 3,2 km/h (1 Bft)
11.10.2019 13:22 14,6 °C 60 % 1019,6 hPa 0,0 mm 1,8 km/h (1 Bft) N 5 ° 0 min 0,000 mm 3,6 UV-I 585 W/m² 6,9 °C 14,6 °C 3,2 km/h (1 Bft)
11.10.2019 13:23 14,4 °C 65 % 1019,6 hPa 0,0 mm 0,6 km/h (0 Bft) N 5 ° 0 min 0,000 mm 3,7 UV-I 592 W/m² 7,9 °C 14,4 °C 3,2 km/h (1 Bft)
11.10.2019 13:24 14,3 °C 60 % 1019,6 hPa 0,0 mm 2,1 km/h (1 Bft) O-NO 60 ° 0 min 0,000 mm 3,7 UV-I 594 W/m² 6,6 °C 14,3 °C 4,8 km/h (1 Bft)
11.10.2019 13:25 14,2 °C 62 % 1019,6 hPa 0,0 mm 3,7 km/h (1 Bft) O 86 ° 0 min 0,000 mm 3,7 UV-I 594 W/m² 7,0 °C 14,2 °C 4,8 km/h (1 Bft)
11.10.2019 13:26 14,1 °C 61 % 1019,6 hPa 0,0 mm 2,6 km/h (1 Bft) O 99 ° 0 min 0,000 mm 3,7 UV-I 594 W/m² 6,7 °C 14,1 °C 3,2 km/h (1 Bft)
11.10.2019 13:27 14,1 °C 61 % 1019,6 hPa 0,0 mm 1,7 km/h (1 Bft) O 101 ° 0 min 0,000 mm 3,6 UV-I 587 W/m² 6,7 °C 14,1 °C 3,2 km/h (1 Bft)
11.10.2019 13:28 14,1 °C 59 % 1019,6 hPa 0,0 mm 1,7 km/h (1 Bft) O 99 ° 0 min 0,000 mm 3,4 UV-I 545 W/m² 6,2 °C 14,1 °C 4,8 km/h (1 Bft)
11.10.2019 13:29 14,0 °C 64 % 1019,6 hPa 0,0 mm 4,3 km/h (1 Bft) O-NO 76 ° 0 min 0,000 mm 3,3 UV-I 501 W/m² 7,3 °C 14,0 °C 9,7 km/h (2 Bft)
11.10.2019 13:30 13,9 °C 62 % 1019,6 hPa 0,0 mm 2,4 km/h (1 Bft) O-NO 76 ° 0 min 0,000 mm 3,6 UV-I 568 W/m² 6,7 °C 13,9 °C 3,2 km/h (1 Bft)
11.10.2019 13:31 13,9 °C 61 % 1019,6 hPa 0,0 mm 0,7 km/h (0 Bft) O-NO 76 ° 0 min 0,000 mm 3,6 UV-I 591 W/m² 6,5 °C 13,9 °C 1,6 km/h (1 Bft)
11.10.2019 13:32 13,9 °C 61 % 1019,6 hPa 0,0 mm 0,0 km/h (0 Bft) O-NO 76 ° 0 min 0,000 mm 3,6 UV-I 584 W/m² 6,5 °C 13,9 °C 0,0 km/h (0 Bft)
11.10.2019 13:33 14,0 °C 59 % 1019,6 hPa 0,0 mm 2,6 km/h (1 Bft) O-NO 78 ° 0 min 0,000 mm 3,6 UV-I 570 W/m² 6,1 °C 14,0 °C 4,8 km/h (1 Bft)
11.10.2019 13:34 14,1 °C 59 % 1019,6 hPa 0,0 mm 2,6 km/h (1 Bft) O-NO 78 ° 0 min 0,000 mm 3,5 UV-I 550 W/m² 6,2 °C 14,1 °C 4,8 km/h (1 Bft)
11.10.2019 13:35 14,2 °C 59 % 1019,6 hPa 0,0 mm 6,8 km/h (2 Bft) O-NO 63 ° 0 min 0,000 mm 3,6 UV-I 580 W/m² 6,3 °C 14,2 °C 8,0 km/h (2 Bft)
11.10.2019 13:36 14,3 °C 62 % 1019,6 hPa 0,0 mm 5,8 km/h (2 Bft) O 91 ° 0 min 0,000 mm 3,5 UV-I 561 W/m² 7,1 °C 14,3 °C 8,0 km/h (2 Bft)
11.10.2019 13:37 14,3 °C 58 % 1019,5 hPa 0,0 mm 4,2 km/h (1 Bft) O 86 ° 0 min 0,000 mm 3,4 UV-I 513 W/m² 6,2 °C 14,3 °C 4,8 km/h (1 Bft)
11.10.2019 13:38 14,4 °C 59 % 1019,5 hPa 0,0 mm 3,9 km/h (1 Bft) O 90 ° 0 min 0,000 mm 3,6 UV-I 582 W/m² 6,5 °C 14,4 °C 4,8 km/h (1 Bft)
11.10.2019 13:39 14,3 °C 60 % 1019,5 hPa 0,0 mm 0,7 km/h (0 Bft) O 90 ° 0 min 0,000 mm 3,6 UV-I 592 W/m² 6,6 °C 14,3 °C 3,2 km/h (1 Bft)
11.10.2019 13:40 14,3 °C 58 % 1019,5 hPa 0,0 mm 2,2 km/h (1 Bft) O 90 ° 0 min 0,000 mm 3,6 UV-I 568 W/m² 6,2 °C 14,3 °C 4,8 km/h (1 Bft)
11.10.2019 13:41 14,2 °C 59 % 1019,5 hPa 0,0 mm 1,7 km/h (1 Bft) O 90 ° 0 min 0,000 mm 3,6 UV-I 589 W/m² 6,3 °C 14,2 °C 3,2 km/h (1 Bft)
11.10.2019 13:42 14,2 °C 61 % 1019,4 hPa 0,0 mm 1,5 km/h (1 Bft) O 90 ° 0 min 0,000 mm 3,6 UV-I 587 W/m² 6,8 °C 14,2 °C 3,2 km/h (1 Bft)
11.10.2019 13:43 14,1 °C 59 % 1019,5 hPa 0,0 mm 1,9 km/h (1 Bft) O 90 ° 0 min 0,000 mm 3,6 UV-I 585 W/m² 6,2 °C 14,1 °C 3,2 km/h (1 Bft)
11.10.2019 13:44 14,1 °C 59 % 1019,4 hPa 0,0 mm 0,3 km/h (0 Bft) O 90 ° 0 min 0,000 mm 3,6 UV-I 584 W/m² 6,2 °C 14,1 °C 1,6 km/h (1 Bft)
11.10.2019 13:45 14,2 °C 60 % 1019,4 hPa 0,0 mm 0,0 km/h (0 Bft) O 90 ° 0 min 0,000 mm 3,6 UV-I 584 W/m² 6,5 °C 14,2 °C 0,0 km/h (0 Bft)
11.10.2019 13:46 14,4 °C 58 % 1019,4 hPa 0,0 mm 0,0 km/h (0 Bft) O 90 ° 0 min 0,000 mm 3,5 UV-I 573 W/m² 6,2 °C 14,4 °C 0,0 km/h (0 Bft)
11.10.2019 13:47 14,6 °C 56 % 1019,5 hPa 0,0 mm 0,0 km/h (0 Bft) O 90 ° 0 min 0,000 mm 3,5 UV-I 575 W/m² 5,9 °C 14,6 °C 0,0 km/h (0 Bft)
11.10.2019 13:48 14,6 °C 59 % 1019,5 hPa 0,0 mm 0,0 km/h (0 Bft) O 90 ° 0 min 0,000 mm 3,5 UV-I 571 W/m² 6,7 °C 14,6 °C 0,0 km/h (0 Bft)
11.10.2019 13:49 14,6 °C 58 % 1019,4 hPa 0,0 mm 0,0 km/h (0 Bft) O 90 ° 0 min 0,000 mm 3,5 UV-I 582 W/m² 6,4 °C 14,6 °C 0,0 km/h (0 Bft)
11.10.2019 13:50 14,5 °C 60 % 1019,4 hPa 0,0 mm 0,0 km/h (0 Bft) O 90 ° 0 min 0,000 mm 3,5 UV-I 580 W/m² 6,8 °C 14,5 °C 0,0 km/h (0 Bft)
11.10.2019 13:51 14,3 °C 61 % 1019,4 hPa 0,0 mm 0,0 km/h (0 Bft) O 90 ° 0 min 0,000 mm 3,5 UV-I 585 W/m² 6,9 °C 14,3 °C 0,0 km/h (0 Bft)
11.10.2019 13:52 14,2 °C 63 % 1019,4 hPa 0,0 mm 0,0 km/h (0 Bft) O 90 ° 0 min 0,000 mm 3,5 UV-I 585 W/m² 7,3 °C 14,2 °C 0,0 km/h (0 Bft)
11.10.2019 13:53 14,1 °C 63 % 1019,4 hPa 0,0 mm 1,1 km/h (1 Bft) O 90 ° 0 min 0,000 mm 3,5 UV-I 585 W/m² 7,2 °C 14,1 °C 4,8 km/h (1 Bft)
11.10.2019 13:54 14,0 °C 63 % 1019,4 hPa 0,0 mm 2,6 km/h (1 Bft) O 90 ° 0 min 0,000 mm 3,5 UV-I 582 W/m² 7,1 °C 14,0 °C 4,8 km/h (1 Bft)
11.10.2019 13:55 13,9 °C 61 % 1019,4 hPa 0,0 mm 1,1 km/h (1 Bft) O 90 ° 0 min 0,000 mm 3,5 UV-I 568 W/m² 6,5 °C 13,9 °C 3,2 km/h (1 Bft)
11.10.2019 13:56 14,0 °C 60 % 1019,4 hPa 0,0 mm 2,0 km/h (1 Bft) O 90 ° 0 min 0,000 mm 3,4 UV-I 563 W/m² 6,4 °C 14,0 °C 3,2 km/h (1 Bft)
11.10.2019 13:57 14,3 °C 58 % 1019,4 hPa 0,0 mm 0,8 km/h (0 Bft) O 90 ° 0 min 0,000 mm 3,3 UV-I 533 W/m² 6,2 °C 14,3 °C 1,6 km/h (1 Bft)
11.10.2019 13:58 14,3 °C 59 % 1019,3 hPa 0,0 mm 1,2 km/h (1 Bft) O 90 ° 0 min 0,000 mm 3,3 UV-I 522 W/m² 6,4 °C 14,3 °C 3,2 km/h (1 Bft)
11.10.2019 13:59 14,3 °C 59 % 1019,3 hPa 0,0 mm 1,2 km/h (1 Bft) O 90 ° 0 min 0,000 mm 3,3 UV-I 524 W/m² 6,4 °C 14,3 °C 3,2 km/h (1 Bft)
11.10.2019 14:00 14,3 °C 59 % 1019,3 hPa 0,0 mm 0,0 km/h (0 Bft) O 90 ° 0 min 0,000 mm 3,3 UV-I 538 W/m² 6,4 °C 14,3 °C 0,0 km/h (0 Bft)
11.10.2019 14:01 14,3 °C 58 % 1019,3 hPa 0,0 mm 0,0 km/h (0 Bft) O 90 ° 0 min 0,305 mm 3,3 UV-I 547 W/m² 6,2 °C 14,3 °C 0,0 km/h (0 Bft)
11.10.2019 14:02 14,3 °C 59 % 1019,3 hPa 0,0 mm 0,0 km/h (0 Bft) O 90 ° 0 min 0,000 mm 3,4 UV-I 557 W/m² 6,4 °C 14,3 °C 0,0 km/h (0 Bft)
11.10.2019 14:03 14,3 °C 60 % 1019,3 hPa 0,0 mm 0,0 km/h (0 Bft) O 90 ° 0 min 0,000 mm 3,3 UV-I 547 W/m² 6,6 °C 14,3 °C 0,0 km/h (0 Bft)
11.10.2019 14:04 14,3 °C 60 % 1019,3 hPa 0,0 mm 1,2 km/h (1 Bft) O 90 ° 0 min 0,000 mm 3,2 UV-I 508 W/m² 6,6 °C 14,3 °C 3,2 km/h (1 Bft)
11.10.2019 14:05 14,3 °C 60 % 1019,2 hPa 0,0 mm 1,4 km/h (1 Bft) O 90 ° 0 min 0,000 mm 3,1 UV-I 504 W/m² 6,6 °C 14,3 °C 3,2 km/h (1 Bft)
11.10.2019 14:06 14,3 °C 58 % 1019,1 hPa 0,0 mm 1,9 km/h (1 Bft) O 90 ° 0 min 0,000 mm 3,1 UV-I 466 W/m² 6,2 °C 14,3 °C 3,2 km/h (1 Bft)
11.10.2019 14:07 14,3 °C 59 % 1019,1 hPa 0,0 mm 0,4 km/h (0 Bft) O 90 ° 0 min 0,000 mm 3,0 UV-I 469 W/m² 6,4 °C 14,3 °C 1,6 km/h (1 Bft)
11.10.2019 14:08 14,3 °C 59 % 1019,1 hPa 0,0 mm 0,0 km/h (0 Bft) O 90 ° 0 min 0,000 mm 3,0 UV-I 464 W/m² 6,4 °C 14,3 °C 0,0 km/h (0 Bft)
11.10.2019 14:09 14,3 °C 59 % 1019,1 hPa 0,0 mm 0,1 km/h (0 Bft) O 90 ° 0 min 0,000 mm 2,9 UV-I 446 W/m² 6,4 °C 14,3 °C 1,6 km/h (1 Bft)
11.10.2019 14:10 14,3 °C 59 % 1019,1 hPa 0,0 mm 1,6 km/h (1 Bft) O 90 ° 0 min 0,000 mm 2,9 UV-I 436 W/m² 6,4 °C 14,3 °C 3,2 km/h (1 Bft)
11.10.2019 14:11 14,3 °C 62 % 1019,1 hPa 0,0 mm 1,6 km/h (1 Bft) O 90 ° 0 min 0,000 mm 2,9 UV-I 424 W/m² 7,1 °C 14,3 °C 3,2 km/h (1 Bft)
11.10.2019 14:12 14,2 °C 63 % 1019,1 hPa 0,0 mm 2,0 km/h (1 Bft) O 90 ° 0 min 0,000 mm 3,0 UV-I 415 W/m² 7,3 °C 14,2 °C 4,8 km/h (1 Bft)
11.10.2019 14:13 14,2 °C 60 % 1019,2 hPa 0,0 mm 1,8 km/h (1 Bft) O 90 ° 0 min 0,000 mm 2,7 UV-I 459 W/m² 6,5 °C 14,2 °C 3,2 km/h (1 Bft)
11.10.2019 14:14 14,1 °C 62 % 1019,1 hPa 0,0 mm 2,7 km/h (1 Bft) O 90 ° 0 min 0,000 mm 3,0 UV-I 482 W/m² 6,9 °C 14,1 °C 4,8 km/h (1 Bft)
11.10.2019 14:15 14,1 °C 60 % 1019,0 hPa 0,0 mm 1,3 km/h (1 Bft) O 90 ° 0 min 0,000 mm 3,1 UV-I 517 W/m² 6,5 °C 14,1 °C 3,2 km/h (1 Bft)
11.10.2019 14:16 14,2 °C 65 % 1019,1 hPa 0,0 mm 0,5 km/h (0 Bft) O 90 ° 0 min 0,000 mm 3,2 UV-I 527 W/m² 7,7 °C 14,2 °C 1,6 km/h (1 Bft)
11.10.2019 14:17 14,3 °C 62 % 1019,0 hPa 0,0 mm 0,0 km/h (0 Bft) O 90 ° 0 min 0,000 mm 3,2 UV-I 534 W/m² 7,1 °C 14,3 °C 0,0 km/h (0 Bft)
11.10.2019 14:18 14,3 °C 61 % 1019,0 hPa 0,0 mm 0,0 km/h (0 Bft) O 90 ° 0 min 0,000 mm 3,2 UV-I 531 W/m² 6,9 °C 14,3 °C 0,0 km/h (0 Bft)
11.10.2019 14:19 14,4 °C 61 % 1019,1 hPa 0,0 mm 0,0 km/h (0 Bft) O 90 ° 0 min 0,000 mm 3,2 UV-I 548 W/m² 7,0 °C 14,4 °C 0,0 km/h (0 Bft)
11.10.2019 14:20 14,4 °C 61 % 1019,1 hPa 0,0 mm 0,0 km/h (0 Bft) O 90 ° 0 min 0,000 mm 3,2 UV-I 543 W/m² 7,0 °C 14,4 °C 0,0 km/h (0 Bft)
11.10.2019 14:21 14,4 °C 62 % 1019,1 hPa 0,0 mm 0,0 km/h (0 Bft) O 90 ° 0 min 0,000 mm 3,2 UV-I 543 W/m² 7,2 °C 14,4 °C 0,0 km/h (0 Bft)
11.10.2019 14:22 14,4 °C 60 % 1019,0 hPa 0,0 mm 0,0 km/h (0 Bft) O 90 ° 0 min 0,000 mm 3,2 UV-I 540 W/m² 6,7 °C 14,4 °C 0,0 km/h (0 Bft)
11.10.2019 14:23 14,5 °C 68 % 1019,0 hPa 0,0 mm 0,0 km/h (0 Bft) O 90 ° 0 min 0,000 mm 3,2 UV-I 548 W/m² 8,7 °C 14,5 °C 0,0 km/h (0 Bft)
11.10.2019 14:24 14,7 °C 68 % 1019,0 hPa 0,0 mm 0,0 km/h (0 Bft) O 90 ° 0 min 0,000 mm 3,2 UV-I 543 W/m² 8,9 °C 14,7 °C 0,0 km/h (0 Bft)
11.10.2019 14:25 14,9 °C 59 % 1019,0 hPa 0,0 mm 0,0 km/h (0 Bft) O 90 ° 0 min 0,000 mm 3,2 UV-I 545 W/m² 7,0 °C 14,9 °C 0,0 km/h (0 Bft)
11.10.2019 14:26 15,0 °C 58 % 1018,9 hPa 0,0 mm 1,5 km/h (1 Bft) O 90 ° 0 min 0,000 mm 3,2 UV-I 545 W/m² 6,8 °C 15,0 °C 3,2 km/h (1 Bft)
11.10.2019 14:27 15,0 °C 57 % 1018,9 hPa 0,0 mm 2,6 km/h (1 Bft) O 90 ° 0 min 0,000 mm 3,2 UV-I 536 W/m² 6,6 °C 15,0 °C 3,2 km/h (1 Bft)
11.10.2019 14:28 14,9 °C 57 % 1018,9 hPa 0,0 mm 0,7 km/h (0 Bft) O 90 ° 0 min 0,000 mm 3,2 UV-I 541 W/m² 6,5 °C 14,9 °C 3,2 km/h (1 Bft)
11.10.2019 14:29 14,9 °C 58 % 1018,9 hPa 0,0 mm 3,4 km/h (1 Bft) O 90 ° 0 min 0,000 mm 3,2 UV-I 540 W/m² 6,7 °C 14,9 °C 6,4 km/h (2 Bft)
11.10.2019 14:30 14,9 °C 61 % 1018,9 hPa 0,0 mm 0,5 km/h (0 Bft) O 90 ° 0 min 0,000 mm 3,2 UV-I 541 W/m² 7,4 °C 14,9 °C 1,6 km/h (1 Bft)
11.10.2019 14:31 14,8 °C 60 % 1018,9 hPa 0,0 mm 1,7 km/h (1 Bft) O 90 ° 0 min 0,000 mm 3,1 UV-I 541 W/m² 7,1 °C 14,8 °C 3,2 km/h (1 Bft)
11.10.2019 14:32 14,7 °C 59 % 1018,9 hPa 0,0 mm 1,0 km/h (0 Bft) O 88 ° 0 min 0,000 mm 3,1 UV-I 541 W/m² 6,8 °C 14,7 °C 4,8 km/h (1 Bft)
11.10.2019 14:33 14,7 °C 61 % 1018,9 hPa 0,0 mm 0,1 km/h (0 Bft) O 88 ° 0 min 0,000 mm 3,1 UV-I 540 W/m² 7,3 °C 14,7 °C 1,6 km/h (1 Bft)
11.10.2019 14:34 14,8 °C 59 % 1018,9 hPa 0,0 mm 0,0 km/h (0 Bft) O 88 ° 0 min 0,000 mm 3,1 UV-I 531 W/m² 6,9 °C 14,8 °C 0,0 km/h (0 Bft)
11.10.2019 14:35 15,1 °C 60 % 1018,9 hPa 0,0 mm 0,1 km/h (0 Bft) O 88 ° 0 min 0,000 mm 3,1 UV-I 533 W/m² 7,4 °C 15,1 °C 1,6 km/h (1 Bft)
11.10.2019 14:36 15,2 °C 57 % 1018,8 hPa 0,0 mm 0,1 km/h (0 Bft) O 88 ° 0 min 0,000 mm 3,1 UV-I 538 W/m² 6,7 °C 15,2 °C 1,6 km/h (1 Bft)
11.10.2019 14:37 15,1 °C 57 % 1018,9 hPa 0,0 mm 1,0 km/h (0 Bft) O 89 ° 0 min 0,000 mm 3,1 UV-I 538 W/m² 6,6 °C 15,1 °C 3,2 km/h (1 Bft)
11.10.2019 14:38 15,1 °C 56 % 1018,8 hPa 0,0 mm 2,0 km/h (1 Bft) O 90 ° 0 min 0,000 mm 3,1 UV-I 536 W/m² 6,4 °C 15,1 °C 4,8 km/h (1 Bft)
11.10.2019 14:39 15,2 °C 58 % 1018,9 hPa 0,0 mm 2,7 km/h (1 Bft) O 90 ° 0 min 0,000 mm 3,1 UV-I 536 W/m² 7,0 °C 15,2 °C 3,2 km/h (1 Bft)
11.10.2019 14:40 15,1 °C 58 % 1018,8 hPa 0,0 mm 4,1 km/h (1 Bft) O-SO 115 ° 0 min 0,000 mm 3,1 UV-I 536 W/m² 6,9 °C 15,1 °C 6,4 km/h (2 Bft)
11.10.2019 14:41 15,1 °C 57 % 1018,8 hPa 0,0 mm 2,1 km/h (1 Bft) O-SO 115 ° 0 min 0,000 mm 3,1 UV-I 536 W/m² 6,6 °C 15,1 °C 4,8 km/h (1 Bft)
11.10.2019 14:42 15,2 °C 57 % 1018,8 hPa 0,0 mm 0,0 km/h (0 Bft) O-SO 115 ° 0 min 0,000 mm 3,1 UV-I 534 W/m² 6,7 °C 15,2 °C 0,0 km/h (0 Bft)
11.10.2019 14:43 15,3 °C 59 % 1018,8 hPa 0,0 mm 0,0 km/h (0 Bft) O-SO 115 ° 0 min 0,000 mm 3,0 UV-I 533 W/m² 7,3 °C 15,3 °C 0,0 km/h (0 Bft)
11.10.2019 14:44 15,4 °C 58 % 1018,7 hPa 0,0 mm 0,0 km/h (0 Bft) O-SO 115 ° 0 min 0,000 mm 3,0 UV-I 531 W/m² 7,2 °C 15,4 °C 0,0 km/h (0 Bft)
11.10.2019 14:45 15,4 °C 58 % 1018,7 hPa 0,0 mm 0,0 km/h (0 Bft) O-SO 115 ° 0 min 0,000 mm 3,0 UV-I 527 W/m² 7,2 °C 15,4 °C 0,0 km/h (0 Bft)
11.10.2019 14:46 15,2 °C 60 % 1018,7 hPa 0,0 mm 0,0 km/h (0 Bft) O-SO 115 ° 0 min 0,000 mm 3,0 UV-I 524 W/m² 7,5 °C 15,2 °C 0,0 km/h (0 Bft)
11.10.2019 14:47 15,1 °C 60 % 1018,7 hPa 0,0 mm 0,0 km/h (0 Bft) O-SO 115 ° 0 min 0,000 mm 3,0 UV-I 508 W/m² 7,4 °C 15,1 °C 0,0 km/h (0 Bft)
11.10.2019 14:48 15,1 °C 67 % 1018,7 hPa 0,0 mm 0,0 km/h (0 Bft) O-SO 115 ° 0 min 0,000 mm 3,0 UV-I 512 W/m² 9,0 °C 15,1 °C 0,0 km/h (0 Bft)
11.10.2019 14:49 14,9 °C 62 % 1018,7 hPa 0,0 mm 0,0 km/h (0 Bft) O-SO 115 ° 0 min 0,000 mm 2,9 UV-I 508 W/m² 7,7 °C 14,9 °C 0,0 km/h (0 Bft)
11.10.2019 14:50 15,0 °C 63 % 1018,6 hPa 0,0 mm 0,0 km/h (0 Bft) O-SO 115 ° 0 min 0,000 mm 2,9 UV-I 501 W/m² 8,0 °C 15,0 °C 0,0 km/h (0 Bft)
11.10.2019 14:51 15,0 °C 65 % 1018,7 hPa 0,0 mm 0,0 km/h (0 Bft) O-SO 115 ° 0 min 0,000 mm 2,9 UV-I 501 W/m² 8,5 °C 15,0 °C 0,0 km/h (0 Bft)
11.10.2019 14:52 15,1 °C 60 % 1018,7 hPa 0,0 mm 0,0 km/h (0 Bft) O-SO 115 ° 0 min 0,000 mm 2,9 UV-I 494 W/m² 7,4 °C 15,1 °C 0,0 km/h (0 Bft)
11.10.2019 14:53 15,2 °C 60 % 1018,6 hPa 0,0 mm 0,0 km/h (0 Bft) O-SO 115 ° 0 min 0,000 mm 2,9 UV-I 512 W/m² 7,5 °C 15,2 °C 0,0 km/h (0 Bft)
11.10.2019 14:54 15,2 °C 59 % 1018,6 hPa 0,0 mm 0,0 km/h (0 Bft) O-SO 115 ° 0 min 0,000 mm 2,9 UV-I 513 W/m² 7,2 °C 15,2 °C 0,0 km/h (0 Bft)
11.10.2019 14:55 15,3 °C 64 % 1018,6 hPa 0,0 mm 0,0 km/h (0 Bft) O-SO 115 ° 0 min 0,000 mm 2,9 UV-I 515 W/m² 8,5 °C 15,3 °C 0,0 km/h (0 Bft)
11.10.2019 14:56 15,2 °C 60 % 1018,6 hPa 0,0 mm 0,0 km/h (0 Bft) O-SO 115 ° 0 min 0,000 mm 2,9 UV-I 513 W/m² 7,5 °C 15,2 °C 0,0 km/h (0 Bft)
11.10.2019 14:57 15,2 °C 59 % 1018,6 hPa 0,0 mm 0,0 km/h (0 Bft) O-SO 115 ° 0 min 0,000 mm 2,8 UV-I 508 W/m² 7,2 °C 15,2 °C 0,0 km/h (0 Bft)
11.10.2019 14:58 15,2 °C 59 % 1018,7 hPa 0,0 mm 0,0 km/h (0 Bft) O-SO 115 ° 0 min 0,000 mm 2,8 UV-I 513 W/m² 7,2 °C 15,2 °C 0,0 km/h (0 Bft)
11.10.2019 14:59 15,2 °C 58 % 1018,6 hPa 0,0 mm 0,0 km/h (0 Bft) O-SO 115 ° 0 min 0,000 mm 2,8 UV-I 508 W/m² 7,0 °C 15,2 °C 0,0 km/h (0 Bft)
11.10.2019 15:00 15,3 °C 62 % 1018,6 hPa 0,0 mm 0,0 km/h (0 Bft) O-SO 115 ° 0 min 0,000 mm 2,8 UV-I 504 W/m² 8,1 °C 15,3 °C 0,0 km/h (0 Bft)
11.10.2019 15:01 15,4 °C 62 % 1018,6 hPa 0,0 mm 0,0 km/h (0 Bft) O-SO 115 ° 0 min 0,279 mm 2,8 UV-I 503 W/m² 8,2 °C 15,4 °C 0,0 km/h (0 Bft)
11.10.2019 15:02 15,5 °C 60 % 1018,6 hPa 0,0 mm 0,0 km/h (0 Bft) O-SO 115 ° 0 min 0,000 mm 2,8 UV-I 499 W/m² 7,8 °C 15,5 °C 0,0 km/h (0 Bft)
11.10.2019 15:03 15,6 °C 62 % 1018,6 hPa 0,0 mm 0,0 km/h (0 Bft) O-SO 115 ° 0 min 0,000 mm 2,8 UV-I 496 W/m² 8,3 °C 15,6 °C 0,0 km/h (0 Bft)
11.10.2019 15:04 15,6 °C 60 % 1018,5 hPa 0,0 mm 0,0 km/h (0 Bft) O-SO 115 ° 0 min 0,000 mm 2,7 UV-I 494 W/m² 7,9 °C 15,6 °C 0,0 km/h (0 Bft)
11.10.2019 15:05 15,5 °C 58 % 1018,5 hPa 0,0 mm 0,0 km/h (0 Bft) O-SO 115 ° 0 min 0,000 mm 2,7 UV-I 489 W/m² 7,3 °C 15,5 °C 0,0 km/h (0 Bft)
11.10.2019 15:06 15,4 °C 58 % 1018,5 hPa 0,0 mm 0,0 km/h (0 Bft) O-SO 115 ° 0 min 0,000 mm 2,7 UV-I 487 W/m² 7,2 °C 15,4 °C 0,0 km/h (0 Bft)
11.10.2019 15:07 15,3 °C 57 % 1018,5 hPa 0,0 mm 0,0 km/h (0 Bft) O-SO 115 ° 0 min 0,000 mm 2,7 UV-I 483 W/m² 6,8 °C 15,3 °C 0,0 km/h (0 Bft)
11.10.2019 15:08 15,3 °C 62 % 1018,5 hPa 0,0 mm 0,0 km/h (0 Bft) O-SO 115 ° 0 min 0,000 mm 2,7 UV-I 483 W/m² 8,1 °C 15,3 °C 0,0 km/h (0 Bft)
11.10.2019 15:09 15,3 °C 60 % 1018,4 hPa 0,0 mm 0,0 km/h (0 Bft) O-SO 115 ° 0 min 0,000 mm 2,6 UV-I 480 W/m² 7,6 °C 15,3 °C 0,0 km/h (0 Bft)
11.10.2019 15:10 15,2 °C 62 % 1018,4 hPa 0,0 mm 0,0 km/h (0 Bft) O-SO 115 ° 0 min 0,000 mm 2,6 UV-I 480 W/m² 8,0 °C 15,2 °C 0,0 km/h (0 Bft)
11.10.2019 15:11 15,2 °C 59 % 1018,4 hPa 0,2 mm 0,0 km/h (0 Bft) O-SO 115 ° 0 min 0,000 mm 2,6 UV-I 476 W/m² 7,2 °C 15,2 °C 0,0 km/h (0 Bft)
11.10.2019 15:12 15,3 °C 57 % 1018,4 hPa 0,0 mm 0,0 km/h (0 Bft) O-SO 115 ° 0 min 0,000 mm 2,6 UV-I 466 W/m² 6,8 °C 15,3 °C 0,0 km/h (0 Bft)
11.10.2019 15:13 15,4 °C 60 % 1018,4 hPa 0,0 mm 0,0 km/h (0 Bft) O-SO 115 ° 0 min 0,000 mm 2,6 UV-I 471 W/m² 7,7 °C 15,4 °C 0,0 km/h (0 Bft)
11.10.2019 15:14 15,4 °C 62 % 1018,4 hPa 0,0 mm 0,0 km/h (0 Bft) O-SO 115 ° 0 min 0,000 mm 2,6 UV-I 471 W/m² 8,2 °C 15,4 °C 0,0 km/h (0 Bft)
11.10.2019 15:15 15,4 °C 62 % 1018,4 hPa 0,0 mm 0,0 km/h (0 Bft) O-SO 115 ° 0 min 0,000 mm 2,5 UV-I 468 W/m² 8,2 °C 15,4 °C 0,0 km/h (0 Bft)
11.10.2019 15:16 15,3 °C 63 % 1018,4 hPa 0,0 mm 0,0 km/h (0 Bft) O-SO 115 ° 0 min 0,000 mm 2,5 UV-I 466 W/m² 8,3 °C 15,3 °C 0,0 km/h (0 Bft)
11.10.2019 15:17 15,3 °C 61 % 1018,4 hPa 0,0 mm 0,0 km/h (0 Bft) O-SO 115 ° 0 min 0,000 mm 2,5 UV-I 462 W/m² 7,8 °C 15,3 °C 0,0 km/h (0 Bft)
11.10.2019 15:18 15,4 °C 62 % 1018,4 hPa 0,0 mm 0,0 km/h (0 Bft) O-SO 115 ° 0 min 0,000 mm 2,5 UV-I 461 W/m² 8,2 °C 15,4 °C 0,0 km/h (0 Bft)
11.10.2019 15:19 15,3 °C 62 % 1018,4 hPa 0,0 mm 0,0 km/h (0 Bft) O-SO 115 ° 0 min 0,000 mm 2,5 UV-I 461 W/m² 8,1 °C 15,3 °C 0,0 km/h (0 Bft)
11.10.2019 15:20 15,3 °C 60 % 1018,4 hPa 0,0 mm 0,0 km/h (0 Bft) O-SO 115 ° 0 min 0,000 mm 2,4 UV-I 457 W/m² 7,6 °C 15,3 °C 0,0 km/h (0 Bft)
11.10.2019 15:21 15,3 °C 59 % 1018,4 hPa 0,0 mm 0,3 km/h (0 Bft) O-SO 104 ° 0 min 0,000 mm 2,4 UV-I 455 W/m² 7,3 °C 15,3 °C 3,2 km/h (1 Bft)
11.10.2019 15:22 15,3 °C 62 % 1018,3 hPa 0,0 mm 2,7 km/h (1 Bft) O-SO 104 ° 0 min 0,000 mm 2,4 UV-I 455 W/m² 8,1 °C 15,3 °C 4,8 km/h (1 Bft)
11.10.2019 15:23 15,3 °C 61 % 1018,4 hPa 0,0 mm 0,0 km/h (0 Bft) O-SO 103 ° 0 min 0,000 mm 2,4 UV-I 448 W/m² 7,8 °C 15,3 °C 0,0 km/h (0 Bft)
11.10.2019 15:24 15,4 °C 61 % 1018,4 hPa 0,0 mm 0,0 km/h (0 Bft) O-SO 103 ° 0 min 0,000 mm 2,4 UV-I 446 W/m² 7,9 °C 15,4 °C 0,0 km/h (0 Bft)
11.10.2019 15:25 15,5 °C 60 % 1018,3 hPa 0,0 mm 0,0 km/h (0 Bft) O-SO 103 ° 0 min 0,000 mm 2,4 UV-I 445 W/m² 7,8 °C 15,5 °C 0,0 km/h (0 Bft)
11.10.2019 15:26 15,4 °C 62 % 1018,4 hPa 0,0 mm 0,0 km/h (0 Bft) O-SO 103 ° 0 min 0,000 mm 2,3 UV-I 443 W/m² 8,2 °C 15,4 °C 0,0 km/h (0 Bft)
11.10.2019 15:27 15,4 °C 66 % 1018,3 hPa 0,0 mm 0,0 km/h (0 Bft) O-SO 103 ° 0 min 0,000 mm 2,3 UV-I 441 W/m² 9,1 °C 15,4 °C 0,0 km/h (0 Bft)
11.10.2019 15:28 15,3 °C 65 % 1018,3 hPa 0,0 mm 0,0 km/h (0 Bft) O-SO 103 ° 0 min 0,000 mm 2,3 UV-I 441 W/m² 8,8 °C 15,3 °C 0,0 km/h (0 Bft)
11.10.2019 15:29 15,3 °C 65 % 1018,4 hPa 0,0 mm 0,0 km/h (0 Bft) O-SO 103 ° 0 min 0,000 mm 2,3 UV-I 436 W/m² 8,8 °C 15,3 °C 0,0 km/h (0 Bft)
11.10.2019 15:30 15,3 °C 65 % 1018,4 hPa 0,0 mm 0,0 km/h (0 Bft) O-SO 103 ° 0 min 0,000 mm 2,3 UV-I 434 W/m² 8,8 °C 15,3 °C 0,0 km/h (0 Bft)
11.10.2019 15:31 15,3 °C 64 % 1018,4 hPa 0,0 mm 0,0 km/h (0 Bft) O-SO 103 ° 0 min 0,000 mm 2,3 UV-I 432 W/m² 8,5 °C 15,3 °C 0,0 km/h (0 Bft)
11.10.2019 15:32 15,3 °C 63 % 1018,3 hPa 0,0 mm 0,0 km/h (0 Bft) O-SO 103 ° 0 min 0,000 mm 2,2 UV-I 431 W/m² 8,3 °C 15,3 °C 0,0 km/h (0 Bft)
11.10.2019 15:33 15,4 °C 65 % 1018,4 hPa 0,0 mm 0,0 km/h (0 Bft) O-SO 103 ° 0 min 0,000 mm 2,2 UV-I 429 W/m² 8,9 °C 15,4 °C 0,0 km/h (0 Bft)
11.10.2019 15:34 15,5 °C 67 % 1018,3 hPa 0,0 mm 0,0 km/h (0 Bft) O-SO 103 ° 0 min 0,000 mm 2,2 UV-I 424 W/m² 9,4 °C 15,5 °C 0,0 km/h (0 Bft)
11.10.2019 15:35 15,5 °C 64 % 1018,3 hPa 0,0 mm 0,0 km/h (0 Bft) O-SO 103 ° 0 min 0,000 mm 2,2 UV-I 422 W/m² 8,7 °C 15,5 °C 0,0 km/h (0 Bft)
11.10.2019 15:36 15,4 °C 63 % 1018,3 hPa 0,0 mm 0,0 km/h (0 Bft) O-SO 103 ° 0 min 0,000 mm 2,2 UV-I 420 W/m² 8,4 °C 15,4 °C 0,0 km/h (0 Bft)
11.10.2019 15:37 15,4 °C 64 % 1018,3 hPa 0,0 mm 0,0 km/h (0 Bft) O-SO 103 ° 0 min 0,000 mm 2,2 UV-I 418 W/m² 8,6 °C 15,4 °C 0,0 km/h (0 Bft)
11.10.2019 15:38 15,4 °C 67 % 1018,3 hPa 0,0 mm 0,0 km/h (0 Bft) O-SO 103 ° 0 min 0,000 mm 2,2 UV-I 417 W/m² 9,3 °C 15,4 °C 0,0 km/h (0 Bft)
11.10.2019 15:39 15,4 °C 63 % 1018,3 hPa 0,0 mm 0,0 km/h (0 Bft) O-SO 103 ° 0 min 0,000 mm 2,1 UV-I 415 W/m² 8,4 °C 15,4 °C 0,0 km/h (0 Bft)
11.10.2019 15:40 15,4 °C 63 % 1018,3 hPa 0,0 mm 0,0 km/h (0 Bft) O-SO 103 ° 0 min 0,000 mm 2,1 UV-I 408 W/m² 8,4 °C 15,4 °C 0,0 km/h (0 Bft)
11.10.2019 15:41 15,5 °C 64 % 1018,3 hPa 0,0 mm 0,0 km/h (0 Bft) O-SO 103 ° 0 min 0,000 mm 2,1 UV-I 406 W/m² 8,7 °C 15,5 °C 0,0 km/h (0 Bft)
11.10.2019 15:42 15,5 °C 68 % 1018,3 hPa 0,0 mm 0,0 km/h (0 Bft) O-SO 103 ° 0 min 0,000 mm 2,1 UV-I 406 W/m² 9,6 °C 15,5 °C 0,0 km/h (0 Bft)
11.10.2019 15:43 15,4 °C 66 % 1018,3 hPa 0,0 mm 0,0 km/h (0 Bft) O-SO 103 ° 0 min 0,000 mm 2,1 UV-I 404 W/m² 9,1 °C 15,4 °C 0,0 km/h (0 Bft)
11.10.2019 15:44 15,4 °C 65 % 1018,3 hPa 0,0 mm 0,0 km/h (0 Bft) O-SO 103 ° 0 min 0,000 mm 2,1 UV-I 404 W/m² 8,9 °C 15,4 °C 0,0 km/h (0 Bft)
11.10.2019 15:45 15,3 °C 69 % 1018,3 hPa 0,0 mm 0,0 km/h (0 Bft) O-SO 103 ° 0 min 0,000 mm 2,0 UV-I 401 W/m² 9,6 °C 15,3 °C 0,0 km/h (0 Bft)
11.10.2019 15:46 15,3 °C 67 % 1018,3 hPa 0,0 mm 0,0 km/h (0 Bft) O-SO 103 ° 0 min 0,000 mm 2,0 UV-I 397 W/m² 9,2 °C 15,3 °C 0,0 km/h (0 Bft)
11.10.2019 15:47 15,2 °C 67 % 1018,2 hPa 0,0 mm 1,3 km/h (1 Bft) N-NW 331 ° 0 min 0,000 mm 2,0 UV-I 396 W/m² 9,1 °C 15,2 °C 3,2 km/h (1 Bft)
11.10.2019 15:48 15,2 °C 66 % 1018,3 hPa 0,0 mm 0,4 km/h (0 Bft) N-NW 331 ° 0 min 0,000 mm 2,0 UV-I 392 W/m² 8,9 °C 15,2 °C 1,6 km/h (1 Bft)
11.10.2019 15:49 15,1 °C 67 % 1018,2 hPa 0,0 mm 0,0 km/h (0 Bft) N-NW 331 ° 0 min 0,000 mm 2,0 UV-I 390 W/m² 9,0 °C 15,1 °C 0,0 km/h (0 Bft)
11.10.2019 15:50 15,1 °C 67 % 1018,2 hPa 0,0 mm 0,0 km/h (0 Bft) N-NW 331 ° 0 min 0,000 mm 2,0 UV-I 388 W/m² 9,0 °C 15,1 °C 0,0 km/h (0 Bft)
11.10.2019 15:51 15,2 °C 64 % 1018,1 hPa 0,0 mm 0,0 km/h (0 Bft) N-NW 331 ° 0 min 0,000 mm 1,9 UV-I 387 W/m² 8,4 °C 15,2 °C 0,0 km/h (0 Bft)
11.10.2019 15:52 15,6 °C 62 % 1018,2 hPa 0,0 mm 0,0 km/h (0 Bft) N-NW 331 ° 0 min 0,000 mm 1,9 UV-I 383 W/m² 8,3 °C 15,6 °C 0,0 km/h (0 Bft)
11.10.2019 15:53 15,7 °C 64 % 1018,1 hPa 0,0 mm 0,0 km/h (0 Bft) N-NW 331 ° 0 min 0,000 mm 1,9 UV-I 380 W/m² 8,9 °C 15,7 °C 0,0 km/h (0 Bft)
11.10.2019 15:54 15,8 °C 65 % 1018,2 hPa 0,0 mm 0,0 km/h (0 Bft) N-NW 331 ° 0 min 0,000 mm 1,9 UV-I 378 W/m² 9,2 °C 15,8 °C 0,0 km/h (0 Bft)
11.10.2019 15:55 15,7 °C 65 % 1018,2 hPa 0,0 mm 0,0 km/h (0 Bft) N-NW 331 ° 0 min 0,000 mm 1,9 UV-I 376 W/m² 9,1 °C 15,7 °C 0,0 km/h (0 Bft)
11.10.2019 15:56 15,6 °C 63 % 1018,2 hPa 0,0 mm 0,0 km/h (0 Bft) N-NW 331 ° 0 min 0,000 mm 1,9 UV-I 374 W/m² 8,6 °C 15,6 °C 0,0 km/h (0 Bft)
11.10.2019 15:57 15,6 °C 63 % 1018,2 hPa 0,0 mm 0,0 km/h (0 Bft) N-NW 331 ° 0 min 0,000 mm 1,9 UV-I 373 W/m² 8,6 °C 15,6 °C 0,0 km/h (0 Bft)
11.10.2019 15:58 15,6 °C 65 % 1018,2 hPa 0,0 mm 0,0 km/h (0 Bft) N-NW 331 ° 0 min 0,000 mm 1,8 UV-I 369 W/m² 9,0 °C 15,6 °C 0,0 km/h (0 Bft)
11.10.2019 15:59 15,6 °C 64 % 1018,1 hPa 0,0 mm 0,0 km/h (0 Bft) N-NW 331 ° 0 min 0,000 mm 1,8 UV-I 366 W/m² 8,8 °C 15,6 °C 0,0 km/h (0 Bft)
11.10.2019 16:00 15,6 °C 65 % 1018,2 hPa 0,0 mm 0,0 km/h (0 Bft) N-NW 331 ° 0 min 0,000 mm 1,8 UV-I 364 W/m² 9,0 °C 15,6 °C 0,0 km/h (0 Bft)
11.10.2019 16:01 15,5 °C 63 % 1018,1 hPa 0,0 mm 0,0 km/h (0 Bft) N-NW 331 ° 0 min 0,229 mm 1,8 UV-I 362 W/m² 8,5 °C 15,5 °C 0,0 km/h (0 Bft)
11.10.2019 16:02 15,5 °C 63 % 1018,1 hPa 0,0 mm 0,0 km/h (0 Bft) N-NW 331 ° 0 min 0,000 mm 1,8 UV-I 359 W/m² 8,5 °C 15,5 °C 0,0 km/h (0 Bft)
11.10.2019 16:03 15,5 °C 64 % 1018,1 hPa 0,0 mm 0,0 km/h (0 Bft) N-NW 331 ° 0 min 0,000 mm 1,7 UV-I 357 W/m² 8,7 °C 15,5 °C 0,0 km/h (0 Bft)
11.10.2019 16:04 15,5 °C 63 % 1018,1 hPa 0,0 mm 0,0 km/h (0 Bft) N-NW 331 ° 0 min 0,000 mm 1,7 UV-I 353 W/m² 8,5 °C 15,5 °C 0,0 km/h (0 Bft)
11.10.2019 16:05 15,6 °C 63 % 1018,0 hPa 0,0 mm 0,0 km/h (0 Bft) N-NW 331 ° 0 min 0,000 mm 1,7 UV-I 352 W/m² 8,6 °C 15,6 °C 0,0 km/h (0 Bft)
11.10.2019 16:06 15,6 °C 63 % 1018,0 hPa 0,0 mm 0,0 km/h (0 Bft) N-NW 331 ° 0 min 0,000 mm 1,7 UV-I 350 W/m² 8,6 °C 15,6 °C 0,0 km/h (0 Bft)
11.10.2019 16:07 15,6 °C 63 % 1018,0 hPa 0,0 mm 0,0 km/h (0 Bft) N-NW 331 ° 0 min 0,000 mm 1,7 UV-I 346 W/m² 8,6 °C 15,6 °C 0,0 km/h (0 Bft)
11.10.2019 16:08 15,6 °C 65 % 1018,0 hPa 0,0 mm 0,0 km/h (0 Bft) N-NW 331 ° 0 min 0,000 mm 1,6 UV-I 345 W/m² 9,0 °C 15,6 °C 0,0 km/h (0 Bft)
11.10.2019 16:09 15,4 °C 67 % 1018,0 hPa 0,0 mm 0,0 km/h (0 Bft) N-NW 331 ° 0 min 0,000 mm 1,6 UV-I 345 W/m² 9,3 °C 15,4 °C 0,0 km/h (0 Bft)
11.10.2019 16:10 15,3 °C 68 % 1018,0 hPa 0,0 mm 0,0 km/h (0 Bft) N-NW 331 ° 0 min 0,000 mm 1,6 UV-I 339 W/m² 9,4 °C 15,3 °C 0,0 km/h (0 Bft)
11.10.2019 16:11 15,2 °C 66 % 1017,9 hPa 0,0 mm 0,0 km/h (0 Bft) N-NW 331 ° 0 min 0,000 mm 1,5 UV-I 338 W/m² 8,9 °C 15,2 °C 0,0 km/h (0 Bft)
11.10.2019 16:12 15,2 °C 68 % 1017,9 hPa 0,0 mm 0,0 km/h (0 Bft) N-NW 331 ° 0 min 0,000 mm 1,5 UV-I 334 W/m² 9,3 °C 15,2 °C 0,0 km/h (0 Bft)
11.10.2019 16:13 15,2 °C 67 % 1018,0 hPa 0,0 mm 0,0 km/h (0 Bft) N-NW 331 ° 0 min 0,000 mm 1,5 UV-I 325 W/m² 9,1 °C 15,2 °C 0,0 km/h (0 Bft)
11.10.2019 16:14 15,2 °C 68 % 1017,9 hPa 0,0 mm 0,0 km/h (0 Bft) N-NW 331 ° 0 min 0,000 mm 1,3 UV-I 250 W/m² 9,3 °C 15,2 °C 0,0 km/h (0 Bft)
11.10.2019 16:15 15,2 °C 69 % 1017,9 hPa 0,0 mm 0,0 km/h (0 Bft) N-NW 331 ° 0 min 0,000 mm 1,2 UV-I 190 W/m² 9,6 °C 15,2 °C 0,0 km/h (0 Bft)
11.10.2019 16:16 15,2 °C 71 % 1017,9 hPa 0,0 mm 0,0 km/h (0 Bft) N-NW 331 ° 0 min 0,000 mm 1,2 UV-I 123 W/m² 10,0 °C 15,2 °C 0,0 km/h (0 Bft)
11.10.2019 16:17 15,1 °C 70 % 1017,8 hPa 0,0 mm 0,0 km/h (0 Bft) N-NW 331 ° 0 min 0,000 mm 1,1 UV-I 72 W/m² 9,7 °C 15,1 °C 0,0 km/h (0 Bft)
11.10.2019 16:18 15,1 °C 68 % 1017,7 hPa 0,0 mm 0,0 km/h (0 Bft) N-NW 331 ° 0 min 0,000 mm 1,1 UV-I 63 W/m² 9,2 °C 15,1 °C 0,0 km/h (0 Bft)
11.10.2019 16:19 14,9 °C 70 % 1017,8 hPa 0,0 mm 0,0 km/h (0 Bft) N-NW 331 ° 0 min 0,000 mm 1,1 UV-I 65 W/m² 9,5 °C 14,9 °C 0,0 km/h (0 Bft)
11.10.2019 16:20 14,9 °C 70 % 1017,8 hPa 0,0 mm 0,0 km/h (0 Bft) N-NW 331 ° 0 min 0,000 mm 1,1 UV-I 105 W/m² 9,5 °C 14,9 °C 0,0 km/h (0 Bft)
11.10.2019 16:21 14,9 °C 70 % 1017,7 hPa 0,0 mm 0,0 km/h (0 Bft) N-NW 331 ° 0 min 0,000 mm 1,1 UV-I 83 W/m² 9,5 °C 14,9 °C 0,0 km/h (0 Bft)
11.10.2019 16:22 14,9 °C 69 % 1017,7 hPa 0,0 mm 0,0 km/h (0 Bft) N-NW 331 ° 0 min 0,000 mm 1,1 UV-I 65 W/m² 9,3 °C 14,9 °C 0,0 km/h (0 Bft)
11.10.2019 16:23 14,9 °C 69 % 1017,8 hPa 0,0 mm 0,0 km/h (0 Bft) N-NW 331 ° 0 min 0,000 mm 0,0 UV-I 51 W/m² 9,3 °C 14,9 °C 0,0 km/h (0 Bft)
11.10.2019 16:24 14,9 °C 68 % 1017,8 hPa 0,0 mm 0,0 km/h (0 Bft) N-NW 331 ° 0 min 0,000 mm 0,0 UV-I 39 W/m² 9,0 °C 14,9 °C 0,0 km/h (0 Bft)
11.10.2019 16:25 14,9 °C 72 % 1017,8 hPa 0,0 mm 0,0 km/h (0 Bft) N-NW 331 ° 0 min 0,000 mm 0,0 UV-I 37 W/m² 9,9 °C 14,9 °C 0,0 km/h (0 Bft)
11.10.2019 16:26 14,9 °C 70 % 1017,7 hPa 0,0 mm 0,0 km/h (0 Bft) N-NW 331 ° 0 min 0,000 mm 0,0 UV-I 44 W/m² 9,5 °C 14,9 °C 0,0 km/h (0 Bft)
11.10.2019 16:27 14,9 °C 69 % 1017,7 hPa 0,0 mm 0,0 km/h (0 Bft) N-NW 331 ° 0 min 0,000 mm 0,0 UV-I 35 W/m² 9,3 °C 14,9 °C 0,0 km/h (0 Bft)
11.10.2019 16:28 14,9 °C 68 % 1017,7 hPa 0,0 mm 0,0 km/h (0 Bft) N-NW 331 ° 0 min 0,000 mm 0,0 UV-I 46 W/m² 9,0 °C 14,9 °C 0,0 km/h (0 Bft)
11.10.2019 16:29 14,9 °C 66 % 1017,7 hPa 0,0 mm 0,0 km/h (0 Bft) N-NW 331 ° 0 min 0,000 mm 0,9 UV-I 56 W/m² 8,6 °C 14,9 °C 0,0 km/h (0 Bft)
11.10.2019 16:30 14,9 °C 71 % 1017,6 hPa 0,0 mm 1,3 km/h (1 Bft) O-SO 115 ° 0 min 0,000 mm 0,9 UV-I 56 W/m² 9,7 °C 14,9 °C 4,8 km/h (1 Bft)
11.10.2019 16:31 14,7 °C 69 % 1017,6 hPa 0,0 mm 3,4 km/h (1 Bft) O-SO 115 ° 0 min 0,000 mm 0,0 UV-I 44 W/m² 9,1 °C 14,7 °C 4,8 km/h (1 Bft)
11.10.2019 16:32 14,7 °C 69 % 1017,6 hPa 0,0 mm 1,9 km/h (1 Bft) O-SO 115 ° 0 min 0,000 mm 0,0 UV-I 49 W/m² 9,1 °C 14,7 °C 3,2 km/h (1 Bft)
11.10.2019 16:33 14,7 °C 69 % 1017,6 hPa 0,0 mm 0,0 km/h (0 Bft) O-SO 115 ° 0 min 0,000 mm 0,0 UV-I 46 W/m² 9,1 °C 14,7 °C 0,0 km/h (0 Bft)
11.10.2019 16:34 14,7 °C 68 % 1017,6 hPa 0,0 mm 0,0 km/h (0 Bft) O-SO 115 ° 0 min 0,000 mm 0,0 UV-I 49 W/m² 8,9 °C 14,7 °C 0,0 km/h (0 Bft)
11.10.2019 16:35 14,8 °C 68 % 1017,7 hPa 0,0 mm 0,0 km/h (0 Bft) O-SO 115 ° 0 min 0,000 mm 0,9 UV-I 70 W/m² 9,0 °C 14,8 °C 0,0 km/h (0 Bft)
11.10.2019 16:36 14,8 °C 70 % 1017,6 hPa 0,0 mm 0,0 km/h (0 Bft) O-SO 115 ° 0 min 0,000 mm 0,9 UV-I 88 W/m² 9,4 °C 14,8 °C 0,0 km/h (0 Bft)
11.10.2019 16:37 14,6 °C 72 % 1017,6 hPa 0,0 mm 2,0 km/h (1 Bft) O-SO 115 ° 0 min 0,000 mm 0,9 UV-I 70 W/m² 9,6 °C 14,6 °C 3,2 km/h (1 Bft)
11.10.2019 16:38 14,5 °C 72 % 1017,7 hPa 0,0 mm 3,6 km/h (1 Bft) O-SO 115 ° 0 min 0,000 mm 0,0 UV-I 40 W/m² 9,5 °C 14,5 °C 6,4 km/h (2 Bft)
11.10.2019 16:39 14,4 °C 72 % 1017,6 hPa 0,0 mm 2,7 km/h (1 Bft) O-SO 115 ° 0 min 0,000 mm 0,0 UV-I 28 W/m² 9,4 °C 14,4 °C 4,8 km/h (1 Bft)
11.10.2019 16:40 14,4 °C 70 % 1017,6 hPa 0,0 mm 0,9 km/h (0 Bft) O-SO 115 ° 0 min 0,000 mm 0,0 UV-I 28 W/m² 9,0 °C 14,4 °C 1,6 km/h (1 Bft)
11.10.2019 16:41 14,4 °C 70 % 1017,7 hPa 0,0 mm 2,0 km/h (1 Bft) O-SO 115 ° 0 min 0,000 mm 0,0 UV-I 26 W/m² 9,0 °C 14,4 °C 3,2 km/h (1 Bft)
11.10.2019 16:42 14,6 °C 69 % 1017,6 hPa 0,0 mm 2,1 km/h (1 Bft) O-SO 115 ° 0 min 0,000 mm 0,0 UV-I 26 W/m² 9,0 °C 14,6 °C 4,8 km/h (1 Bft)
11.10.2019 16:43 14,7 °C 67 % 1017,6 hPa 0,0 mm 1,6 km/h (1 Bft) O-SO 115 ° 0 min 0,000 mm 0,0 UV-I 26 W/m² 8,6 °C 14,7 °C 3,2 km/h (1 Bft)
11.10.2019 16:44 14,7 °C 69 % 1017,6 hPa 0,0 mm 0,0 km/h (0 Bft) O-SO 115 ° 0 min 0,000 mm 0,0 UV-I 26 W/m² 9,1 °C 14,7 °C 0,0 km/h (0 Bft)
11.10.2019 16:45 14,7 °C 69 % 1017,6 hPa 0,0 mm 0,0 km/h (0 Bft) O-SO 115 ° 0 min 0,000 mm 0,0 UV-I 26 W/m² 9,1 °C 14,7 °C 0,0 km/h (0 Bft)
11.10.2019 16:46 14,7 °C 69 % 1017,6 hPa 0,0 mm 0,0 km/h (0 Bft) O-SO 115 ° 0 min 0,000 mm 0,0 UV-I 26 W/m² 9,1 °C 14,7 °C 0,0 km/h (0 Bft)
11.10.2019 16:47 14,7 °C 69 % 1017,7 hPa 0,0 mm 0,0 km/h (0 Bft) O-SO 115 ° 0 min 0,000 mm 0,0 UV-I 26 W/m² 9,1 °C 14,7 °C 0,0 km/h (0 Bft)
11.10.2019 16:48 14,7 °C 68 % 1017,6 hPa 0,0 mm 0,0 km/h (0 Bft) O-SO 115 ° 0 min 0,000 mm 0,0 UV-I 26 W/m² 8,9 °C 14,7 °C 0,0 km/h (0 Bft)
11.10.2019 16:49 14,6 °C 68 % 1017,6 hPa 0,0 mm 0,0 km/h (0 Bft) O-SO 115 ° 0 min 0,000 mm 0,0 UV-I 26 W/m² 8,8 °C 14,6 °C 0,0 km/h (0 Bft)
11.10.2019 16:50 14,6 °C 69 % 1017,6 hPa 0,0 mm 0,0 km/h (0 Bft) O-SO 115 ° 0 min 0,000 mm 0,0 UV-I 26 W/m² 9,0 °C 14,6 °C 0,0 km/h (0 Bft)
11.10.2019 16:51 14,6 °C 68 % 1017,6 hPa 0,0 mm 1,5 km/h (1 Bft) O-SO 115 ° 0 min 0,000 mm 0,0 UV-I 26 W/m² 8,8 °C 14,6 °C 3,2 km/h (1 Bft)
11.10.2019 16:52 14,5 °C 69 % 1017,6 hPa 0,0 mm 0,3 km/h (0 Bft) O-SO 115 ° 0 min 0,000 mm 0,0 UV-I 26 W/m² 8,9 °C 14,5 °C 1,6 km/h (1 Bft)
11.10.2019 16:53 14,6 °C 68 % 1017,6 hPa 0,0 mm 0,7 km/h (0 Bft) O-SO 115 ° 0 min 0,000 mm 0,0 UV-I 26 W/m² 8,8 °C 14,6 °C 1,6 km/h (1 Bft)
11.10.2019 16:54 14,6 °C 67 % 1017,6 hPa 0,0 mm 0,1 km/h (0 Bft) O-SO 115 ° 0 min 0,000 mm 0,0 UV-I 26 W/m² 8,5 °C 14,6 °C 1,6 km/h (1 Bft)
11.10.2019 16:55 14,6 °C 68 % 1017,6 hPa 0,0 mm 0,0 km/h (0 Bft) O-SO 115 ° 0 min 0,000 mm 0,0 UV-I 25 W/m² 8,8 °C 14,6 °C 0,0 km/h (0 Bft)
11.10.2019 16:56 14,6 °C 69 % 1017,7 hPa 0,0 mm 0,0 km/h (0 Bft) O-SO 115 ° 0 min 0,000 mm 0,0 UV-I 25 W/m² 9,0 °C 14,6 °C 0,0 km/h (0 Bft)
11.10.2019 16:57 14,5 °C 69 % 1017,6 hPa 0,0 mm 0,0 km/h (0 Bft) O-SO 115 ° 0 min 0,000 mm 0,0 UV-I 25 W/m² 8,9 °C 14,5 °C 0,0 km/h (0 Bft)
11.10.2019 16:58 14,4 °C 70 % 1017,6 hPa 0,0 mm 0,9 km/h (0 Bft) O-SO 115 ° 0 min 0,000 mm 0,0 UV-I 25 W/m² 9,0 °C 14,4 °C 3,2 km/h (1 Bft)
11.10.2019 16:59 14,3 °C 70 % 1017,6 hPa 0,0 mm 0,7 km/h (0 Bft) O-SO 115 ° 0 min 0,000 mm 0,0 UV-I 25 W/m² 8,9 °C 14,3 °C 1,6 km/h (1 Bft)
11.10.2019 17:00 14,2 °C 71 % 1017,6 hPa 0,0 mm 0,0 km/h (0 Bft) O-SO 115 ° 0 min 0,000 mm 0,0 UV-I 25 W/m² 9,0 °C 14,2 °C 0,0 km/h (0 Bft)
11.10.2019 17:01 14,2 °C 70 % 1017,6 hPa 0,0 mm 0,0 km/h (0 Bft) O-SO 115 ° 0 min 0,076 mm 0,0 UV-I 25 W/m² 8,8 °C 14,2 °C 0,0 km/h (0 Bft)
11.10.2019 17:02 14,2 °C 70 % 1017,6 hPa 0,0 mm 0,0 km/h (0 Bft) O-SO 115 ° 0 min 0,000 mm 0,0 UV-I 25 W/m² 8,8 °C 14,2 °C 0,0 km/h (0 Bft)
11.10.2019 17:03 14,2 °C 70 % 1017,7 hPa 0,0 mm 0,0 km/h (0 Bft) O-SO 115 ° 0 min 0,000 mm 0,0 UV-I 25 W/m² 8,8 °C 14,2 °C 0,0 km/h (0 Bft)
11.10.2019 17:04 14,2 °C 70 % 1017,6 hPa 0,0 mm 0,0 km/h (0 Bft) O-SO 115 ° 0 min 0,000 mm 0,0 UV-I 25 W/m² 8,8 °C 14,2 °C 0,0 km/h (0 Bft)
11.10.2019 17:05 14,2 °C 70 % 1017,6 hPa 0,0 mm 0,0 km/h (0 Bft) O-SO 115 ° 0 min 0,000 mm 0,0 UV-I 25 W/m² 8,8 °C 14,2 °C 0,0 km/h (0 Bft)
11.10.2019 17:06 14,1 °C 70 % 1017,6 hPa 0,0 mm 0,0 km/h (0 Bft) O-SO 115 ° 0 min 0,000 mm 0,0 UV-I 25 W/m² 8,7 °C 14,1 °C 0,0 km/h (0 Bft)
11.10.2019 17:07 14,1 °C 71 % 1017,6 hPa 0,0 mm 0,0 km/h (0 Bft) O-SO 115 ° 0 min 0,000 mm 0,0 UV-I 25 W/m² 8,9 °C 14,1 °C 0,0 km/h (0 Bft)
11.10.2019 17:08 14,0 °C 70 % 1017,6 hPa 0,0 mm 0,0 km/h (0 Bft) O-SO 115 ° 0 min 0,000 mm 0,0 UV-I 25 W/m² 8,6 °C 14,0 °C 0,0 km/h (0 Bft)
11.10.2019 17:09 14,1 °C 71 % 1017,6 hPa 0,0 mm 0,0 km/h (0 Bft) O-SO 115 ° 0 min 0,000 mm 0,0 UV-I 25 W/m² 8,9 °C 14,1 °C 0,0 km/h (0 Bft)
11.10.2019 17:10 14,0 °C 71 % 1017,6 hPa 0,0 mm 0,0 km/h (0 Bft) O-SO 115 ° 0 min 0,000 mm 0,0 UV-I 25 W/m² 8,8 °C 14,0 °C 0,0 km/h (0 Bft)
11.10.2019 17:11 14,0 °C 71 % 1017,6 hPa 0,0 mm 0,0 km/h (0 Bft) O-SO 115 ° 0 min 0,000 mm 0,0 UV-I 25 W/m² 8,8 °C 14,0 °C 0,0 km/h (0 Bft)
11.10.2019 17:12 13,9 °C 72 % 1017,6 hPa 0,0 mm 0,0 km/h (0 Bft) O-SO 115 ° 0 min 0,000 mm 0,0 UV-I 25 W/m² 8,9 °C 13,9 °C 0,0 km/h (0 Bft)
11.10.2019 17:13 13,9 °C 72 % 1017,7 hPa 0,0 mm 0,0 km/h (0 Bft) O-SO 115 ° 0 min 0,000 mm 0,0 UV-I 25 W/m² 8,9 °C 13,9 °C 0,0 km/h (0 Bft)
11.10.2019 17:14 13,9 °C 71 % 1017,7 hPa 0,0 mm 0,0 km/h (0 Bft) O-SO 115 ° 0 min 0,000 mm 0,0 UV-I 25 W/m² 8,7 °C 13,9 °C 0,0 km/h (0 Bft)
11.10.2019 17:15 13,9 °C 71 % 1017,6 hPa 0,0 mm 0,0 km/h (0 Bft) O-SO 115 ° 0 min 0,000 mm 0,0 UV-I 25 W/m² 8,7 °C 13,9 °C 0,0 km/h (0 Bft)
11.10.2019 17:16 13,9 °C 72 % 1017,6 hPa 0,0 mm 0,0 km/h (0 Bft) O-SO 115 ° 0 min 0,000 mm 0,0 UV-I 25 W/m² 8,9 °C 13,9 °C 0,0 km/h (0 Bft)
11.10.2019 17:17 13,9 °C 73 % 1017,6 hPa 0,0 mm 0,0 km/h (0 Bft) O-SO 115 ° 0 min 0,000 mm 0,0 UV-I 23 W/m² 9,1 °C 13,9 °C 0,0 km/h (0 Bft)
11.10.2019 17:18 13,9 °C 71 % 1017,6 hPa 0,0 mm 0,0 km/h (0 Bft) O-SO 115 ° 0 min 0,000 mm 0,0 UV-I 23 W/m² 8,7 °C 13,9 °C 0,0 km/h (0 Bft)
11.10.2019 17:19 14,0 °C 71 % 1017,6 hPa 0,0 mm 0,0 km/h (0 Bft) O-SO 115 ° 0 min 0,000 mm 0,0 UV-I 23 W/m² 8,8 °C 14,0 °C 0,0 km/h (0 Bft)
11.10.2019 17:20 14,1 °C 71 % 1017,6 hPa 0,0 mm 0,0 km/h (0 Bft) O-SO 115 ° 0 min 0,000 mm 0,0 UV-I 23 W/m² 8,9 °C 14,1 °C 0,0 km/h (0 Bft)
11.10.2019 17:21 14,1 °C 71 % 1017,6 hPa 0,0 mm 0,0 km/h (0 Bft) O-SO 115 ° 0 min 0,000 mm 0,0 UV-I 23 W/m² 8,9 °C 14,1 °C 0,0 km/h (0 Bft)
11.10.2019 17:22 14,1 °C 71 % 1017,6 hPa 0,0 mm 0,0 km/h (0 Bft) O-SO 115 ° 0 min 0,000 mm 0,0 UV-I 23 W/m² 8,9 °C 14,1 °C 0,0 km/h (0 Bft)
11.10.2019 17:23 14,1 °C 72 % 1017,6 hPa 0,0 mm 1,9 km/h (1 Bft) O-SO 115 ° 0 min 0,000 mm 0,0 UV-I 23 W/m² 9,1 °C 14,1 °C 3,2 km/h (1 Bft)
11.10.2019 17:24 14,0 °C 72 % 1017,7 hPa 0,0 mm 0,9 km/h (0 Bft) O-SO 115 ° 0 min 0,000 mm 0,0 UV-I 23 W/m² 9,0 °C 14,0 °C 1,6 km/h (1 Bft)
11.10.2019 17:25 14,0 °C 72 % 1017,6 hPa 0,0 mm 1,1 km/h (1 Bft) O-SO 115 ° 0 min 0,000 mm 0,0 UV-I 23 W/m² 9,0 °C 14,0 °C 1,6 km/h (1 Bft)
11.10.2019 17:26 14,1 °C 71 % 1017,7 hPa 0,0 mm 0,0 km/h (0 Bft) O-SO 115 ° 0 min 0,000 mm 0,0 UV-I 21 W/m² 8,9 °C 14,1 °C 0,0 km/h (0 Bft)
11.10.2019 17:27 14,1 °C 71 % 1017,7 hPa 0,0 mm 0,0 km/h (0 Bft) O-SO 115 ° 0 min 0,000 mm 0,0 UV-I 21 W/m² 8,9 °C 14,1 °C 0,0 km/h (0 Bft)
11.10.2019 17:28 14,1 °C 71 % 1017,7 hPa 0,0 mm 0,0 km/h (0 Bft) O-SO 115 ° 0 min 0,000 mm 0,0 UV-I 21 W/m² 8,9 °C 14,1 °C 0,0 km/h (0 Bft)
11.10.2019 17:29 14,1 °C 71 % 1017,7 hPa 0,0 mm 0,0 km/h (0 Bft) O-SO 115 ° 0 min 0,000 mm 0,0 UV-I 21 W/m² 8,9 °C 14,1 °C 0,0 km/h (0 Bft)
11.10.2019 17:30 14,1 °C 71 % 1017,7 hPa 0,0 mm 0,1 km/h (0 Bft) O-SO 115 ° 0 min 0,000 mm 0,0 UV-I 21 W/m² 8,9 °C 14,1 °C 1,6 km/h (1 Bft)
11.10.2019 17:31 14,1 °C 71 % 1017,7 hPa 0,0 mm 0,5 km/h (0 Bft) O-SO 115 ° 0 min 0,000 mm 0,0 UV-I 21 W/m² 8,9 °C 14,1 °C 3,2 km/h (1 Bft)
11.10.2019 17:32 14,2 °C 71 % 1017,7 hPa 0,0 mm 1,6 km/h (1 Bft) O-SO 115 ° 0 min 0,000 mm 0,0 UV-I 21 W/m² 9,0 °C 14,2 °C 3,2 km/h (1 Bft)
11.10.2019 17:33 14,1 °C 71 % 1017,7 hPa 0,0 mm 2,0 km/h (1 Bft) O-SO 115 ° 0 min 0,000 mm 0,0 UV-I 21 W/m² 8,9 °C 14,1 °C 3,2 km/h (1 Bft)
11.10.2019 17:34 14,1 °C 71 % 1017,7 hPa 0,0 mm 1,8 km/h (1 Bft) O-SO 115 ° 0 min 0,000 mm 0,0 UV-I 21 W/m² 8,9 °C 14,1 °C 3,2 km/h (1 Bft)
11.10.2019 17:35 14,1 °C 72 % 1017,7 hPa 0,0 mm 2,2 km/h (1 Bft) O-SO 115 ° 0 min 0,000 mm 0,0 UV-I 21 W/m² 9,1 °C 14,1 °C 3,2 km/h (1 Bft)
11.10.2019 17:36 14,1 °C 73 % 1017,7 hPa 0,0 mm 2,5 km/h (1 Bft) O-SO 115 ° 0 min 0,000 mm 0,0 UV-I 21 W/m² 9,3 °C 14,1 °C 3,2 km/h (1 Bft)
11.10.2019 17:37 14,1 °C 72 % 1017,7 hPa 0,0 mm 2,3 km/h (1 Bft) O-SO 115 ° 0 min 0,000 mm 0,0 UV-I 21 W/m² 9,1 °C 14,1 °C 3,2 km/h (1 Bft)
11.10.2019 17:38 14,0 °C 72 % 1017,7 hPa 0,0 mm 2,5 km/h (1 Bft) O-SO 115 ° 0 min 0,000 mm 0,0 UV-I 21 W/m² 9,0 °C 14,0 °C 3,2 km/h (1 Bft)
11.10.2019 17:39 13,9 °C 73 % 1017,6 hPa 0,0 mm 2,0 km/h (1 Bft) O-SO 115 ° 0 min 0,000 mm 0,0 UV-I 21 W/m² 9,1 °C 13,9 °C 3,2 km/h (1 Bft)
11.10.2019 17:40 13,9 °C 74 % 1017,6 hPa 0,0 mm 2,1 km/h (1 Bft) O-SO 115 ° 0 min 0,000 mm 0,0 UV-I 19 W/m² 9,3 °C 13,9 °C 3,2 km/h (1 Bft)
11.10.2019 17:41 13,7 °C 76 % 1017,6 hPa 0,0 mm 1,3 km/h (1 Bft) O-SO 115 ° 0 min 0,000 mm 0,0 UV-I 19 W/m² 9,5 °C 13,7 °C 1,6 km/h (1 Bft)
11.10.2019 17:42 13,5 °C 76 % 1017,6 hPa 0,0 mm 0,0 km/h (0 Bft) O-SO 115 ° 0 min 0,000 mm 0,0 UV-I 19 W/m² 9,4 °C 13,5 °C 0,0 km/h (0 Bft)
11.10.2019 17:43 13,3 °C 76 % 1017,6 hPa 0,0 mm 1,3 km/h (1 Bft) O-SO 115 ° 0 min 0,000 mm 0,0 UV-I 19 W/m² 9,2 °C 13,3 °C 3,2 km/h (1 Bft)
11.10.2019 17:44 13,2 °C 77 % 1017,7 hPa 0,0 mm 2,4 km/h (1 Bft) O-SO 115 ° 0 min 0,000 mm 0,0 UV-I 19 W/m² 9,3 °C 13,2 °C 3,2 km/h (1 Bft)
11.10.2019 17:45 13,1 °C 77 % 1017,7 hPa 0,0 mm 2,0 km/h (1 Bft) O-SO 115 ° 0 min 0,000 mm 0,0 UV-I 19 W/m² 9,2 °C 13,1 °C 3,2 km/h (1 Bft)
11.10.2019 17:46 13,1 °C 78 % 1017,7 hPa 0,0 mm 1,6 km/h (1 Bft) O-SO 115 ° 0 min 0,000 mm 0,0 UV-I 19 W/m² 9,4 °C 13,1 °C 3,2 km/h (1 Bft)
11.10.2019 17:47 13,1 °C 77 % 1017,6 hPa 0,0 mm 0,6 km/h (0 Bft) O-SO 115 ° 0 min 0,000 mm 0,0 UV-I 19 W/m² 9,2 °C 13,1 °C 1,6 km/h (1 Bft)
11.10.2019 17:48 12,9 °C 78 % 1017,7 hPa 0,0 mm 0,0 km/h (0 Bft) O-SO 115 ° 0 min 0,000 mm 0,0 UV-I 18 W/m² 9,2 °C 12,9 °C 0,0 km/h (0 Bft)
11.10.2019 17:49 12,8 °C 78 % 1017,7 hPa 0,0 mm 0,0 km/h (0 Bft) O-SO 115 ° 0 min 0,000 mm 0,0 UV-I 18 W/m² 9,1 °C 12,8 °C 0,0 km/h (0 Bft)
11.10.2019 17:50 12,8 °C 79 % 1017,7 hPa 0,0 mm 0,0 km/h (0 Bft) O-SO 115 ° 0 min 0,000 mm 0,0 UV-I 18 W/m² 9,2 °C 12,8 °C 0,0 km/h (0 Bft)
11.10.2019 17:51 12,7 °C 79 % 1017,7 hPa 0,0 mm 0,0 km/h (0 Bft) O-SO 115 ° 0 min 0,000 mm 0,0 UV-I 18 W/m² 9,2 °C 12,7 °C 0,0 km/h (0 Bft)
11.10.2019 17:52 12,7 °C 79 % 1017,7 hPa 0,0 mm 0,0 km/h (0 Bft) O-SO 115 ° 0 min 0,000 mm 0,0 UV-I 18 W/m² 9,2 °C 12,7 °C 0,0 km/h (0 Bft)
11.10.2019 17:53 12,7 °C 79 % 1017,7 hPa 0,0 mm 0,0 km/h (0 Bft) O-SO 115 ° 0 min 0,000 mm 0,0 UV-I 18 W/m² 9,2 °C 12,7 °C 0,0 km/h (0 Bft)
11.10.2019 17:54 12,8 °C 79 % 1017,7 hPa 0,0 mm 0,0 km/h (0 Bft) O-SO 115 ° 0 min 0,000 mm 0,0 UV-I 18 W/m² 9,2 °C 12,8 °C 0,0 km/h (0 Bft)
11.10.2019 17:55 12,8 °C 79 % 1017,7 hPa 0,0 mm 0,0 km/h (0 Bft) O-SO 115 ° 0 min 0,000 mm 0,0 UV-I 18 W/m² 9,2 °C 12,8 °C 0,0 km/h (0 Bft)
11.10.2019 17:56 12,8 °C 79 % 1017,7 hPa 0,0 mm 0,0 km/h (0 Bft) O-SO 115 ° 0 min 0,000 mm 0,0 UV-I 18 W/m² 9,2 °C 12,8 °C 0,0 km/h (0 Bft)
11.10.2019 17:57 12,6 °C 79 % 1017,8 hPa 0,0 mm 0,0 km/h (0 Bft) O-SO 115 ° 0 min 0,000 mm 0,0 UV-I 18 W/m² 9,1 °C 12,6 °C 0,0 km/h (0 Bft)
11.10.2019 17:58 12,4 °C 79 % 1017,7 hPa 0,0 mm 0,0 km/h (0 Bft) O-SO 115 ° 0 min 0,000 mm 0,0 UV-I 18 W/m² 8,9 °C 12,4 °C 0,0 km/h (0 Bft)
11.10.2019 17:59 12,2 °C 80 % 1017,8 hPa 0,0 mm 0,0 km/h (0 Bft) O-SO 115 ° 0 min 0,000 mm 0,0 UV-I 16 W/m² 8,9 °C 12,2 °C 0,0 km/h (0 Bft)
11.10.2019 18:00 11,9 °C 81 % 1017,7 hPa 0,0 mm 0,0 km/h (0 Bft) O-SO 115 ° 0 min 0,000 mm 0,0 UV-I 16 W/m² 8,7 °C 11,9 °C 0,0 km/h (0 Bft)
11.10.2019 18:01 11,7 °C 81 % 1017,8 hPa 0,0 mm 0,0 km/h (0 Bft) O-SO 115 ° 0 min 0,026 mm 0,0 UV-I 16 W/m² 8,5 °C 11,7 °C 0,0 km/h (0 Bft)
11.10.2019 18:02 11,7 °C 82 % 1017,7 hPa 0,0 mm 0,0 km/h (0 Bft) O-SO 115 ° 0 min 0,000 mm 0,0 UV-I 16 W/m² 8,7 °C 11,7 °C 0,0 km/h (0 Bft)
11.10.2019 18:03 11,7 °C 82 % 1017,8 hPa 0,0 mm 0,0 km/h (0 Bft) O-SO 115 ° 0 min 0,000 mm 0,0 UV-I 16 W/m² 8,7 °C 11,7 °C 0,0 km/h (0 Bft)
11.10.2019 18:04 11,7 °C 83 % 1017,8 hPa 0,0 mm 0,0 km/h (0 Bft) O-SO 115 ° 0 min 0,000 mm 0,0 UV-I 14 W/m² 8,9 °C 11,7 °C 0,0 km/h (0 Bft)
11.10.2019 18:05 11,8 °C 82 % 1017,8 hPa 0,0 mm 0,0 km/h (0 Bft) O-SO 115 ° 0 min 0,000 mm 0,0 UV-I 14 W/m² 8,8 °C 11,8 °C 0,0 km/h (0 Bft)
11.10.2019 18:06 11,9 °C 82 % 1017,8 hPa 0,0 mm 0,0 km/h (0 Bft) O-SO 115 ° 0 min 0,000 mm 0,0 UV-I 14 W/m² 8,9 °C 11,9 °C 0,0 km/h (0 Bft)
11.10.2019 18:07 11,9 °C 82 % 1017,8 hPa 0,0 mm 0,0 km/h (0 Bft) O-SO 115 ° 0 min 0,000 mm 0,0 UV-I 14 W/m² 8,9 °C 11,9 °C 0,0 km/h (0 Bft)
11.10.2019 18:08 11,9 °C 81 % 1017,8 hPa 0,0 mm 0,4 km/h (0 Bft) O-SO 115 ° 0 min 0,000 mm 0,0 UV-I 14 W/m² 8,7 °C 11,9 °C 3,2 km/h (1 Bft)
11.10.2019 18:09 11,9 °C 81 % 1017,8 hPa 0,0 mm 4,3 km/h (1 Bft) O-SO 115 ° 0 min 0,000 mm 0,0 UV-I 14 W/m² 8,7 °C 11,9 °C 6,4 km/h (2 Bft)
11.10.2019 18:10 11,9 °C 81 % 1017,8 hPa 0,0 mm 5,2 km/h (1 Bft) O-SO 122 ° 0 min 0,000 mm 0,0 UV-I 12 W/m² 8,7 °C 11,9 °C 6,4 km/h (2 Bft)
11.10.2019 18:11 11,9 °C 81 % 1017,8 hPa 0,0 mm 6,3 km/h (2 Bft) SO 125 ° 0 min 0,000 mm 0,0 UV-I 12 W/m² 8,7 °C 11,9 °C 6,4 km/h (2 Bft)
11.10.2019 18:12 11,9 °C 81 % 1017,8 hPa 0,0 mm 5,4 km/h (1 Bft) SO 126 ° 0 min 0,000 mm 0,0 UV-I 12 W/m² 8,7 °C 11,9 °C 6,4 km/h (2 Bft)
11.10.2019 18:13 11,9 °C 81 % 1017,8 hPa 0,0 mm 4,8 km/h (1 Bft) SO 126 ° 0 min 0,000 mm 0,0 UV-I 12 W/m² 8,7 °C 11,9 °C 4,8 km/h (1 Bft)
11.10.2019 18:14 11,9 °C 81 % 1017,8 hPa 0,0 mm 4,1 km/h (1 Bft) SO 126 ° 0 min 0,000 mm 0,0 UV-I 12 W/m² 8,7 °C 11,9 °C 4,8 km/h (1 Bft)
11.10.2019 18:15 11,7 °C 81 % 1017,8 hPa 0,0 mm 3,5 km/h (1 Bft) SO 126 ° 0 min 0,000 mm 0,0 UV-I 11 W/m² 8,5 °C 11,7 °C 4,8 km/h (1 Bft)
11.10.2019 18:16 11,6 °C 82 % 1017,8 hPa 0,0 mm 3,8 km/h (1 Bft) SO 126 ° 0 min 0,000 mm 0,0 UV-I 11 W/m² 8,6 °C 11,6 °C 4,8 km/h (1 Bft)
11.10.2019 18:17 11,5 °C 82 % 1017,8 hPa 0,0 mm 3,6 km/h (1 Bft) SO 126 ° 0 min 0,000 mm 0,0 UV-I 11 W/m² 8,5 °C 11,5 °C 4,8 km/h (1 Bft)
11.10.2019 18:18 11,3 °C 83 % 1017,8 hPa 0,0 mm 3,8 km/h (1 Bft) SO 126 ° 0 min 0,000 mm 0,0 UV-I 11 W/m² 8,5 °C 11,3 °C 4,8 km/h (1 Bft)
11.10.2019 18:19 11,2 °C 83 % 1017,8 hPa 0,0 mm 3,8 km/h (1 Bft) SO 126 ° 0 min 0,000 mm 0,0 UV-I 11 W/m² 8,4 °C 11,2 °C 4,8 km/h (1 Bft)
11.10.2019 18:20 11,1 °C 84 % 1017,7 hPa 0,0 mm 4,8 km/h (1 Bft) SO 126 ° 0 min 0,000 mm 0,0 UV-I 11 W/m² 8,5 °C 11,1 °C 6,4 km/h (2 Bft)
11.10.2019 18:21 10,9 °C 84 % 1017,8 hPa 0,0 mm 5,1 km/h (1 Bft) SO 126 ° 0 min 0,000 mm 0,0 UV-I 9 W/m² 8,3 °C 10,9 °C 6,4 km/h (2 Bft)
11.10.2019 18:22 10,8 °C 84 % 1017,8 hPa 0,0 mm 3,1 km/h (1 Bft) SO 126 ° 0 min 0,000 mm 0,0 UV-I 9 W/m² 8,2 °C 10,8 °C 4,8 km/h (1 Bft)
11.10.2019 18:23 10,7 °C 85 % 1017,8 hPa 0,0 mm 4,6 km/h (1 Bft) SO 126 ° 0 min 0,000 mm 0,0 UV-I 9 W/m² 8,3 °C 10,7 °C 4,8 km/h (1 Bft)
11.10.2019 18:24 10,7 °C 85 % 1017,7 hPa 0,0 mm 4,9 km/h (1 Bft) SO 126 ° 0 min 0,000 mm 0,0 UV-I 9 W/m² 8,3 °C 10,7 °C 6,4 km/h (2 Bft)
11.10.2019 18:25 10,5 °C 85 % 1017,8 hPa 0,0 mm 5,2 km/h (1 Bft) SO 126 ° 0 min 0,000 mm 0,0 UV-I 9 W/m² 8,1 °C 10,5 °C 6,4 km/h (2 Bft)
11.10.2019 18:26 10,4 °C 85 % 1017,8 hPa 0,0 mm 3,8 km/h (1 Bft) SO 126 ° 0 min 0,000 mm 0,0 UV-I 7 W/m² 8,0 °C 10,4 °C 4,8 km/h (1 Bft)
11.10.2019 18:27 10,3 °C 86 % 1017,8 hPa 0,0 mm 4,1 km/h (1 Bft) SO 126 ° 0 min 0,000 mm 0,0 UV-I 7 W/m² 8,1 °C 10,3 °C 6,4 km/h (2 Bft)
11.10.2019 18:28 10,3 °C 86 % 1017,7 hPa 0,0 mm 3,6 km/h (1 Bft) SO 126 ° 0 min 0,000 mm 0,0 UV-I 7 W/m² 8,1 °C 10,3 °C 4,8 km/h (1 Bft)
11.10.2019 18:29 10,3 °C 87 % 1017,8 hPa 0,0 mm 2,3 km/h (1 Bft) SO 126 ° 0 min 0,000 mm 0,0 UV-I 7 W/m² 8,2 °C 10,3 °C 4,8 km/h (1 Bft)
11.10.2019 18:30 10,3 °C 87 % 1017,8 hPa 0,0 mm 4,9 km/h (1 Bft) SO 126 ° 0 min 0,000 mm 0,0 UV-I 7 W/m² 8,2 °C 10,3 °C 6,4 km/h (2 Bft)
11.10.2019 18:31 10,3 °C 86 % 1017,8 hPa 0,0 mm 4,8 km/h (1 Bft) SO 126 ° 0 min 0,000 mm 0,0 UV-I 5 W/m² 8,1 °C 10,3 °C 6,4 km/h (2 Bft)
11.10.2019 18:32 10,2 °C 86 % 1017,8 hPa 0,0 mm 2,2 km/h (1 Bft) SO 126 ° 0 min 0,000 mm 0,0 UV-I 5 W/m² 8,0 °C 10,2 °C 4,8 km/h (1 Bft)
11.10.2019 18:33 10,1 °C 87 % 1017,8 hPa 0,0 mm 0,0 km/h (0 Bft) SO 126 ° 0 min 0,000 mm 0,0 UV-I 5 W/m² 8,0 °C 10,1 °C 0,0 km/h (0 Bft)
11.10.2019 18:34 10,1 °C 86 % 1017,8 hPa 0,0 mm 0,0 km/h (0 Bft) SO 126 ° 0 min 0,000 mm 0,0 UV-I 5 W/m² 7,9 °C 10,1 °C 0,0 km/h (0 Bft)
11.10.2019 18:35 10,0 °C 86 % 1017,8 hPa 0,0 mm 3,1 km/h (1 Bft) SO 126 ° 0 min 0,000 mm 0,0 UV-I 5 W/m² 7,8 °C 10,0 °C 6,4 km/h (2 Bft)
11.10.2019 18:36 9,8 °C 86 % 1017,8 hPa 0,0 mm 2,3 km/h (1 Bft) SO 126 ° 0 min 0,000 mm 0,0 UV-I 5 W/m² 7,6 °C 9,8 °C 6,4 km/h (2 Bft)
11.10.2019 18:37 9,7 °C 86 % 1017,8 hPa 0,0 mm 0,0 km/h (0 Bft) SO 126 ° 0 min 0,000 mm 0,0 UV-I 0 W/m² 7,5 °C 9,7 °C 0,0 km/h (0 Bft)
11.10.2019 18:38 9,6 °C 87 % 1017,8 hPa 0,0 mm 0,0 km/h (0 Bft) SO 126 ° 0 min 0,000 mm 0,0 UV-I 0 W/m² 7,5 °C 9,6 °C 0,0 km/h (0 Bft)
11.10.2019 18:39 9,6 °C 88 % 1017,8 hPa 0,0 mm 0,7 km/h (0 Bft) SO 126 ° 0 min 0,000 mm 0,0 UV-I 0 W/m² 7,7 °C 9,6 °C 3,2 km/h (1 Bft)
11.10.2019 18:40 9,6 °C 88 % 1017,8 hPa 0,0 mm 0,1 km/h (0 Bft) SO 126 ° 0 min 0,000 mm 0,0 UV-I 0 W/m² 7,7 °C 9,6 °C 1,6 km/h (1 Bft)
11.10.2019 18:41 9,5 °C 88 % 1017,7 hPa 0,0 mm 0,0 km/h (0 Bft) SO 126 ° 0 min 0,000 mm 0,0 UV-I 0 W/m² 7,6 °C 9,5 °C 0,0 km/h (0 Bft)
11.10.2019 18:42 9,5 °C 88 % 1017,8 hPa 0,0 mm 0,7 km/h (0 Bft) SO 126 ° 0 min 0,000 mm 0,0 UV-I 0 W/m² 7,6 °C 9,5 °C 3,2 km/h (1 Bft)
11.10.2019 18:43 9,4 °C 89 % 1017,8 hPa 0,0 mm 0,0 km/h (0 Bft) SO 126 ° 0 min 0,000 mm 0,0 UV-I 0 W/m² 7,7 °C 9,4 °C 0,0 km/h (0 Bft)
11.10.2019 18:44 9,4 °C 89 % 1017,8 hPa 0,0 mm 0,0 km/h (0 Bft) SO 126 ° 0 min 0,000 mm 0,0 UV-I 0 W/m² 7,7 °C 9,4 °C 0,0 km/h (0 Bft)
11.10.2019 18:45 9,4 °C 89 % 1017,8 hPa 0,0 mm 0,0 km/h (0 Bft) SO 126 ° 0 min 0,000 mm 0,0 UV-I 0 W/m² 7,7 °C 9,4 °C 0,0 km/h (0 Bft)
11.10.2019 18:46 9,4 °C 89 % 1017,7 hPa 0,0 mm 0,0 km/h (0 Bft) SO 126 ° 0 min 0,000 mm 0,0 UV-I 0 W/m² 7,7 °C 9,4 °C 0,0 km/h (0 Bft)
11.10.2019 18:47 9,4 °C 89 % 1017,7 hPa 0,0 mm 0,0 km/h (0 Bft) SO 126 ° 0 min 0,000 mm 0,0 UV-I 0 W/m² 7,7 °C 9,4 °C 0,0 km/h (0 Bft)
11.10.2019 18:48 9,4 °C 90 % 1017,8 hPa 0,0 mm 0,0 km/h (0 Bft) SO 126 ° 0 min 0,000 mm 0,0 UV-I 0 W/m² 7,8 °C 9,4 °C 0,0 km/h (0 Bft)
11.10.2019 18:49 9,4 °C 90 % 1017,8 hPa 0,0 mm 0,0 km/h (0 Bft) SO 126 ° 0 min 0,000 mm 0,0 UV-I 0 W/m² 7,8 °C 9,4 °C 0,0 km/h (0 Bft)
11.10.2019 18:50 9,4 °C 89 % 1017,7 hPa 0,0 mm 2,5 km/h (1 Bft) SO 126 ° 0 min 0,000 mm 0,0 UV-I 0 W/m² 7,7 °C 9,4 °C 4,8 km/h (1 Bft)
11.10.2019 18:51 9,4 °C 90 % 1017,7 hPa 0,0 mm 2,9 km/h (1 Bft) SO 126 ° 0 min 0,000 mm 0,0 UV-I 0 W/m² 7,8 °C 9,4 °C 3,2 km/h (1 Bft)
11.10.2019 18:52 9,4 °C 90 % 1017,8 hPa 0,0 mm 2,3 km/h (1 Bft) SO 126 ° 0 min 0,000 mm 0,0 UV-I 0 W/m² 7,8 °C 9,4 °C 3,2 km/h (1 Bft)
11.10.2019 18:53 9,4 °C 90 % 1017,8 hPa 0,0 mm 0,3 km/h (0 Bft) SO 126 ° 0 min 0,000 mm 0,0 UV-I 0 W/m² 7,8 °C 9,4 °C 1,6 km/h (1 Bft)
11.10.2019 18:54 9,4 °C 90 % 1017,8 hPa 0,0 mm 0,0 km/h (0 Bft) SO 126 ° 0 min 0,000 mm 0,0 UV-I 0 W/m² 7,8 °C 9,4 °C 0,0 km/h (0 Bft)
11.10.2019 18:55 9,4 °C 90 % 1017,8 hPa 0,0 mm 0,0 km/h (0 Bft) SO 126 ° 0 min 0,000 mm 0,0 UV-I 0 W/m² 7,8 °C 9,4 °C 0,0 km/h (0 Bft)
11.10.2019 18:56 9,4 °C 89 % 1017,8 hPa 0,0 mm 0,0 km/h (0 Bft) SO 126 ° 0 min 0,000 mm 0,0 UV-I 0 W/m² 7,7 °C 9,4 °C 0,0 km/h (0 Bft)
11.10.2019 18:57 9,4 °C 89 % 1017,9 hPa 0,0 mm 0,0 km/h (0 Bft) SO 126 ° 0 min 0,000 mm 0,0 UV-I 0 W/m² 7,7 °C 9,4 °C 0,0 km/h (0 Bft)
11.10.2019 18:58 9,4 °C 89 % 1017,9 hPa 0,0 mm 0,0 km/h (0 Bft) SO 126 ° 0 min 0,000 mm 0,0 UV-I 0 W/m² 7,7 °C 9,4 °C 0,0 km/h (0 Bft)
11.10.2019 18:59 9,4 °C 90 % 1017,8 hPa 0,0 mm 0,0 km/h (0 Bft) SO 126 ° 0 min 0,000 mm 0,0 UV-I 0 W/m² 7,8 °C 9,4 °C 0,0 km/h (0 Bft)
11.10.2019 19:00 9,4 °C 90 % 1017,9 hPa 0,0 mm 0,0 km/h (0 Bft) SO 126 ° 0 min 0,000 mm 0,0 UV-I 0 W/m² 7,8 °C 9,4 °C 0,0 km/h (0 Bft)
11.10.2019 19:01 9,4 °C 90 % 1017,8 hPa 0,0 mm 0,0 km/h (0 Bft) SO 126 ° 0 min 0,000 mm 0,0 UV-I 0 W/m² 7,8 °C 9,4 °C 0,0 km/h (0 Bft)
11.10.2019 19:02 9,4 °C 89 % 1017,9 hPa 0,0 mm 0,0 km/h (0 Bft) SO 126 ° 0 min 0,000 mm 0,0 UV-I 0 W/m² 7,7 °C 9,4 °C 0,0 km/h (0 Bft)
11.10.2019 19:03 9,4 °C 90 % 1017,8 hPa 0,0 mm 0,0 km/h (0 Bft) SO 126 ° 0 min 0,000 mm 0,0 UV-I 0 W/m² 7,8 °C 9,4 °C 0,0 km/h (0 Bft)
11.10.2019 19:04 9,4 °C 90 % 1017,8 hPa 0,0 mm 0,0 km/h (0 Bft) SO 126 ° 0 min 0,000 mm 0,0 UV-I 0 W/m² 7,8 °C 9,4 °C 0,0 km/h (0 Bft)
11.10.2019 19:05 9,3 °C 90 % 1017,8 hPa 0,0 mm 0,0 km/h (0 Bft) SO 126 ° 0 min 0,000 mm 0,0 UV-I 0 W/m² 7,7 °C 9,3 °C 0,0 km/h (0 Bft)
11.10.2019 19:06 9,3 °C 90 % 1017,8 hPa 0,0 mm 0,0 km/h (0 Bft) SO 126 ° 0 min 0,000 mm 0,0 UV-I 0 W/m² 7,7 °C 9,3 °C 0,0 km/h (0 Bft)
11.10.2019 19:07 9,2 °C 90 % 1017,8 hPa 0,0 mm 0,0 km/h (0 Bft) SO 126 ° 0 min 0,000 mm 0,0 UV-I 0 W/m² 7,6 °C 9,2 °C 0,0 km/h (0 Bft)
11.10.2019 19:08 9,3 °C 90 % 1017,8 hPa 0,0 mm 0,0 km/h (0 Bft) SO 126 ° 0 min 0,000 mm 0,0 UV-I 0 W/m² 7,7 °C 9,3 °C 0,0 km/h (0 Bft)
11.10.2019 19:09 9,2 °C 90 % 1017,8 hPa 0,0 mm 0,0 km/h (0 Bft) SO 126 ° 0 min 0,000 mm 0,0 UV-I 0 W/m² 7,6 °C 9,2 °C 0,0 km/h (0 Bft)
11.10.2019 19:10 9,2 °C 90 % 1017,8 hPa 0,0 mm 0,0 km/h (0 Bft) SO 126 ° 0 min 0,000 mm 0,0 UV-I 0 W/m² 7,6 °C 9,2 °C 0,0 km/h (0 Bft)
11.10.2019 19:11 9,2 °C 90 % 1017,8 hPa 0,0 mm 0,0 km/h (0 Bft) SO 126 ° 0 min 0,000 mm 0,0 UV-I 0 W/m² 7,6 °C 9,2 °C 0,0 km/h (0 Bft)
11.10.2019 19:12 9,1 °C 89 % 1017,8 hPa 0,0 mm 0,0 km/h (0 Bft) SO 126 ° 0 min 0,000 mm 0,0 UV-I 0 W/m² 7,4 °C 9,1 °C 0,0 km/h (0 Bft)
11.10.2019 19:13 9,1 °C 90 % 1017,8 hPa 0,0 mm 0,0 km/h (0 Bft) SO 126 ° 0 min 0,000 mm 0,0 UV-I 0 W/m² 7,5 °C 9,1 °C 0,0 km/h (0 Bft)
11.10.2019 19:14 9,0 °C 90 % 1017,8 hPa 0,0 mm 0,0 km/h (0 Bft) SO 126 ° 0 min 0,000 mm 0,0 UV-I 0 W/m² 7,4 °C 9,0 °C 0,0 km/h (0 Bft)
11.10.2019 19:15 9,0 °C 90 % 1017,8 hPa 0,0 mm 0,0 km/h (0 Bft) SO 126 ° 0 min 0,000 mm 0,0 UV-I 0 W/m² 7,4 °C 9,0 °C 0,0 km/h (0 Bft)
11.10.2019 19:16 8,9 °C 90 % 1017,8 hPa 0,0 mm 0,0 km/h (0 Bft) SO 126 ° 0 min 0,000 mm 0,0 UV-I 0 W/m² 7,4 °C 8,9 °C 0,0 km/h (0 Bft)
11.10.2019 19:17 8,9 °C 90 % 1017,8 hPa 0,0 mm 0,0 km/h (0 Bft) SO 126 ° 0 min 0,000 mm 0,0 UV-I 0 W/m² 7,4 °C 8,9 °C 0,0 km/h (0 Bft)
11.10.2019 19:18 8,8 °C 91 % 1017,8 hPa 0,0 mm 0,0 km/h (0 Bft) SO 126 ° 0 min 0,000 mm 0,0 UV-I 0 W/m² 7,4 °C 8,8 °C 0,0 km/h (0 Bft)
11.10.2019 19:19 8,9 °C 91 % 1017,8 hPa 0,0 mm 0,0 km/h (0 Bft) SO 126 ° 0 min 0,000 mm 0,0 UV-I 0 W/m² 7,5 °C 8,9 °C 0,0 km/h (0 Bft)
11.10.2019 19:20 8,8 °C 91 % 1017,8 hPa 0,0 mm 0,0 km/h (0 Bft) SO 126 ° 0 min 0,000 mm 0,0 UV-I 0 W/m² 7,4 °C 8,8 °C 0,0 km/h (0 Bft)
11.10.2019 19:21 8,9 °C 91 % 1017,8 hPa 0,0 mm 0,0 km/h (0 Bft) SO 126 ° 0 min 0,000 mm 0,0 UV-I 0 W/m² 7,5 °C 8,9 °C 0,0 km/h (0 Bft)
11.10.2019 19:22 8,8 °C 91 % 1017,8 hPa 0,0 mm 0,0 km/h (0 Bft) SO 126 ° 0 min 0,000 mm 0,0 UV-I 0 W/m² 7,4 °C 8,8 °C 0,0 km/h (0 Bft)
11.10.2019 19:23 8,7 °C 91 % 1017,8 hPa 0,0 mm 0,0 km/h (0 Bft) SO 126 ° 0 min 0,000 mm 0,0 UV-I 0 W/m² 7,3 °C 8,7 °C 0,0 km/h (0 Bft)
11.10.2019 19:24 8,7 °C 91 % 1017,8 hPa 0,0 mm 0,0 km/h (0 Bft) SO 126 ° 0 min 0,000 mm 0,0 UV-I 0 W/m² 7,3 °C 8,7 °C 0,0 km/h (0 Bft)
11.10.2019 19:25 8,7 °C 91 % 1017,8 hPa 0,0 mm 0,0 km/h (0 Bft) SO 126 ° 0 min 0,000 mm 0,0 UV-I 0 W/m² 7,3 °C 8,7 °C 0,0 km/h (0 Bft)
11.10.2019 19:26 8,7 °C 91 % 1017,8 hPa 0,0 mm 0,0 km/h (0 Bft) SO 126 ° 0 min 0,000 mm 0,0 UV-I 0 W/m² 7,3 °C 8,7 °C 0,0 km/h (0 Bft)
11.10.2019 19:27 8,7 °C 92 % 1017,8 hPa 0,0 mm 0,0 km/h (0 Bft) SO 126 ° 0 min 0,000 mm 0,0 UV-I 0 W/m² 7,5 °C 8,7 °C 0,0 km/h (0 Bft)
11.10.2019 19:28 8,7 °C 91 % 1017,8 hPa 0,0 mm 0,0 km/h (0 Bft) SO 126 ° 0 min 0,000 mm 0,0 UV-I 0 W/m² 7,3 °C 8,7 °C 0,0 km/h (0 Bft)
11.10.2019 19:29 8,6 °C 91 % 1017,8 hPa 0,0 mm 0,0 km/h (0 Bft) SO 126 ° 0 min 0,000 mm 0,0 UV-I 0 W/m² 7,2 °C 8,6 °C 0,0 km/h (0 Bft)
11.10.2019 19:30 8,6 °C 91 % 1017,8 hPa 0,0 mm 0,0 km/h (0 Bft) SO 126 ° 0 min 0,000 mm 0,0 UV-I 0 W/m² 7,2 °C 8,6 °C 0,0 km/h (0 Bft)
11.10.2019 19:31 8,5 °C 91 % 1017,8 hPa 0,0 mm 0,0 km/h (0 Bft) SO 126 ° 0 min 0,000 mm 0,0 UV-I 0 W/m² 7,1 °C 8,5 °C 0,0 km/h (0 Bft)
11.10.2019 19:32 8,4 °C 92 % 1017,8 hPa 0,0 mm 0,0 km/h (0 Bft) SO 126 ° 0 min 0,000 mm 0,0 UV-I 0 W/m² 7,2 °C 8,4 °C 0,0 km/h (0 Bft)
11.10.2019 19:33 8,4 °C 92 % 1017,8 hPa 0,0 mm 0,0 km/h (0 Bft) SO 126 ° 0 min 0,000 mm 0,0 UV-I 0 W/m² 7,2 °C 8,4 °C 0,0 km/h (0 Bft)
11.10.2019 19:34 8,4 °C 92 % 1017,8 hPa 0,0 mm 0,0 km/h (0 Bft) SO 126 ° 0 min 0,000 mm 0,0 UV-I 0 W/m² 7,2 °C 8,4 °C 0,0 km/h (0 Bft)
11.10.2019 19:35 8,4 °C 92 % 1017,7 hPa 0,0 mm 0,0 km/h (0 Bft) SO 126 ° 0 min 0,000 mm 0,0 UV-I 0 W/m² 7,2 °C 8,4 °C 0,0 km/h (0 Bft)
11.10.2019 19:36 8,4 °C 92 % 1017,8 hPa 0,0 mm 0,0 km/h (0 Bft) SO 126 ° 0 min 0,000 mm 0,0 UV-I 0 W/m² 7,2 °C 8,4 °C 0,0 km/h (0 Bft)
11.10.2019 19:37 8,4 °C 92 % 1017,7 hPa 0,2 mm 0,0 km/h (0 Bft) SO 126 ° 0 min 0,000 mm 0,0 UV-I 0 W/m² 7,2 °C 8,4 °C 0,0 km/h (0 Bft)
11.10.2019 19:38 8,4 °C 92 % 1017,7 hPa 0,0 mm 0,0 km/h (0 Bft) SO 126 ° 0 min 0,000 mm 0,0 UV-I 0 W/m² 7,2 °C 8,4 °C 0,0 km/h (0 Bft)
11.10.2019 19:39 8,3 °C 92 % 1017,7 hPa 0,0 mm 0,0 km/h (0 Bft) SO 126 ° 0 min 0,000 mm 0,0 UV-I 0 W/m² 7,1 °C 8,3 °C 0,0 km/h (0 Bft)
11.10.2019 19:40 8,3 °C 92 % 1017,6 hPa 0,0 mm 0,0 km/h (0 Bft) SO 126 ° 0 min 0,000 mm 0,0 UV-I 0 W/m² 7,1 °C 8,3 °C 0,0 km/h (0 Bft)
11.10.2019 19:41 8,3 °C 92 % 1017,7 hPa 0,0 mm 0,0 km/h (0 Bft) SO 126 ° 0 min 0,000 mm 0,0 UV-I 0 W/m² 7,1 °C 8,3 °C 0,0 km/h (0 Bft)
11.10.2019 19:42 8,3 °C 92 % 1017,7 hPa 0,0 mm 0,0 km/h (0 Bft) SO 126 ° 0 min 0,000 mm 0,0 UV-I 0 W/m² 7,1 °C 8,3 °C 0,0 km/h (0 Bft)
11.10.2019 19:43 8,3 °C 92 % 1017,6 hPa 0,0 mm 0,0 km/h (0 Bft) SO 126 ° 0 min 0,000 mm 0,0 UV-I 0 W/m² 7,1 °C 8,3 °C 0,0 km/h (0 Bft)
11.10.2019 19:44 8,3 °C 92 % 1017,7 hPa 0,0 mm 0,0 km/h (0 Bft) SO 126 ° 0 min 0,000 mm 0,0 UV-I 0 W/m² 7,1 °C 8,3 °C 0,0 km/h (0 Bft)
11.10.2019 19:45 8,2 °C 92 % 1017,7 hPa 0,0 mm 0,0 km/h (0 Bft) SO 126 ° 0 min 0,000 mm 0,0 UV-I 0 W/m² 7,0 °C 8,2 °C 0,0 km/h (0 Bft)
11.10.2019 19:46 8,2 °C 92 % 1017,8 hPa 0,0 mm 0,0 km/h (0 Bft) SO 126 ° 0 min 0,000 mm 0,0 UV-I 0 W/m² 7,0 °C 8,2 °C 0,0 km/h (0 Bft)
11.10.2019 19:47 8,1 °C 92 % 1017,8 hPa 0,0 mm 0,0 km/h (0 Bft) SO 126 ° 0 min 0,000 mm 0,0 UV-I 0 W/m² 6,9 °C 8,1 °C 0,0 km/h (0 Bft)
11.10.2019 19:48 8,1 °C 92 % 1017,8 hPa 0,0 mm 0,0 km/h (0 Bft) SO 126 ° 0 min 0,000 mm 0,0 UV-I 0 W/m² 6,9 °C 8,1 °C 0,0 km/h (0 Bft)
11.10.2019 19:49 8,1 °C 92 % 1017,8 hPa 0,0 mm 0,0 km/h (0 Bft) SO 126 ° 0 min 0,000 mm 0,0 UV-I 0 W/m² 6,9 °C 8,1 °C 0,0 km/h (0 Bft)
11.10.2019 19:50 8,1 °C 92 % 1017,7 hPa 0,0 mm 0,0 km/h (0 Bft) SO 126 ° 0 min 0,000 mm 0,0 UV-I 0 W/m² 6,9 °C 8,1 °C 0,0 km/h (0 Bft)
11.10.2019 19:51 8,1 °C 92 % 1017,7 hPa 0,0 mm 0,0 km/h (0 Bft) SO 126 ° 0 min 0,000 mm 0,0 UV-I 0 W/m² 6,9 °C 8,1 °C 0,0 km/h (0 Bft)
11.10.2019 19:52 8,1 °C 92 % 1017,7 hPa 0,0 mm 0,0 km/h (0 Bft) SO 126 ° 0 min 0,000 mm 0,0 UV-I 0 W/m² 6,9 °C 8,1 °C 0,0 km/h (0 Bft)
11.10.2019 19:53 8,1 °C 92 % 1017,8 hPa 0,0 mm 0,0 km/h (0 Bft) SO 126 ° 0 min 0,000 mm 0,0 UV-I 0 W/m² 6,9 °C 8,1 °C 0,0 km/h (0 Bft)
11.10.2019 19:54 8,1 °C 92 % 1017,8 hPa 0,0 mm 0,0 km/h (0 Bft) SO 126 ° 0 min 0,000 mm 0,0 UV-I 0 W/m² 6,9 °C 8,1 °C 0,0 km/h (0 Bft)
11.10.2019 19:55 8,1 °C 92 % 1017,8 hPa 0,0 mm 0,0 km/h (0 Bft) SO 126 ° 0 min 0,000 mm 0,0 UV-I 0 W/m² 6,9 °C 8,1 °C 0,0 km/h (0 Bft)
11.10.2019 19:56 8,1 °C 93 % 1017,8 hPa 0,0 mm 0,0 km/h (0 Bft) SO 126 ° 0 min 0,000 mm 0,0 UV-I 0 W/m² 7,0 °C 8,1 °C 0,0 km/h (0 Bft)
11.10.2019 19:57 8,1 °C 92 % 1017,8 hPa 0,0 mm 0,0 km/h (0 Bft) SO 126 ° 0 min 0,000 mm 0,0 UV-I 0 W/m² 6,9 °C 8,1 °C 0,0 km/h (0 Bft)
11.10.2019 19:58 8,1 °C 93 % 1017,8 hPa 0,0 mm 0,0 km/h (0 Bft) SO 126 ° 0 min 0,000 mm 0,0 UV-I 0 W/m² 7,0 °C 8,1 °C 0,0 km/h (0 Bft)
11.10.2019 19:59 8,1 °C 93 % 1017,8 hPa 0,0 mm 0,0 km/h (0 Bft) SO 126 ° 0 min 0,000 mm 0,0 UV-I 0 W/m² 7,0 °C 8,1 °C 0,0 km/h (0 Bft)
11.10.2019 20:00 8,1 °C 92 % 1017,8 hPa 0,0 mm 0,0 km/h (0 Bft) SO 126 ° 0 min 0,000 mm 0,0 UV-I 0 W/m² 6,9 °C 8,1 °C 0,0 km/h (0 Bft)
11.10.2019 20:01 8,1 °C 92 % 1017,8 hPa 0,0 mm 0,0 km/h (0 Bft) SO 126 ° 0 min 0,000 mm 0,0 UV-I 0 W/m² 6,9 °C 8,1 °C 0,0 km/h (0 Bft)
11.10.2019 20:02 8,1 °C 93 % 1017,8 hPa 0,0 mm 0,0 km/h (0 Bft) SO 126 ° 0 min 0,000 mm 0,0 UV-I 0 W/m² 7,0 °C 8,1 °C 0,0 km/h (0 Bft)
11.10.2019 20:03 8,2 °C 93 % 1017,8 hPa 0,0 mm 0,0 km/h (0 Bft) SO 126 ° 0 min 0,000 mm 0,0 UV-I 0 W/m² 7,1 °C 8,2 °C 0,0 km/h (0 Bft)
11.10.2019 20:04 8,3 °C 93 % 1017,8 hPa 0,0 mm 0,0 km/h (0 Bft) SO 126 ° 0 min 0,000 mm 0,0 UV-I 0 W/m² 7,2 °C 8,3 °C 0,0 km/h (0 Bft)
11.10.2019 20:05 8,3 °C 92 % 1017,8 hPa 0,0 mm 0,0 km/h (0 Bft) SO 126 ° 0 min 0,000 mm 0,0 UV-I 0 W/m² 7,1 °C 8,3 °C 0,0 km/h (0 Bft)
11.10.2019 20:06 8,3 °C 92 % 1017,8 hPa 0,0 mm 0,0 km/h (0 Bft) SO 126 ° 0 min 0,000 mm 0,0 UV-I 0 W/m² 7,1 °C 8,3 °C 0,0 km/h (0 Bft)
11.10.2019 20:07 8,3 °C 92 % 1017,8 hPa 0,0 mm 0,0 km/h (0 Bft) SO 126 ° 0 min 0,000 mm 0,0 UV-I 0 W/m² 7,1 °C 8,3 °C 0,0 km/h (0 Bft)
11.10.2019 20:08 8,3 °C 92 % 1017,8 hPa 0,0 mm 0,0 km/h (0 Bft) SO 126 ° 0 min 0,000 mm 0,0 UV-I 0 W/m² 7,1 °C 8,3 °C 0,0 km/h (0 Bft)
11.10.2019 20:09 8,2 °C 92 % 1017,8 hPa 0,0 mm 0,0 km/h (0 Bft) SO 126 ° 0 min 0,000 mm 0,0 UV-I 0 W/m² 7,0 °C 8,2 °C 0,0 km/h (0 Bft)
11.10.2019 20:10 8,2 °C 92 % 1017,9 hPa 0,0 mm 0,0 km/h (0 Bft) SO 126 ° 0 min 0,000 mm 0,0 UV-I 0 W/m² 7,0 °C 8,2 °C 0,0 km/h (0 Bft)
11.10.2019 20:11 8,2 °C 92 % 1017,8 hPa 0,0 mm 0,0 km/h (0 Bft) SO 126 ° 0 min 0,000 mm 0,0 UV-I 0 W/m² 7,0 °C 8,2 °C 0,0 km/h (0 Bft)
11.10.2019 20:12 8,1 °C 92 % 1017,9 hPa 0,0 mm 0,0 km/h (0 Bft) SO 126 ° 0 min 0,000 mm 0,0 UV-I 0 W/m² 6,9 °C 8,1 °C 0,0 km/h (0 Bft)
11.10.2019 20:13 8,1 °C 91 % 1017,9 hPa 0,0 mm 0,0 km/h (0 Bft) SO 126 ° 0 min 0,000 mm 0,0 UV-I 0 W/m² 6,7 °C 8,1 °C 0,0 km/h (0 Bft)
11.10.2019 20:14 8,1 °C 92 % 1017,9 hPa 0,0 mm 0,0 km/h (0 Bft) SO 126 ° 0 min 0,000 mm 0,0 UV-I 0 W/m² 6,9 °C 8,1 °C 0,0 km/h (0 Bft)
11.10.2019 20:15 8,1 °C 92 % 1017,9 hPa 0,0 mm 0,0 km/h (0 Bft) SO 126 ° 0 min 0,000 mm 0,0 UV-I 0 W/m² 6,9 °C 8,1 °C 0,0 km/h (0 Bft)
11.10.2019 20:16 8,1 °C 92 % 1017,8 hPa 0,0 mm 0,0 km/h (0 Bft) SO 126 ° 0 min 0,000 mm 0,0 UV-I 0 W/m² 6,9 °C 8,1 °C 0,0 km/h (0 Bft)
11.10.2019 20:17 8,1 °C 92 % 1017,8 hPa 0,0 mm 0,0 km/h (0 Bft) SO 126 ° 0 min 0,000 mm 0,0 UV-I 0 W/m² 6,9 °C 8,1 °C 0,0 km/h (0 Bft)
11.10.2019 20:18 8,0 °C 91 % 1017,8 hPa 0,0 mm 0,0 km/h (0 Bft) SO 126 ° 0 min 0,000 mm 0,0 UV-I 0 W/m² 6,6 °C 8,0 °C 0,0 km/h (0 Bft)
11.10.2019 20:19 7,9 °C 92 % 1017,8 hPa 0,0 mm 0,0 km/h (0 Bft) SO 126 ° 0 min 0,000 mm 0,0 UV-I 0 W/m² 6,7 °C 7,9 °C 0,0 km/h (0 Bft)
11.10.2019 20:20 7,9 °C 92 % 1017,8 hPa 0,0 mm 0,0 km/h (0 Bft) SO 126 ° 0 min 0,000 mm 0,0 UV-I 0 W/m² 6,7 °C 7,9 °C 0,0 km/h (0 Bft)
11.10.2019 20:21 7,8 °C 92 % 1017,8 hPa 0,0 mm 0,0 km/h (0 Bft) SO 126 ° 0 min 0,000 mm 0,0 UV-I 0 W/m² 6,6 °C 7,8 °C 0,0 km/h (0 Bft)
11.10.2019 20:22 7,8 °C 91 % 1017,9 hPa 0,0 mm 0,0 km/h (0 Bft) SO 126 ° 0 min 0,000 mm 0,0 UV-I 0 W/m² 6,4 °C 7,8 °C 0,0 km/h (0 Bft)
11.10.2019 20:23 7,7 °C 91 % 1017,8 hPa 0,0 mm 0,0 km/h (0 Bft) SO 126 ° 0 min 0,000 mm 0,0 UV-I 0 W/m² 6,3 °C 7,7 °C 0,0 km/h (0 Bft)
11.10.2019 20:24 7,6 °C 92 % 1017,9 hPa 0,0 mm 0,0 km/h (0 Bft) SO 126 ° 0 min 0,000 mm 0,0 UV-I 0 W/m² 6,4 °C 7,6 °C 0,0 km/h (0 Bft)
11.10.2019 20:25 7,7 °C 92 % 1017,8 hPa 0,0 mm 0,0 km/h (0 Bft) SO 126 ° 0 min 0,000 mm 0,0 UV-I 0 W/m² 6,5 °C 7,7 °C 0,0 km/h (0 Bft)
11.10.2019 20:26 7,7 °C 92 % 1017,8 hPa 0,0 mm 0,0 km/h (0 Bft) SO 126 ° 0 min 0,000 mm 0,0 UV-I 0 W/m² 6,5 °C 7,7 °C 0,0 km/h (0 Bft)
11.10.2019 20:27 7,7 °C 92 % 1017,8 hPa 0,0 mm 0,0 km/h (0 Bft) SO 126 ° 0 min 0,000 mm 0,0 UV-I 0 W/m² 6,5 °C 7,7 °C 0,0 km/h (0 Bft)
11.10.2019 20:28 7,7 °C 92 % 1017,8 hPa 0,0 mm 0,0 km/h (0 Bft) SO 126 ° 0 min 0,000 mm 0,0 UV-I 0 W/m² 6,5 °C 7,7 °C 0,0 km/h (0 Bft)
11.10.2019 20:29 7,6 °C 92 % 1017,7 hPa 0,0 mm 0,0 km/h (0 Bft) SO 126 ° 0 min 0,000 mm 0,0 UV-I 0 W/m² 6,4 °C 7,6 °C 0,0 km/h (0 Bft)
11.10.2019 20:30 7,6 °C 92 % 1017,8 hPa 0,0 mm 0,0 km/h (0 Bft) SO 126 ° 0 min 0,000 mm 0,0 UV-I 0 W/m² 6,4 °C 7,6 °C 0,0 km/h (0 Bft)
11.10.2019 20:31 7,5 °C 92 % 1017,7 hPa 0,0 mm 0,0 km/h (0 Bft) SO 126 ° 0 min 0,000 mm 0,0 UV-I 0 W/m² 6,3 °C 7,5 °C 0,0 km/h (0 Bft)
11.10.2019 20:32 7,4 °C 92 % 1017,8 hPa 0,0 mm 0,0 km/h (0 Bft) SO 126 ° 0 min 0,000 mm 0,0 UV-I 0 W/m² 6,2 °C 7,4 °C 0,0 km/h (0 Bft)
11.10.2019 20:33 7,4 °C 92 % 1017,7 hPa 0,0 mm 0,0 km/h (0 Bft) SO 126 ° 0 min 0,000 mm 0,0 UV-I 0 W/m² 6,2 °C 7,4 °C 0,0 km/h (0 Bft)
11.10.2019 20:34 7,4 °C 92 % 1017,7 hPa 0,0 mm 0,0 km/h (0 Bft) SO 126 ° 0 min 0,000 mm 0,0 UV-I 0 W/m² 6,2 °C 7,4 °C 0,0 km/h (0 Bft)
11.10.2019 20:35 7,4 °C 92 % 1017,7 hPa 0,0 mm 0,0 km/h (0 Bft) SO 126 ° 0 min 0,000 mm 0,0 UV-I 0 W/m² 6,2 °C 7,4 °C 0,0 km/h (0 Bft)
11.10.2019 20:36 7,4 °C 92 % 1017,8 hPa 0,0 mm 0,0 km/h (0 Bft) SO 126 ° 0 min 0,000 mm 0,0 UV-I 0 W/m² 6,2 °C 7,4 °C 0,0 km/h (0 Bft)
11.10.2019 20:37 7,4 °C 92 % 1017,8 hPa 0,0 mm 0,0 km/h (0 Bft) SO 126 ° 0 min 0,000 mm 0,0 UV-I 0 W/m² 6,2 °C 7,4 °C 0,0 km/h (0 Bft)
11.10.2019 20:38 7,4 °C 92 % 1017,8 hPa 0,0 mm 0,0 km/h (0 Bft) SO 126 ° 0 min 0,000 mm 0,0 UV-I 0 W/m² 6,2 °C 7,4 °C 0,0 km/h (0 Bft)
11.10.2019 20:39 7,4 °C 93 % 1017,8 hPa 0,0 mm 0,0 km/h (0 Bft) SO 126 ° 0 min 0,000 mm 0,0 UV-I 0 W/m² 6,3 °C 7,4 °C 0,0 km/h (0 Bft)
11.10.2019 20:40 7,5 °C 93 % 1017,8 hPa 0,0 mm 0,0 km/h (0 Bft) SO 126 ° 0 min 0,000 mm 0,0 UV-I 0 W/m² 6,4 °C 7,5 °C 0,0 km/h (0 Bft)
11.10.2019 20:41 7,5 °C 93 % 1017,8 hPa 0,0 mm 0,0 km/h (0 Bft) SO 126 ° 0 min 0,000 mm 0,0 UV-I 0 W/m² 6,4 °C 7,5 °C 0,0 km/h (0 Bft)
11.10.2019 20:42 7,6 °C 92 % 1017,8 hPa 0,0 mm 0,0 km/h (0 Bft) SO 126 ° 0 min 0,000 mm 0,0 UV-I 0 W/m² 6,4 °C 7,6 °C 0,0 km/h (0 Bft)
11.10.2019 20:43 7,7 °C 92 % 1017,8 hPa 0,0 mm 0,0 km/h (0 Bft) SO 126 ° 0 min 0,000 mm 0,0 UV-I 0 W/m² 6,5 °C 7,7 °C 0,0 km/h (0 Bft)
11.10.2019 20:44 7,8 °C 93 % 1017,7 hPa 0,0 mm 0,0 km/h (0 Bft) SO 126 ° 0 min 0,000 mm 0,0 UV-I 0 W/m² 6,7 °C 7,8 °C 0,0 km/h (0 Bft)
11.10.2019 20:45 7,9 °C 92 % 1017,7 hPa 0,0 mm 0,0 km/h (0 Bft) SO 126 ° 0 min 0,000 mm 0,0 UV-I 0 W/m² 6,7 °C 7,9 °C 0,0 km/h (0 Bft)
11.10.2019 20:46 7,9 °C 92 % 1017,8 hPa 0,0 mm 0,0 km/h (0 Bft) SO 126 ° 0 min 0,000 mm 0,0 UV-I 0 W/m² 6,7 °C 7,9 °C 0,0 km/h (0 Bft)
11.10.2019 20:47 7,9 °C 92 % 1017,8 hPa 0,0 mm 0,0 km/h (0 Bft) SO 126 ° 0 min 0,000 mm 0,0 UV-I 0 W/m² 6,7 °C 7,9 °C 0,0 km/h (0 Bft)
11.10.2019 20:48 7,8 °C 91 % 1017,8 hPa 0,0 mm 0,0 km/h (0 Bft) SO 126 ° 0 min 0,000 mm 0,0 UV-I 0 W/m² 6,4 °C 7,8 °C 0,0 km/h (0 Bft)
11.10.2019 20:49 7,7 °C 91 % 1017,8 hPa 0,0 mm 0,0 km/h (0 Bft) SO 126 ° 0 min 0,000 mm 0,0 UV-I 0 W/m² 6,3 °C 7,7 °C 0,0 km/h (0 Bft)
11.10.2019 20:50 7,6 °C 91 % 1017,8 hPa 0,0 mm 0,0 km/h (0 Bft) SO 126 ° 0 min 0,000 mm 0,0 UV-I 0 W/m² 6,2 °C 7,6 °C 0,0 km/h (0 Bft)
11.10.2019 20:51 7,5 °C 91 % 1017,8 hPa 0,0 mm 0,0 km/h (0 Bft) SO 126 ° 0 min 0,000 mm 0,0 UV-I 0 W/m² 6,1 °C 7,5 °C 0,0 km/h (0 Bft)
11.10.2019 20:52 7,4 °C 91 % 1017,8 hPa 0,0 mm 0,0 km/h (0 Bft) SO 126 ° 0 min 0,000 mm 0,0 UV-I 0 W/m² 6,0 °C 7,4 °C 0,0 km/h (0 Bft)
11.10.2019 20:53 7,4 °C 91 % 1017,8 hPa 0,0 mm 0,0 km/h (0 Bft) SO 126 ° 0 min 0,000 mm 0,0 UV-I 0 W/m² 6,0 °C 7,4 °C 0,0 km/h (0 Bft)
11.10.2019 20:54 7,5 °C 92 % 1017,8 hPa 0,0 mm 0,0 km/h (0 Bft) SO 126 ° 0 min 0,000 mm 0,0 UV-I 0 W/m² 6,3 °C 7,5 °C 0,0 km/h (0 Bft)
11.10.2019 20:55 7,6 °C 92 % 1017,8 hPa 0,0 mm 0,0 km/h (0 Bft) SO 126 ° 0 min 0,000 mm 0,0 UV-I 0 W/m² 6,4 °C 7,6 °C 0,0 km/h (0 Bft)
11.10.2019 20:56 7,6 °C 92 % 1017,8 hPa 0,0 mm 0,0 km/h (0 Bft) SO 126 ° 0 min 0,000 mm 0,0 UV-I 0 W/m² 6,4 °C 7,6 °C 0,0 km/h (0 Bft)
11.10.2019 20:57 7,7 °C 92 % 1017,8 hPa 0,0 mm 0,0 km/h (0 Bft) SO 126 ° 0 min 0,000 mm 0,0 UV-I 0 W/m² 6,5 °C 7,7 °C 0,0 km/h (0 Bft)
11.10.2019 20:58 7,7 °C 92 % 1017,7 hPa 0,0 mm 0,0 km/h (0 Bft) SO 126 ° 0 min 0,000 mm 0,0 UV-I 0 W/m² 6,5 °C 7,7 °C 0,0 km/h (0 Bft)
11.10.2019 20:59 7,8 °C 92 % 1017,7 hPa 0,0 mm 0,0 km/h (0 Bft) SO 126 ° 0 min 0,000 mm 0,0 UV-I 0 W/m² 6,6 °C 7,8 °C 0,0 km/h (0 Bft)
11.10.2019 21:00 8,0 °C 91 % 1017,7 hPa 0,0 mm 0,0 km/h (0 Bft) SO 126 ° 0 min 0,000 mm 0,0 UV-I 0 W/m² 6,6 °C 8,0 °C 0,0 km/h (0 Bft)
11.10.2019 21:01 8,1 °C 91 % 1017,7 hPa 0,0 mm 0,0 km/h (0 Bft) SO 126 ° 0 min 0,000 mm 0,0 UV-I 0 W/m² 6,7 °C 8,1 °C 0,0 km/h (0 Bft)
11.10.2019 21:02 8,2 °C 91 % 1017,8 hPa 0,0 mm 0,0 km/h (0 Bft) SW 222 ° 0 min 0,000 mm 0,0 UV-I 0 W/m² 6,8 °C 8,2 °C 0,0 km/h (0 Bft)
11.10.2019 21:03 8,3 °C 91 % 1017,7 hPa 0,0 mm 0,0 km/h (0 Bft) SW 222 ° 0 min 0,000 mm 0,0 UV-I 0 W/m² 6,9 °C 8,3 °C 0,0 km/h (0 Bft)
11.10.2019 21:04 8,3 °C 90 % 1017,7 hPa 0,0 mm 0,0 km/h (0 Bft) SW 221 ° 0 min 0,000 mm 0,0 UV-I 0 W/m² 6,8 °C 8,3 °C 0,0 km/h (0 Bft)
11.10.2019 21:05 8,4 °C 90 % 1017,7 hPa 0,0 mm 0,0 km/h (0 Bft) SW 221 ° 0 min 0,000 mm 0,0 UV-I 0 W/m² 6,9 °C 8,4 °C 0,0 km/h (0 Bft)
11.10.2019 21:06 8,4 °C 89 % 1017,7 hPa 0,0 mm 0,0 km/h (0 Bft) SW 221 ° 0 min 0,000 mm 0,0 UV-I 0 W/m² 6,7 °C 8,4 °C 0,0 km/h (0 Bft)
11.10.2019 21:07 8,4 °C 89 % 1017,7 hPa 0,0 mm 0,0 km/h (0 Bft) SW 221 ° 0 min 0,000 mm 0,0 UV-I 0 W/m² 6,7 °C 8,4 °C 0,0 km/h (0 Bft)
11.10.2019 21:08 8,4 °C 89 % 1017,7 hPa 0,0 mm 0,0 km/h (0 Bft) SW 221 ° 0 min 0,000 mm 0,0 UV-I 0 W/m² 6,7 °C 8,4 °C 0,0 km/h (0 Bft)
11.10.2019 21:09 8,4 °C 89 % 1017,8 hPa 0,0 mm 0,0 km/h (0 Bft) SW 221 ° 0 min 0,000 mm 0,0 UV-I 0 W/m² 6,7 °C 8,4 °C 0,0 km/h (0 Bft)
11.10.2019 21:10 8,4 °C 89 % 1017,7 hPa 0,0 mm 0,0 km/h (0 Bft) SW 221 ° 0 min 0,000 mm 0,0 UV-I 0 W/m² 6,7 °C 8,4 °C 0,0 km/h (0 Bft)
11.10.2019 21:11 8,4 °C 89 % 1017,7 hPa 0,0 mm 0,0 km/h (0 Bft) SW 221 ° 0 min 0,000 mm 0,0 UV-I 0 W/m² 6,7 °C 8,4 °C 0,0 km/h (0 Bft)
11.10.2019 21:12 8,4 °C 88 % 1017,7 hPa 0,0 mm 0,0 km/h (0 Bft) SW 221 ° 0 min 0,000 mm 0,0 UV-I 0 W/m² 6,5 °C 8,4 °C 0,0 km/h (0 Bft)
11.10.2019 21:13 8,4 °C 89 % 1017,7 hPa 0,0 mm 0,0 km/h (0 Bft) SW 221 ° 0 min 0,000 mm 0,0 UV-I 0 W/m² 6,7 °C 8,4 °C 0,0 km/h (0 Bft)
11.10.2019 21:14 8,5 °C 89 % 1017,7 hPa 0,0 mm 0,0 km/h (0 Bft) SW 221 ° 0 min 0,000 mm 0,0 UV-I 0 W/m² 6,8 °C 8,5 °C 0,0 km/h (0 Bft)
11.10.2019 21:15 8,6 °C 88 % 1017,7 hPa 0,0 mm 0,0 km/h (0 Bft) SW 221 ° 0 min 0,000 mm 0,0 UV-I 0 W/m² 6,7 °C 8,6 °C 0,0 km/h (0 Bft)
11.10.2019 21:16 8,6 °C 88 % 1017,6 hPa 0,0 mm 0,0 km/h (0 Bft) SW 221 ° 0 min 0,000 mm 0,0 UV-I 0 W/m² 6,7 °C 8,6 °C 0,0 km/h (0 Bft)
11.10.2019 21:17 8,6 °C 88 % 1017,6 hPa 0,0 mm 0,0 km/h (0 Bft) SW 221 ° 0 min 0,000 mm 0,0 UV-I 0 W/m² 6,7 °C 8,6 °C 0,0 km/h (0 Bft)
11.10.2019 21:18 8,6 °C 88 % 1017,6 hPa 0,0 mm 0,0 km/h (0 Bft) SW 221 ° 0 min 0,000 mm 0,0 UV-I 0 W/m² 6,7 °C 8,6 °C 0,0 km/h (0 Bft)
11.10.2019 21:19 8,6 °C 87 % 1017,7 hPa 0,0 mm 0,0 km/h (0 Bft) SW 221 ° 0 min 0,000 mm 0,0 UV-I 0 W/m² 6,6 °C 8,6 °C 0,0 km/h (0 Bft)
11.10.2019 21:20 8,6 °C 88 % 1017,6 hPa 0,0 mm 0,0 km/h (0 Bft) SW 221 ° 0 min 0,000 mm 0,0 UV-I 0 W/m² 6,7 °C 8,6 °C 0,0 km/h (0 Bft)
11.10.2019 21:21 8,6 °C 87 % 1017,6 hPa 0,0 mm 0,0 km/h (0 Bft) SW 221 ° 0 min 0,000 mm 0,0 UV-I 0 W/m² 6,6 °C 8,6 °C 0,0 km/h (0 Bft)
11.10.2019 21:22 8,7 °C 87 % 1017,6 hPa 0,0 mm 0,0 km/h (0 Bft) SW 221 ° 0 min 0,000 mm 0,0 UV-I 0 W/m² 6,7 °C 8,7 °C 0,0 km/h (0 Bft)
11.10.2019 21:23 8,7 °C 87 % 1017,6 hPa 0,0 mm 0,0 km/h (0 Bft) SW 221 ° 0 min 0,000 mm 0,0 UV-I 0 W/m² 6,7 °C 8,7 °C 0,0 km/h (0 Bft)
11.10.2019 21:24 8,7 °C 87 % 1017,6 hPa 0,0 mm 0,0 km/h (0 Bft) SW 222 ° 0 min 0,000 mm 0,0 UV-I 0 W/m² 6,7 °C 8,7 °C 0,0 km/h (0 Bft)
11.10.2019 21:25 8,7 °C 87 % 1017,6 hPa 0,0 mm 0,0 km/h (0 Bft) SW 222 ° 0 min 0,000 mm 0,0 UV-I 0 W/m² 6,7 °C 8,7 °C 0,0 km/h (0 Bft)
11.10.2019 21:26 8,7 °C 87 % 1017,6 hPa 0,0 mm 0,0 km/h (0 Bft) SW 222 ° 0 min 0,000 mm 0,0 UV-I 0 W/m² 6,7 °C 8,7 °C 0,0 km/h (0 Bft)
11.10.2019 21:27 8,6 °C 86 % 1017,7 hPa 0,0 mm 0,0 km/h (0 Bft) SW 222 ° 0 min 0,000 mm 0,0 UV-I 0 W/m² 6,4 °C 8,6 °C 0,0 km/h (0 Bft)
11.10.2019 21:28 8,6 °C 86 % 1017,7 hPa 0,0 mm 0,0 km/h (0 Bft) SW 222 ° 0 min 0,000 mm 0,0 UV-I 0 W/m² 6,4 °C 8,6 °C 0,0 km/h (0 Bft)
11.10.2019 21:29 8,6 °C 87 % 1017,7 hPa 0,0 mm 0,0 km/h (0 Bft) SW 222 ° 0 min 0,000 mm 0,0 UV-I 0 W/m² 6,6 °C 8,6 °C 0,0 km/h (0 Bft)
11.10.2019 21:30 8,6 °C 87 % 1017,7 hPa 0,0 mm 0,0 km/h (0 Bft) SW 222 ° 0 min 0,000 mm 0,0 UV-I 0 W/m² 6,6 °C 8,6 °C 0,0 km/h (0 Bft)
11.10.2019 21:31 8,5 °C 88 % 1017,7 hPa 0,0 mm 0,0 km/h (0 Bft) SW 222 ° 0 min 0,000 mm 0,0 UV-I 0 W/m² 6,6 °C 8,5 °C 0,0 km/h (0 Bft)
11.10.2019 21:32 8,4 °C 88 % 1017,7 hPa 0,0 mm 0,0 km/h (0 Bft) S-SW 193 ° 0 min 0,000 mm 0,0 UV-I 0 W/m² 6,5 °C 8,4 °C 0,0 km/h (0 Bft)
11.10.2019 21:33 8,4 °C 88 % 1017,7 hPa 0,0 mm 0,0 km/h (0 Bft) S-SW 193 ° 0 min 0,000 mm 0,0 UV-I 0 W/m² 6,5 °C 8,4 °C 0,0 km/h (0 Bft)
11.10.2019 21:34 8,4 °C 88 % 1017,6 hPa 0,0 mm 0,0 km/h (0 Bft) S-SW 193 ° 0 min 0,000 mm 0,0 UV-I 0 W/m² 6,5 °C 8,4 °C 0,0 km/h (0 Bft)
11.10.2019 21:35 8,4 °C 88 % 1017,7 hPa 0,0 mm 0,0 km/h (0 Bft) S-SW 193 ° 0 min 0,000 mm 0,0 UV-I 0 W/m² 6,5 °C 8,4 °C 0,0 km/h (0 Bft)
11.10.2019 21:36 8,3 °C 87 % 1017,7 hPa 0,0 mm 0,0 km/h (0 Bft) S-SW 194 ° 0 min 0,000 mm 0,0 UV-I 0 W/m² 6,3 °C 8,3 °C 0,0 km/h (0 Bft)
11.10.2019 21:37 8,3 °C 88 % 1017,7 hPa 0,0 mm 0,0 km/h (0 Bft) S-SW 194 ° 0 min 0,000 mm 0,0 UV-I 0 W/m² 6,4 °C 8,3 °C 0,0 km/h (0 Bft)
11.10.2019 21:38 8,3 °C 88 % 1017,7 hPa 0,0 mm 0,0 km/h (0 Bft) S-SW 194 ° 0 min 0,000 mm 0,0 UV-I 0 W/m² 6,4 °C 8,3 °C 0,0 km/h (0 Bft)
11.10.2019 21:39 8,3 °C 88 % 1017,7 hPa 0,0 mm 0,0 km/h (0 Bft) S-SW 194 ° 0 min 0,000 mm 0,0 UV-I 0 W/m² 6,4 °C 8,3 °C 0,0 km/h (0 Bft)
11.10.2019 21:40 8,3 °C 87 % 1017,6 hPa 0,0 mm 0,0 km/h (0 Bft) S-SW 194 ° 0 min 0,000 mm 0,0 UV-I 0 W/m² 6,3 °C 8,3 °C 0,0 km/h (0 Bft)
11.10.2019 21:41 8,2 °C 88 % 1017,6 hPa 0,0 mm 0,0 km/h (0 Bft) S-SW 194 ° 0 min 0,000 mm 0,0 UV-I 0 W/m² 6,3 °C 8,2 °C 0,0 km/h (0 Bft)
11.10.2019 21:42 8,2 °C 88 % 1017,7 hPa 0,0 mm 0,0 km/h (0 Bft) S-SW 194 ° 0 min 0,000 mm 0,0 UV-I 0 W/m² 6,3 °C 8,2 °C 0,0 km/h (0 Bft)
11.10.2019 21:43 8,1 °C 88 % 1017,5 hPa 0,0 mm 0,0 km/h (0 Bft) S-SW 194 ° 0 min 0,000 mm 0,0 UV-I 0 W/m² 6,2 °C 8,1 °C 0,0 km/h (0 Bft)
11.10.2019 21:44 8,0 °C 88 % 1017,6 hPa 0,0 mm 0,0 km/h (0 Bft) S-SW 194 ° 0 min 0,000 mm 0,0 UV-I 0 W/m² 6,1 °C 8,0 °C 0,0 km/h (0 Bft)
11.10.2019 21:45 8,0 °C 88 % 1017,6 hPa 0,0 mm 0,0 km/h (0 Bft) S-SW 194 ° 0 min 0,000 mm 0,0 UV-I 0 W/m² 6,1 °C 8,0 °C 0,0 km/h (0 Bft)
11.10.2019 21:46 7,9 °C 88 % 1017,6 hPa 0,0 mm 0,0 km/h (0 Bft) S-SW 194 ° 0 min 0,000 mm 0,0 UV-I 0 W/m² 6,0 °C 7,9 °C 0,0 km/h (0 Bft)
11.10.2019 21:47 7,8 °C 88 % 1017,6 hPa 0,0 mm 0,0 km/h (0 Bft) S-SW 194 ° 0 min 0,000 mm 0,0 UV-I 0 W/m² 5,9 °C 7,8 °C 0,0 km/h (0 Bft)
11.10.2019 21:48 7,8 °C 88 % 1017,6 hPa 0,0 mm 0,0 km/h (0 Bft) S-SW 194 ° 0 min 0,000 mm 0,0 UV-I 0 W/m² 5,9 °C 7,8 °C 0,0 km/h (0 Bft)
11.10.2019 21:49 7,8 °C 89 % 1017,6 hPa 0,0 mm 0,0 km/h (0 Bft) S-SW 194 ° 0 min 0,000 mm 0,0 UV-I 0 W/m² 6,1 °C 7,8 °C 0,0 km/h (0 Bft)
11.10.2019 21:50 7,8 °C 89 % 1017,7 hPa 0,0 mm 0,0 km/h (0 Bft) S-SW 194 ° 0 min 0,000 mm 0,0 UV-I 0 W/m² 6,1 °C 7,8 °C 0,0 km/h (0 Bft)
11.10.2019 21:51 7,8 °C 89 % 1017,7 hPa 0,0 mm 0,0 km/h (0 Bft) S-SW 194 ° 0 min 0,000 mm 0,0 UV-I 0 W/m² 6,1 °C 7,8 °C 0,0 km/h (0 Bft)
11.10.2019 21:52 7,7 °C 89 % 1017,7 hPa 0,0 mm 0,0 km/h (0 Bft) S-SW 194 ° 0 min 0,000 mm 0,0 UV-I 0 W/m² 6,0 °C 7,7 °C 0,0 km/h (0 Bft)
11.10.2019 21:53 7,7 °C 89 % 1017,7 hPa 0,0 mm 0,0 km/h (0 Bft) S-SW 194 ° 0 min 0,000 mm 0,0 UV-I 0 W/m² 6,0 °C 7,7 °C 0,0 km/h (0 Bft)
11.10.2019 21:54 7,6 °C 89 % 1017,7 hPa 0,0 mm 0,0 km/h (0 Bft) S-SW 194 ° 0 min 0,000 mm 0,0 UV-I 0 W/m² 5,9 °C 7,6 °C 0,0 km/h (0 Bft)
11.10.2019 21:55 7,6 °C 89 % 1017,7 hPa 0,0 mm 0,0 km/h (0 Bft) S-SW 194 ° 0 min 0,000 mm 0,0 UV-I 0 W/m² 5,9 °C 7,6 °C 0,0 km/h (0 Bft)
11.10.2019 21:56 7,5 °C 89 % 1017,7 hPa 0,0 mm 0,0 km/h (0 Bft) S-SW 194 ° 0 min 0,000 mm 0,0 UV-I 0 W/m² 5,8 °C 7,5 °C 0,0 km/h (0 Bft)
11.10.2019 21:57 7,5 °C 89 % 1017,7 hPa 0,0 mm 0,0 km/h (0 Bft) S-SW 194 ° 0 min 0,000 mm 0,0 UV-I 0 W/m² 5,8 °C 7,5 °C 0,0 km/h (0 Bft)
11.10.2019 21:58 7,4 °C 89 % 1017,7 hPa 0,0 mm 0,0 km/h (0 Bft) S-SW 194 ° 0 min 0,000 mm 0,0 UV-I 0 W/m² 5,7 °C 7,4 °C 0,0 km/h (0 Bft)
11.10.2019 21:59 7,5 °C 90 % 1017,8 hPa 0,0 mm 0,0 km/h (0 Bft) S-SW 194 ° 0 min 0,000 mm 0,0 UV-I 0 W/m² 6,0 °C 7,5 °C 0,0 km/h (0 Bft)
11.10.2019 22:00 7,5 °C 90 % 1017,8 hPa 0,0 mm 0,0 km/h (0 Bft) S-SW 194 ° 0 min 0,000 mm 0,0 UV-I 0 W/m² 6,0 °C 7,5 °C 0,0 km/h (0 Bft)
11.10.2019 22:01 7,5 °C 90 % 1017,9 hPa 0,0 mm 0,0 km/h (0 Bft) S-SW 194 ° 0 min 0,000 mm 0,0 UV-I 0 W/m² 6,0 °C 7,5 °C 0,0 km/h (0 Bft)
11.10.2019 22:02 7,6 °C 90 % 1017,8 hPa 0,0 mm 0,0 km/h (0 Bft) S-SW 194 ° 0 min 0,000 mm 0,0 UV-I 0 W/m² 6,1 °C 7,6 °C 0,0 km/h (0 Bft)
11.10.2019 22:03 7,6 °C 90 % 1017,8 hPa 0,0 mm 0,0 km/h (0 Bft) S-SW 194 ° 0 min 0,000 mm 0,0 UV-I 0 W/m² 6,1 °C 7,6 °C 0,0 km/h (0 Bft)
11.10.2019 22:04 7,6 °C 90 % 1017,9 hPa 0,0 mm 0,0 km/h (0 Bft) S-SW 194 ° 0 min 0,000 mm 0,0 UV-I 0 W/m² 6,1 °C 7,6 °C 0,0 km/h (0 Bft)
11.10.2019 22:05 7,6 °C 90 % 1017,9 hPa 0,0 mm 0,0 km/h (0 Bft) S-SW 194 ° 0 min 0,000 mm 0,0 UV-I 0 W/m² 6,1 °C 7,6 °C 0,0 km/h (0 Bft)
11.10.2019 22:06 7,6 °C 89 % 1017,8 hPa 0,0 mm 0,0 km/h (0 Bft) S-SW 194 ° 0 min 0,000 mm 0,0 UV-I 0 W/m² 5,9 °C 7,6 °C 0,0 km/h (0 Bft)
11.10.2019 22:07 7,6 °C 90 % 1017,8 hPa 0,0 mm 0,0 km/h (0 Bft) S-SW 194 ° 0 min 0,000 mm 0,0 UV-I 0 W/m² 6,1 °C 7,6 °C 0,0 km/h (0 Bft)
11.10.2019 22:08 7,6 °C 89 % 1017,8 hPa 0,0 mm 0,0 km/h (0 Bft) S-SW 194 ° 0 min 0,000 mm 0,0 UV-I 0 W/m² 5,9 °C 7,6 °C 0,0 km/h (0 Bft)
11.10.2019 22:09 7,6 °C 89 % 1017,7 hPa 0,0 mm 0,0 km/h (0 Bft) S-SW 194 ° 0 min 0,000 mm 0,0 UV-I 0 W/m² 5,9 °C 7,6 °C 0,0 km/h (0 Bft)
11.10.2019 22:10 7,5 °C 89 % 1017,9 hPa 0,0 mm 0,1 km/h (0 Bft) W 278 ° 0 min 0,000 mm 0,0 UV-I 0 W/m² 5,8 °C 7,5 °C 1,6 km/h (1 Bft)
11.10.2019 22:11 7,4 °C 89 % 1017,8 hPa 0,0 mm 0,0 km/h (0 Bft) W 278 ° 0 min 0,000 mm 0,0 UV-I 0 W/m² 5,7 °C 7,4 °C 0,0 km/h (0 Bft)
11.10.2019 22:12 7,4 °C 89 % 1017,9 hPa 0,0 mm 0,0 km/h (0 Bft) W 277 ° 0 min 0,000 mm 0,0 UV-I 0 W/m² 5,7 °C 7,4 °C 0,0 km/h (0 Bft)
11.10.2019 22:13 7,6 °C 90 % 1017,9 hPa 0,0 mm 0,0 km/h (0 Bft) W 277 ° 0 min 0,000 mm 0,0 UV-I 0 W/m² 6,1 °C 7,6 °C 0,0 km/h (0 Bft)
11.10.2019 22:14 7,6 °C 90 % 1017,9 hPa 0,0 mm 0,0 km/h (0 Bft) W 277 ° 0 min 0,000 mm 0,0 UV-I 0 W/m² 6,1 °C 7,6 °C 0,0 km/h (0 Bft)
11.10.2019 22:15 7,6 °C 89 % 1017,9 hPa 0,0 mm 0,0 km/h (0 Bft) W 277 ° 0 min 0,000 mm 0,0 UV-I 0 W/m² 5,9 °C 7,6 °C 0,0 km/h (0 Bft)
11.10.2019 22:16 7,6 °C 90 % 1017,9 hPa 0,0 mm 0,0 km/h (0 Bft) W 277 ° 0 min 0,000 mm 0,0 UV-I 0 W/m² 6,1 °C 7,6 °C 0,0 km/h (0 Bft)
11.10.2019 22:17 7,5 °C 90 % 1017,9 hPa 0,0 mm 0,0 km/h (0 Bft) W 277 ° 0 min 0,000 mm 0,0 UV-I 0 W/m² 6,0 °C 7,5 °C 0,0 km/h (0 Bft)
11.10.2019 22:18 7,6 °C 90 % 1017,9 hPa 0,0 mm 0,0 km/h (0 Bft) W 277 ° 0 min 0,000 mm 0,0 UV-I 0 W/m² 6,1 °C 7,6 °C 0,0 km/h (0 Bft)
11.10.2019 22:19 7,6 °C 90 % 1017,9 hPa 0,0 mm 0,0 km/h (0 Bft) W 277 ° 0 min 0,000 mm 0,0 UV-I 0 W/m² 6,1 °C 7,6 °C 0,0 km/h (0 Bft)
11.10.2019 22:20 7,5 °C 89 % 1017,9 hPa 0,0 mm 0,0 km/h (0 Bft) W 277 ° 0 min 0,000 mm 0,0 UV-I 0 W/m² 5,8 °C 7,5 °C 0,0 km/h (0 Bft)
11.10.2019 22:21 7,5 °C 90 % 1017,9 hPa 0,0 mm 0,0 km/h (0 Bft) W 277 ° 0 min 0,000 mm 0,0 UV-I 0 W/m² 6,0 °C 7,5 °C 0,0 km/h (0 Bft)
11.10.2019 22:22 7,5 °C 90 % 1017,9 hPa 0,0 mm 0,0 km/h (0 Bft) W 277 ° 0 min 0,000 mm 0,0 UV-I 0 W/m² 6,0 °C 7,5 °C 0,0 km/h (0 Bft)
11.10.2019 22:23 7,5 °C 90 % 1017,9 hPa 0,0 mm 0,0 km/h (0 Bft) W 277 ° 0 min 0,000 mm 0,0 UV-I 0 W/m² 6,0 °C 7,5 °C 0,0 km/h (0 Bft)
11.10.2019 22:24 7,6 °C 90 % 1017,8 hPa 0,0 mm 0,0 km/h (0 Bft) W 277 ° 0 min 0,000 mm 0,0 UV-I 0 W/m² 6,1 °C 7,6 °C 0,0 km/h (0 Bft)
11.10.2019 22:25 7,6 °C 90 % 1017,9 hPa 0,0 mm 0,0 km/h (0 Bft) W 277 ° 0 min 0,000 mm 0,0 UV-I 0 W/m² 6,1 °C 7,6 °C 0,0 km/h (0 Bft)
11.10.2019 22:26 7,6 °C 89 % 1017,9 hPa 0,0 mm 0,0 km/h (0 Bft) W 277 ° 0 min 0,000 mm 0,0 UV-I 0 W/m² 5,9 °C 7,6 °C 0,0 km/h (0 Bft)
11.10.2019 22:27 7,5 °C 89 % 1017,9 hPa 0,0 mm 0,0 km/h (0 Bft) W 277 ° 0 min 0,000 mm 0,0 UV-I 0 W/m² 5,8 °C 7,5 °C 0,0 km/h (0 Bft)
11.10.2019 22:28 7,4 °C 89 % 1017,9 hPa 0,0 mm 0,0 km/h (0 Bft) W 277 ° 0 min 0,000 mm 0,0 UV-I 0 W/m² 5,7 °C 7,4 °C 0,0 km/h (0 Bft)
11.10.2019 22:29 7,4 °C 89 % 1017,9 hPa 0,0 mm 0,0 km/h (0 Bft) W 277 ° 0 min 0,000 mm 0,0 UV-I 0 W/m² 5,7 °C 7,4 °C 0,0 km/h (0 Bft)
11.10.2019 22:30 7,4 °C 89 % 1017,9 hPa 0,0 mm 0,5 km/h (0 Bft) W 277 ° 0 min 0,000 mm 0,0 UV-I 0 W/m² 5,7 °C 7,4 °C 1,6 km/h (1 Bft)
11.10.2019 22:31 7,4 °C 89 % 1017,8 hPa 0,0 mm 1,3 km/h (1 Bft) W 277 ° 0 min 0,000 mm 0,0 UV-I 0 W/m² 5,7 °C 7,4 °C 3,2 km/h (1 Bft)
11.10.2019 22:32 7,4 °C 90 % 1017,9 hPa 0,0 mm 0,3 km/h (0 Bft) W 277 ° 0 min 0,000 mm 0,0 UV-I 0 W/m² 5,9 °C 7,4 °C 1,6 km/h (1 Bft)
11.10.2019 22:33 7,4 °C 89 % 1017,9 hPa 0,0 mm 0,0 km/h (0 Bft) W 277 ° 0 min 0,000 mm 0,0 UV-I 0 W/m² 5,7 °C 7,4 °C 0,0 km/h (0 Bft)
11.10.2019 22:34 7,3 °C 89 % 1017,8 hPa 0,0 mm 0,0 km/h (0 Bft) W 277 ° 0 min 0,000 mm 0,0 UV-I 0 W/m² 5,6 °C 7,3 °C 0,0 km/h (0 Bft)
11.10.2019 22:35 7,3 °C 90 % 1017,8 hPa 0,0 mm 0,0 km/h (0 Bft) W 277 ° 0 min 0,000 mm 0,0 UV-I 0 W/m² 5,8 °C 7,3 °C 0,0 km/h (0 Bft)
11.10.2019 22:36 7,3 °C 90 % 1017,9 hPa 0,0 mm 0,0 km/h (0 Bft) W 277 ° 0 min 0,000 mm 0,0 UV-I 0 W/m² 5,8 °C 7,3 °C 0,0 km/h (0 Bft)
11.10.2019 22:37 7,3 °C 90 % 1017,8 hPa 0,0 mm 0,0 km/h (0 Bft) W 277 ° 0 min 0,000 mm 0,0 UV-I 0 W/m² 5,8 °C 7,3 °C 0,0 km/h (0 Bft)
11.10.2019 22:38 7,3 °C 90 % 1017,9 hPa 0,0 mm 0,0 km/h (0 Bft) W 277 ° 0 min 0,000 mm 0,0 UV-I 0 W/m² 5,8 °C 7,3 °C 0,0 km/h (0 Bft)
11.10.2019 22:39 7,3 °C 90 % 1017,9 hPa 0,0 mm 0,0 km/h (0 Bft) W 277 ° 0 min 0,000 mm 0,0 UV-I 0 W/m² 5,8 °C 7,3 °C 0,0 km/h (0 Bft)
11.10.2019 22:40 7,3 °C 90 % 1017,9 hPa 0,0 mm 0,0 km/h (0 Bft) W 277 ° 0 min 0,000 mm 0,0 UV-I 0 W/m² 5,8 °C 7,3 °C 0,0 km/h (0 Bft)
11.10.2019 22:41 7,4 °C 90 % 1017,9 hPa 0,0 mm 0,0 km/h (0 Bft) W 277 ° 0 min 0,000 mm 0,0 UV-I 0 W/m² 5,9 °C 7,4 °C 0,0 km/h (0 Bft)
11.10.2019 22:42 7,4 °C 90 % 1017,9 hPa 0,0 mm 0,0 km/h (0 Bft) W 277 ° 0 min 0,000 mm 0,0 UV-I 0 W/m² 5,9 °C 7,4 °C 0,0 km/h (0 Bft)
11.10.2019 22:43 7,4 °C 90 % 1018,0 hPa 0,0 mm 0,0 km/h (0 Bft) W 277 ° 0 min 0,000 mm 0,0 UV-I 0 W/m² 5,9 °C 7,4 °C 0,0 km/h (0 Bft)
11.10.2019 22:44 7,4 °C 90 % 1017,9 hPa 0,0 mm 0,0 km/h (0 Bft) W 277 ° 0 min 0,000 mm 0,0 UV-I 0 W/m² 5,9 °C 7,4 °C 0,0 km/h (0 Bft)
11.10.2019 22:45 7,4 °C 90 % 1017,9 hPa 0,0 mm 0,0 km/h (0 Bft) W 277 ° 0 min 0,000 mm 0,0 UV-I 0 W/m² 5,9 °C 7,4 °C 0,0 km/h (0 Bft)
11.10.2019 22:46 7,4 °C 90 % 1017,9 hPa 0,0 mm 0,0 km/h (0 Bft) W 277 ° 0 min 0,000 mm 0,0 UV-I 0 W/m² 5,9 °C 7,4 °C 0,0 km/h (0 Bft)
11.10.2019 22:47 7,4 °C 90 % 1018,0 hPa 0,0 mm 0,0 km/h (0 Bft) W 277 ° 0 min 0,000 mm 0,0 UV-I 0 W/m² 5,9 °C 7,4 °C 0,0 km/h (0 Bft)
11.10.2019 22:48 7,4 °C 89 % 1018,0 hPa 0,0 mm 0,3 km/h (0 Bft) NW 307 ° 0 min 0,000 mm 0,0 UV-I 0 W/m² 5,7 °C 7,4 °C 3,2 km/h (1 Bft)
11.10.2019 22:49 7,4 °C 89 % 1018,0 hPa 0,0 mm 0,0 km/h (0 Bft) NW 306 ° 0 min 0,000 mm 0,0 UV-I 0 W/m² 5,7 °C 7,4 °C 0,0 km/h (0 Bft)
11.10.2019 22:50 7,4 °C 89 % 1018,0 hPa 0,0 mm 0,0 km/h (0 Bft) NW 306 ° 0 min 0,000 mm 0,0 UV-I 0 W/m² 5,7 °C 7,4 °C 0,0 km/h (0 Bft)
11.10.2019 22:51 7,4 °C 90 % 1017,9 hPa 0,0 mm 0,0 km/h (0 Bft) NW 306 ° 0 min 0,000 mm 0,0 UV-I 0 W/m² 5,9 °C 7,4 °C 0,0 km/h (0 Bft)
11.10.2019 22:52 7,4 °C 89 % 1017,9 hPa 0,0 mm 0,0 km/h (0 Bft) NW 306 ° 0 min 0,000 mm 0,0 UV-I 0 W/m² 5,7 °C 7,4 °C 0,0 km/h (0 Bft)
11.10.2019 22:53 7,4 °C 90 % 1017,9 hPa 0,0 mm 0,0 km/h (0 Bft) NW 306 ° 0 min 0,000 mm 0,0 UV-I 0 W/m² 5,9 °C 7,4 °C 0,0 km/h (0 Bft)
11.10.2019 22:54 7,5 °C 90 % 1017,9 hPa 0,0 mm 0,0 km/h (0 Bft) NW 306 ° 0 min 0,000 mm 0,0 UV-I 0 W/m² 6,0 °C 7,5 °C 0,0 km/h (0 Bft)
11.10.2019 22:55 7,4 °C 90 % 1017,8 hPa 0,0 mm 0,0 km/h (0 Bft) NW 306 ° 0 min 0,000 mm 0,0 UV-I 0 W/m² 5,9 °C 7,4 °C 0,0 km/h (0 Bft)
11.10.2019 22:56 7,6 °C 90 % 1017,8 hPa 0,0 mm 0,0 km/h (0 Bft) NW 306 ° 0 min 0,000 mm 0,0 UV-I 0 W/m² 6,1 °C 7,6 °C 0,0 km/h (0 Bft)
11.10.2019 22:57 7,5 °C 90 % 1017,9 hPa 0,0 mm 0,0 km/h (0 Bft) NW 306 ° 0 min 0,000 mm 0,0 UV-I 0 W/m² 6,0 °C 7,5 °C 0,0 km/h (0 Bft)
11.10.2019 22:58 7,6 °C 90 % 1017,9 hPa 0,0 mm 2,5 km/h (1 Bft) W 281 ° 0 min 0,000 mm 0,0 UV-I 0 W/m² 6,1 °C 7,6 °C 6,4 km/h (2 Bft)
11.10.2019 22:59 7,6 °C 89 % 1018,0 hPa 0,0 mm 4,6 km/h (1 Bft) W-NW 286 ° 0 min 0,000 mm 0,0 UV-I 0 W/m² 5,9 °C 7,2 °C 6,4 km/h (2 Bft)
11.10.2019 23:00 7,7 °C 89 % 1017,9 hPa 0,0 mm 1,1 km/h (1 Bft) W-NW 284 ° 0 min 0,000 mm 0,0 UV-I 0 W/m² 6,0 °C 7,7 °C 4,8 km/h (1 Bft)
11.10.2019 23:01 7,8 °C 90 % 1017,9 hPa 0,0 mm 0,0 km/h (0 Bft) W-NW 284 ° 0 min 0,000 mm 0,0 UV-I 0 W/m² 6,3 °C 7,8 °C 0,0 km/h (0 Bft)
11.10.2019 23:02 7,8 °C 89 % 1017,9 hPa 0,0 mm 0,0 km/h (0 Bft) W-NW 284 ° 0 min 0,000 mm 0,0 UV-I 0 W/m² 6,1 °C 7,8 °C 0,0 km/h (0 Bft)
11.10.2019 23:03 7,8 °C 88 % 1017,9 hPa 0,0 mm 0,0 km/h (0 Bft) W-NW 284 ° 0 min 0,000 mm 0,0 UV-I 0 W/m² 5,9 °C 7,8 °C 0,0 km/h (0 Bft)
11.10.2019 23:04 7,8 °C 88 % 1017,9 hPa 0,0 mm 0,0 km/h (0 Bft) W-NW 284 ° 0 min 0,000 mm 0,0 UV-I 0 W/m² 5,9 °C 7,8 °C 0,0 km/h (0 Bft)
11.10.2019 23:05 7,8 °C 88 % 1017,9 hPa 0,0 mm 2,8 km/h (1 Bft) W-NW 284 ° 0 min 0,000 mm 0,0 UV-I 0 W/m² 5,9 °C 7,8 °C 4,8 km/h (1 Bft)
11.10.2019 23:06 7,8 °C 88 % 1017,9 hPa 0,0 mm 1,5 km/h (1 Bft) W-NW 284 ° 0 min 0,000 mm 0,0 UV-I 0 W/m² 5,9 °C 7,8 °C 3,2 km/h (1 Bft)
11.10.2019 23:07 7,9 °C 88 % 1018,0 hPa 0,0 mm 0,0 km/h (0 Bft) W-NW 284 ° 0 min 0,000 mm 0,0 UV-I 0 W/m² 6,0 °C 7,9 °C 0,0 km/h (0 Bft)
11.10.2019 23:08 8,0 °C 88 % 1018,0 hPa 0,0 mm 0,0 km/h (0 Bft) W-NW 284 ° 0 min 0,000 mm 0,0 UV-I 0 W/m² 6,1 °C 8,0 °C 0,0 km/h (0 Bft)
11.10.2019 23:09 7,9 °C 87 % 1018,0 hPa 0,0 mm 0,0 km/h (0 Bft) W-NW 284 ° 0 min 0,000 mm 0,0 UV-I 0 W/m² 5,9 °C 7,9 °C 0,0 km/h (0 Bft)
11.10.2019 23:10 7,9 °C 87 % 1017,9 hPa 0,0 mm 0,0 km/h (0 Bft) W-NW 284 ° 0 min 0,000 mm 0,0 UV-I 0 W/m² 5,9 °C 7,9 °C 0,0 km/h (0 Bft)
11.10.2019 23:11 7,8 °C 87 % 1018,0 hPa 0,0 mm 0,0 km/h (0 Bft) W-NW 284 ° 0 min 0,000 mm 0,0 UV-I 0 W/m² 5,8 °C 7,8 °C 0,0 km/h (0 Bft)
11.10.2019 23:12 7,8 °C 87 % 1018,0 hPa 0,0 mm 0,0 km/h (0 Bft) W-NW 284 ° 0 min 0,000 mm 0,0 UV-I 0 W/m² 5,8 °C 7,8 °C 0,0 km/h (0 Bft)
11.10.2019 23:13 7,8 °C 87 % 1018,0 hPa 0,0 mm 0,0 km/h (0 Bft) W-NW 284 ° 0 min 0,000 mm 0,0 UV-I 0 W/m² 5,8 °C 7,8 °C 0,0 km/h (0 Bft)
11.10.2019 23:14 7,8 °C 87 % 1018,0 hPa 0,0 mm 0,0 km/h (0 Bft) W-NW 284 ° 0 min 0,000 mm 0,0 UV-I 0 W/m² 5,8 °C 7,8 °C 0,0 km/h (0 Bft)
11.10.2019 23:15 7,8 °C 87 % 1018,0 hPa 0,0 mm 0,0 km/h (0 Bft) W-NW 284 ° 0 min 0,000 mm 0,0 UV-I 0 W/m² 5,8 °C 7,8 °C 0,0 km/h (0 Bft)
11.10.2019 23:16 7,8 °C 87 % 1018,1 hPa 0,0 mm 0,0 km/h (0 Bft) W-NW 284 ° 0 min 0,000 mm 0,0 UV-I 0 W/m² 5,8 °C 7,8 °C 0,0 km/h (0 Bft)
11.10.2019 23:17 7,8 °C 86 % 1018,1 hPa 0,0 mm 0,0 km/h (0 Bft) W-NW 284 ° 0 min 0,000 mm 0,0 UV-I 0 W/m² 5,6 °C 7,8 °C 0,0 km/h (0 Bft)
11.10.2019 23:18 7,8 °C 86 % 1018,1 hPa 0,0 mm 0,0 km/h (0 Bft) W-NW 284 ° 0 min 0,000 mm 0,0 UV-I 0 W/m² 5,6 °C 7,8 °C 0,0 km/h (0 Bft)
11.10.2019 23:19 7,8 °C 86 % 1018,1 hPa 0,0 mm 0,0 km/h (0 Bft) W-NW 284 ° 0 min 0,000 mm 0,0 UV-I 0 W/m² 5,6 °C 7,8 °C 0,0 km/h (0 Bft)
11.10.2019 23:20 7,8 °C 86 % 1018,0 hPa 0,0 mm 0,0 km/h (0 Bft) W-NW 284 ° 0 min 0,000 mm 0,0 UV-I 0 W/m² 5,6 °C 7,8 °C 0,0 km/h (0 Bft)
11.10.2019 23:21 7,8 °C 87 % 1018,1 hPa 0,0 mm 0,0 km/h (0 Bft) W-NW 284 ° 0 min 0,000 mm 0,0 UV-I 0 W/m² 5,8 °C 7,8 °C 0,0 km/h (0 Bft)
11.10.2019 23:22 7,8 °C 87 % 1018,0 hPa 0,0 mm 0,0 km/h (0 Bft) W-NW 284 ° 0 min 0,000 mm 0,0 UV-I 0 W/m² 5,8 °C 7,8 °C 0,0 km/h (0 Bft)
11.10.2019 23:23 7,8 °C 87 % 1018,0 hPa 0,0 mm 0,0 km/h (0 Bft) W-NW 284 ° 0 min 0,000 mm 0,0 UV-I 0 W/m² 5,8 °C 7,8 °C 0,0 km/h (0 Bft)
11.10.2019 23:24 7,8 °C 87 % 1018,0 hPa 0,0 mm 0,0 km/h (0 Bft) W-NW 284 ° 0 min 0,000 mm 0,0 UV-I 0 W/m² 5,8 °C 7,8 °C 0,0 km/h (0 Bft)
11.10.2019 23:25 7,8 °C 87 % 1018,1 hPa 0,0 mm 1,6 km/h (1 Bft) W-NW 302 ° 0 min 0,000 mm 0,0 UV-I 0 W/m² 5,8 °C 7,8 °C 3,2 km/h (1 Bft)
11.10.2019 23:26 7,8 °C 87 % 1018,0 hPa 0,0 mm 0,8 km/h (0 Bft) W-NW 302 ° 0 min 0,000 mm 0,0 UV-I 0 W/m² 5,8 °C 7,8 °C 3,2 km/h (1 Bft)
11.10.2019 23:27 7,8 °C 87 % 1018,0 hPa 0,0 mm 0,0 km/h (0 Bft) W-NW 302 ° 0 min 0,000 mm 0,0 UV-I 0 W/m² 5,8 °C 7,8 °C 0,0 km/h (0 Bft)
11.10.2019 23:28 7,8 °C 87 % 1018,0 hPa 0,0 mm 0,0 km/h (0 Bft) W-NW 302 ° 0 min 0,000 mm 0,0 UV-I 0 W/m² 5,8 °C 7,8 °C 0,0 km/h (0 Bft)
11.10.2019 23:29 7,8 °C 87 % 1018,0 hPa 0,0 mm 0,0 km/h (0 Bft) W-NW 302 ° 0 min 0,000 mm 0,0 UV-I 0 W/m² 5,8 °C 7,8 °C 0,0 km/h (0 Bft)
11.10.2019 23:30 7,7 °C 87 % 1018,0 hPa 0,0 mm 0,0 km/h (0 Bft) W-NW 302 ° 0 min 0,000 mm 0,0 UV-I 0 W/m² 5,7 °C 7,7 °C 0,0 km/h (0 Bft)
11.10.2019 23:31 7,7 °C 87 % 1018,1 hPa 0,0 mm 0,0 km/h (0 Bft) W-NW 302 ° 0 min 0,000 mm 0,0 UV-I 0 W/m² 5,7 °C 7,7 °C 0,0 km/h (0 Bft)
11.10.2019 23:32 7,8 °C 88 % 1018,0 hPa 0,0 mm 0,0 km/h (0 Bft) W-NW 302 ° 0 min 0,000 mm 0,0 UV-I 0 W/m² 5,9 °C 7,8 °C 0,0 km/h (0 Bft)
11.10.2019 23:33 7,7 °C 87 % 1018,0 hPa 0,0 mm 0,0 km/h (0 Bft) W-NW 302 ° 0 min 0,000 mm 0,0 UV-I 0 W/m² 5,7 °C 7,7 °C 0,0 km/h (0 Bft)
11.10.2019 23:34 7,7 °C 87 % 1018,0 hPa 0,0 mm 0,0 km/h (0 Bft) W-NW 302 ° 0 min 0,000 mm 0,0 UV-I 0 W/m² 5,7 °C 7,7 °C 0,0 km/h (0 Bft)
11.10.2019 23:35 7,7 °C 87 % 1018,0 hPa 0,0 mm 0,0 km/h (0 Bft) W-NW 302 ° 0 min 0,000 mm 0,0 UV-I 0 W/m² 5,7 °C 7,7 °C 0,0 km/h (0 Bft)
11.10.2019 23:36 7,7 °C 87 % 1018,0 hPa 0,0 mm 0,0 km/h (0 Bft) W-NW 302 ° 0 min 0,000 mm 0,0 UV-I 0 W/m² 5,7 °C 7,7 °C 0,0 km/h (0 Bft)
11.10.2019 23:37 7,6 °C 88 % 1017,9 hPa 0,0 mm 0,0 km/h (0 Bft) W-NW 302 ° 0 min 0,000 mm 0,0 UV-I 0 W/m² 5,7 °C 7,6 °C 0,0 km/h (0 Bft)
11.10.2019 23:38 7,6 °C 87 % 1018,0 hPa 0,0 mm 0,0 km/h (0 Bft) W-NW 302 ° 0 min 0,000 mm 0,0 UV-I 0 W/m² 5,6 °C 7,6 °C 0,0 km/h (0 Bft)
11.10.2019 23:39 7,6 °C 87 % 1018,0 hPa 0,0 mm 0,0 km/h (0 Bft) W-NW 302 ° 0 min 0,000 mm 0,0 UV-I 0 W/m² 5,6 °C 7,6 °C 0,0 km/h (0 Bft)
11.10.2019 23:40 7,7 °C 88 % 1018,0 hPa 0,0 mm 0,0 km/h (0 Bft) W-NW 302 ° 0 min 0,000 mm 0,0 UV-I 0 W/m² 5,8 °C 7,7 °C 0,0 km/h (0 Bft)
11.10.2019 23:41 7,6 °C 87 % 1018,0 hPa 0,0 mm 0,0 km/h (0 Bft) W-NW 302 ° 0 min 0,000 mm 0,0 UV-I 0 W/m² 5,6 °C 7,6 °C 0,0 km/h (0 Bft)
11.10.2019 23:42 7,5 °C 87 % 1018,0 hPa 0,0 mm 0,0 km/h (0 Bft) W-NW 302 ° 0 min 0,000 mm 0,0 UV-I 0 W/m² 5,5 °C 7,5 °C 0,0 km/h (0 Bft)
11.10.2019 23:43 7,4 °C 87 % 1018,0 hPa 0,0 mm 0,0 km/h (0 Bft) W-NW 302 ° 0 min 0,000 mm 0,0 UV-I 0 W/m² 5,4 °C 7,4 °C 0,0 km/h (0 Bft)
11.10.2019 23:44 7,3 °C 87 % 1018,0 hPa 0,0 mm 0,0 km/h (0 Bft) W-NW 302 ° 0 min 0,000 mm 0,0 UV-I 0 W/m² 5,3 °C 7,3 °C 0,0 km/h (0 Bft)
11.10.2019 23:45 7,3 °C 87 % 1018,0 hPa 0,0 mm 0,0 km/h (0 Bft) W-NW 302 ° 0 min 0,000 mm 0,0 UV-I 0 W/m² 5,3 °C 7,3 °C 0,0 km/h (0 Bft)
11.10.2019 23:46 7,3 °C 87 % 1018,0 hPa 0,0 mm 0,0 km/h (0 Bft) W-NW 302 ° 0 min 0,000 mm 0,0 UV-I 0 W/m² 5,3 °C 7,3 °C 0,0 km/h (0 Bft)
11.10.2019 23:47 7,3 °C 87 % 1018,0 hPa 0,0 mm 0,0 km/h (0 Bft) W-NW 302 ° 0 min 0,000 mm 0,0 UV-I 0 W/m² 5,3 °C 7,3 °C 0,0 km/h (0 Bft)
11.10.2019 23:48 7,3 °C 87 % 1018,0 hPa 0,0 mm 0,0 km/h (0 Bft) W-NW 302 ° 0 min 0,000 mm 0,0 UV-I 0 W/m² 5,3 °C 7,3 °C 0,0 km/h (0 Bft)
11.10.2019 23:49 7,3 °C 87 % 1018,0 hPa 0,0 mm 0,1 km/h (0 Bft) W-NW 302 ° 0 min 0,000 mm 0,0 UV-I 0 W/m² 5,3 °C 7,3 °C 1,6 km/h (1 Bft)
11.10.2019 23:50 7,3 °C 87 % 1018,0 hPa 0,0 mm 2,7 km/h (1 Bft) W-NW 302 ° 0 min 0,000 mm 0,0 UV-I 0 W/m² 5,3 °C 7,3 °C 4,8 km/h (1 Bft)
11.10.2019 23:51 7,3 °C 87 % 1018,0 hPa 0,0 mm 2,0 km/h (1 Bft) W-NW 302 ° 0 min 0,000 mm 0,0 UV-I 0 W/m² 5,3 °C 7,3 °C 3,2 km/h (1 Bft)
11.10.2019 23:52 7,3 °C 86 % 1018,0 hPa 0,0 mm 0,3 km/h (0 Bft) W-NW 302 ° 0 min 0,000 mm 0,0 UV-I 0 W/m² 5,1 °C 7,3 °C 1,6 km/h (1 Bft)
11.10.2019 23:53 7,2 °C 86 % 1018,0 hPa 0,0 mm 0,0 km/h (0 Bft) W-NW 302 ° 0 min 0,000 mm 0,0 UV-I 0 W/m² 5,0 °C 7,2 °C 0,0 km/h (0 Bft)
11.10.2019 23:54 7,2 °C 86 % 1017,9 hPa 0,0 mm 0,0 km/h (0 Bft) W-NW 302 ° 0 min 0,000 mm 0,0 UV-I 0 W/m² 5,0 °C 7,2 °C 0,0 km/h (0 Bft)
11.10.2019 23:55 7,2 °C 86 % 1017,9 hPa 0,0 mm 0,0 km/h (0 Bft) W-NW 302 ° 0 min 0,000 mm 0,0 UV-I 0 W/m² 5,0 °C 7,2 °C 0,0 km/h (0 Bft)
11.10.2019 23:56 7,2 °C 87 % 1017,9 hPa 0,0 mm 0,0 km/h (0 Bft) W-NW 302 ° 0 min 0,000 mm 0,0 UV-I 0 W/m² 5,2 °C 7,2 °C 0,0 km/h (0 Bft)
11.10.2019 23:57 7,2 °C 87 % 1018,0 hPa 0,0 mm 0,0 km/h (0 Bft) W-NW 302 ° 0 min 0,000 mm 0,0 UV-I 0 W/m² 5,2 °C 7,2 °C 0,0 km/h (0 Bft)
11.10.2019 23:58 7,3 °C 87 % 1018,0 hPa 0,0 mm 0,0 km/h (0 Bft) W-NW 302 ° 0 min 0,000 mm 0,0 UV-I 0 W/m² 5,3 °C 7,3 °C 0,0 km/h (0 Bft)
11.10.2019 23:59 7,2 °C 87 % 1018,0 hPa 0,0 mm 0,0 km/h (0 Bft) W-NW 302 ° 0 min 0,000 mm 0,0 UV-I 0 W/m² 5,2 °C 7,2 °C 0,0 km/h (0 Bft)
_ Min-Zeit 06:20 14:38 21:43 - 23:59 - - - - - - 06:19 06:20 23:59
Minimum _ 2,4 °C 56 % 1017,5 hPa - 0,0 km/h (0 Bft) - - - - - - 1,4 °C 2,4 °C 0,0 km/h (0 Bft)
_ Max-Zeit 15:54 07:26 10:51 19:37 13:35 - - 23:59 14:01 13:26 13:13 16:16 15:54 13:29
Maximum _ 15,8 °C 94 % 1022,6 hPa 0,2 mm 6,8 km/h
O-NO (2 Bft)
- - 0 min 0,305 mm 3,7 UV-I 599 W/m² 10,0 °C 15,8 °C 9,7 km/h
O (2 Bft)
Durchschnitt _ 8,3 °C 83 % 1020,0 hPa #1,0 mm 0,4 km/h (0 Bft) O - #0 min. #1,499 mm 2,4 UV-I 120 W/m² 5,4 °C 8,3 °C 0,8 km/h (0 Bft)